[[{"header":{"parameterUnit":"m.s-1","parameterCategory":1,"la1":30.6,"la2":29.2853,"lo1":-89.7004,"lo2":-87.6739,"dy":0.0162,"dx":0.0183,"nx":112,"ny":82,"refTime":"2024-03-23T06:00:00:Z","depth":0,"parameterNumber":2,"parameterNumberName":"U-component_of_WINDS"},"data":[0.0,0.0,0.0,0.0,0.0,0.0,0.0,0.0,0.0,0.0,0.0,0.0,0.0,0.0,0.0,0.0,0.0,0.0,0.0,0.0,0.0,0.0,0.0,0.0,0.0,0.0,0.0,0.0,0.0,0.0,0.0,0.0,0.0,0.0,0.0,0.0,0.0,0.0,0.0,0.0,0.0,0.0,0.0,0.0,0.0,0.0,0.0,0.0,0.0,0.0,0.0,0.0,0.0,0.0,0.0,0.0,0.0,0.0,0.0,0.0,0.0,0.0,0.0,0.0,0.0,0.0,0.0,0.0,0.0,0.0,0.0,0.0,0.0,0.0,0.0,0.0,0.0,0.0,0.0,0.0,0.0,0.0,0.0,0.0,0.0,0.0,0.0,0.0,0.0,0.0,0.0,4.6001,4.6196,4.6196,4.6196,4.6196,4.6196,4.6196,0.0,0.0,0.0,0.0,0.0,0.0,0.0,0.0,0.0,0.0,0.0,0.0,0.0,0.0,0.0,0.0,0.0,0.0,0.0,0.0,0.0,0.0,0.0,0.0,0.0,0.0,0.0,0.0,0.0,0.0,0.0,0.0,0.0,0.0,0.0,0.0,0.0,0.0,0.0,0.0,0.0,0.0,0.0,0.0,0.0,0.0,0.0,0.0,0.0,0.0,0.0,0.0,0.0,0.0,0.0,0.0,0.0,0.0,0.0,0.0,0.0,0.0,0.0,0.0,0.0,0.0,0.0,0.0,0.0,0.0,0.0,0.0,0.0,0.0,0.0,0.0,0.0,0.0,0.0,0.0,0.0,0.0,0.0,0.0,0.0,0.0,0.0,0.0,0.0,0.0,0.0,0.0,0.0,0.0,0.0,0.0,0.0,0.0,0.0,0.0,0.0,0.0,0.0,0.0,4.4267,4.6001,4.6196,4.6196,4.6196,4.6196,4.6196,4.6196,0.0,0.0,0.0,0.0,0.0,0.0,0.0,0.0,0.0,0.0,0.0,0.0,0.0,0.0,0.0,0.0,0.0,0.0,0.0,0.0,0.0,0.0,0.0,0.0,0.0,0.0,0.0,0.0,0.0,0.0,0.0,0.0,0.0,0.0,0.0,0.0,0.0,0.0,0.0,0.0,0.0,0.0,0.0,0.0,0.0,0.0,0.0,0.0,0.0,0.0,0.0,0.0,0.0,0.0,0.0,0.0,0.0,0.0,0.0,0.0,0.0,0.0,0.0,0.0,0.0,0.0,0.0,0.0,0.0,0.0,0.0,0.0,0.0,0.0,0.0,0.0,0.0,0.0,0.0,0.0,0.0,0.0,0.0,0.0,0.0,0.0,0.0,0.0,0.0,0.0,0.0,0.0,0.0,0.0,0.0,0.0,0.0,0.0,0.0,0.0,0.0,0.0,0.0,4.4715,4.5319,4.6098,4.6196,4.6196,4.6196,4.6196,4.6196,4.6196,4.6196,0.0,0.0,0.0,0.0,0.0,0.0,0.0,0.0,0.0,0.0,0.0,0.0,0.0,0.0,0.0,0.0,0.0,0.0,0.0,0.0,0.0,0.0,0.0,0.0,0.0,0.0,0.0,0.0,0.0,0.0,0.0,0.0,0.0,0.0,0.0,0.0,0.0,0.0,0.0,0.0,0.0,0.0,0.0,0.0,0.0,0.0,0.0,0.0,0.0,0.0,0.0,0.0,0.0,0.0,0.0,0.0,0.0,0.0,0.0,0.0,0.0,0.0,0.0,0.0,0.0,0.0,0.0,0.0,0.0,0.0,0.0,0.0,0.0,0.0,0.0,0.0,0.0,0.0,0.0,0.0,0.0,0.0,0.0,0.0,0.0,0.0,0.0,0.0,0.0,0.0,0.0,0.0,0.0,0.0,0.0,0.0,0.0,0.0,0.0,0.0,0.0,0.0,4.565,4.6196,4.6196,4.6196,4.6196,4.6196,4.6196,4.6196,4.6196,4.6196,0.0,0.0,0.0,0.0,0.0,0.0,0.0,0.0,0.0,0.0,0.0,0.0,0.0,0.0,0.0,0.0,0.0,0.0,0.0,0.0,0.0,0.0,0.0,0.0,0.0,0.0,0.0,0.0,0.0,0.0,0.0,0.0,0.0,0.0,0.0,0.0,0.0,0.0,0.0,0.0,0.0,0.0,0.0,0.0,0.0,0.0,0.0,0.0,0.0,0.0,0.0,0.0,0.0,0.0,0.0,0.0,0.0,0.0,0.0,0.0,0.0,0.0,0.0,0.0,0.0,0.0,0.0,0.0,0.0,0.0,0.0,0.0,0.0,0.0,0.0,0.0,0.0,0.0,0.0,0.0,0.0,0.0,0.0,0.0,0.0,0.0,0.0,0.0,0.0,0.0,0.0,0.0,0.0,0.0,0.0,0.0,0.0,0.0,0.0,0.0,0.0,0.0,4.565,4.6196,4.6196,4.6196,4.6196,4.6196,4.6196,4.6196,4.6196,4.6196,0.0,0.0,0.0,0.0,0.0,0.0,0.0,0.0,0.0,0.0,0.0,0.0,0.0,0.0,0.0,0.0,0.0,0.0,0.0,0.0,0.0,0.0,0.0,0.0,0.0,0.0,0.0,0.0,0.0,0.0,0.0,0.0,0.0,0.0,0.0,0.0,0.0,0.0,0.0,0.0,0.0,0.0,0.0,0.0,0.0,0.0,0.0,0.0,0.0,0.0,0.0,0.0,0.0,0.0,0.0,0.0,0.0,0.0,0.0,0.0,0.0,0.0,0.0,0.0,0.0,0.0,0.0,0.0,0.0,0.0,0.0,0.0,0.0,0.0,0.0,0.0,0.0,0.0,0.0,0.0,0.0,0.0,0.0,0.0,0.0,0.0,0.0,0.0,0.0,0.0,0.0,0.0,0.0,0.0,0.0,0.0,0.0,0.0,0.0,0.0,0.0,0.0,4.6001,4.6196,0.0,4.6196,4.6196,4.6196,4.6196,4.6196,4.6196,0.0,0.0,0.0,0.0,0.0,0.0,0.0,0.0,0.0,0.0,0.0,0.0,0.0,0.0,0.0,0.0,0.0,0.0,0.0,0.0,0.0,0.0,0.0,0.0,0.0,0.0,0.0,0.0,0.0,0.0,0.0,0.0,0.0,0.0,0.0,0.0,0.0,0.0,0.0,0.0,0.0,0.0,0.0,0.0,0.0,0.0,0.0,0.0,0.0,0.0,0.0,0.0,0.0,0.0,0.0,0.0,0.0,0.0,0.0,0.0,0.0,0.0,0.0,0.0,0.0,0.0,0.0,0.0,0.0,0.0,0.0,0.0,0.0,0.0,0.0,0.0,0.0,0.0,0.0,0.0,0.0,0.0,0.0,0.0,0.0,0.0,0.0,0.0,0.0,0.0,0.0,0.0,0.0,0.0,0.0,0.0,0.0,0.0,0.0,0.0,0.0,0.0,4.5944,4.6162,4.6196,0.0,4.6196,4.6196,4.6196,4.6196,4.6196,4.6196,0.0,0.0,0.0,0.0,0.0,0.0,0.0,0.0,0.0,0.0,0.0,0.0,0.0,0.0,0.0,0.0,0.0,0.0,0.0,0.0,0.0,0.0,0.0,0.0,0.0,0.0,0.0,0.0,0.0,0.0,0.0,0.0,0.0,0.0,0.0,0.0,0.0,0.0,0.0,0.0,0.0,0.0,0.0,0.0,0.0,0.0,0.0,0.0,0.0,0.0,0.0,0.0,0.0,0.0,0.0,0.0,0.0,0.0,0.0,0.0,0.0,0.0,0.0,0.0,0.0,0.0,0.0,0.0,0.0,0.0,0.0,0.0,0.0,0.0,0.0,0.0,0.0,0.0,0.0,0.0,0.0,0.0,0.0,0.0,0.0,0.0,0.0,0.0,0.0,0.0,0.0,0.0,0.0,0.0,0.0,0.0,0.0,0.0,0.0,0.0,0.0,0.0,4.588,4.613,4.6196,4.6196,4.6196,4.6196,4.6196,4.6196,4.6196,0.0,0.0,0.0,0.0,0.0,0.0,0.0,0.0,0.0,0.0,0.0,0.0,0.0,0.0,0.0,0.0,0.0,0.0,0.0,0.0,0.0,0.0,0.0,0.0,0.0,0.0,0.0,0.0,0.0,0.0,0.0,0.0,0.0,0.0,0.0,0.0,0.0,0.0,0.0,0.0,0.0,0.0,0.0,0.0,0.0,0.0,0.0,0.0,0.0,0.0,0.0,0.0,0.0,0.0,0.0,0.0,0.0,0.0,0.0,0.0,0.0,0.0,0.0,0.0,0.0,0.0,0.0,0.0,0.0,0.0,0.0,0.0,0.0,0.0,0.0,0.0,0.0,0.0,0.0,0.0,0.0,0.0,0.0,0.0,0.0,0.0,0.0,0.0,0.0,0.0,0.0,0.0,0.0,0.0,0.0,0.0,0.0,0.0,0.0,0.0,0.0,0.0,0.0,4.588,4.613,4.6196,4.6196,4.6196,4.6196,4.6196,4.6196,4.6196,4.6196,0.0,0.0,0.0,0.0,0.0,0.0,0.0,0.0,0.0,0.0,0.0,0.0,0.0,0.0,0.0,0.0,0.0,0.0,0.0,0.0,0.0,0.0,0.0,0.0,0.0,0.0,0.0,0.0,0.0,0.0,0.0,0.0,0.0,0.0,0.0,0.0,0.0,0.0,0.0,0.0,0.0,0.0,0.0,0.0,0.0,0.0,0.0,0.0,0.0,0.0,0.0,0.0,0.0,0.0,0.0,0.0,0.0,0.0,0.0,0.0,0.0,0.0,0.0,0.0,0.0,0.0,0.0,0.0,0.0,0.0,0.0,0.0,0.0,0.0,0.0,0.0,0.0,0.0,0.0,0.0,0.0,0.0,0.0,0.0,0.0,0.0,0.0,0.0,0.0,0.0,0.0,0.0,0.0,0.0,0.0,0.0,0.0,0.0,0.0,0.0,0.0,0.0,4.5813,4.6065,4.6196,4.6196,4.6196,4.6196,4.6196,4.6196,4.6196,4.6196,0.0,0.0,0.0,0.0,0.0,0.0,0.0,0.0,0.0,0.0,0.0,0.0,0.0,0.0,0.0,0.0,0.0,0.0,0.0,0.0,0.0,0.0,0.0,0.0,0.0,0.0,0.0,0.0,0.0,0.0,0.0,0.0,0.0,0.0,0.0,0.0,0.0,0.0,0.0,0.0,0.0,0.0,0.0,0.0,0.0,0.0,0.0,0.0,0.0,0.0,0.0,0.0,0.0,0.0,0.0,0.0,0.0,0.0,0.0,0.0,0.0,0.0,0.0,0.0,0.0,0.0,0.0,0.0,0.0,0.0,0.0,0.0,0.0,0.0,0.0,0.0,0.0,0.0,0.0,0.0,0.0,0.0,0.0,0.0,0.0,0.0,0.0,0.0,0.0,0.0,0.0,0.0,0.0,0.0,0.0,0.0,0.0,0.0,0.0,0.0,0.0,0.0,4.5731,4.5998,4.6196,4.6196,4.6196,4.6196,4.6196,4.6196,4.6196,4.6196,0.0,0.0,0.0,0.0,0.0,0.0,0.0,0.0,0.0,0.0,0.0,0.0,0.0,0.0,0.0,0.0,0.0,0.0,0.0,0.0,0.0,0.0,0.0,0.0,0.0,0.0,0.0,0.0,0.0,0.0,0.0,0.0,0.0,0.0,0.0,0.0,0.0,0.0,0.0,0.0,0.0,0.0,0.0,0.0,0.0,0.0,0.0,0.0,0.0,0.0,0.0,0.0,0.0,0.0,0.0,0.0,0.0,0.0,0.0,0.0,4.1096,0.0,0.0,0.0,0.0,0.0,0.0,0.0,0.0,0.0,0.0,0.0,0.0,0.0,0.0,0.0,0.0,0.0,0.0,0.0,0.0,0.0,0.0,0.0,0.0,0.0,0.0,0.0,0.0,0.0,0.0,0.0,0.0,0.0,0.0,0.0,0.0,0.0,0.0,0.0,0.0,0.0,4.5914,4.6093,4.6196,4.6196,4.6196,4.6196,4.6196,4.6196,4.6196,4.6196,0.0,0.0,0.0,0.0,0.0,0.0,0.0,0.0,0.0,0.0,0.0,0.0,0.0,0.0,0.0,0.0,0.0,0.0,0.0,0.0,0.0,0.0,0.0,0.0,0.0,0.0,0.0,0.0,0.0,0.0,0.0,0.0,0.0,0.0,0.0,0.0,0.0,0.0,0.0,0.0,0.0,0.0,0.0,0.0,0.0,0.0,0.0,0.0,0.0,0.0,0.0,0.0,0.0,0.0,0.0,0.0,0.0,0.0,0.0,0.0,0.0,4.11,0.0,0.0,0.0,0.0,0.0,0.0,0.0,0.0,0.0,0.0,0.0,0.0,0.0,0.0,0.0,0.0,0.0,0.0,0.0,0.0,0.0,0.0,0.0,0.0,0.0,0.0,0.0,0.0,0.0,0.0,0.0,0.0,0.0,0.0,0.0,0.0,0.0,0.0,0.0,0.0,4.5847,4.6056,4.6196,4.6196,4.6196,4.6196,4.6196,4.6196,4.6196,4.6196,4.6196,0.0,0.0,0.0,0.0,0.0,0.0,0.0,0.0,0.0,0.0,0.0,0.0,0.0,0.0,0.0,0.0,0.0,0.0,0.0,0.0,0.0,0.0,0.0,0.0,0.0,0.0,0.0,0.0,0.0,0.0,0.0,0.0,0.0,0.0,0.0,0.0,0.0,0.0,0.0,0.0,0.0,0.0,0.0,0.0,0.0,0.0,0.0,0.0,0.0,0.0,0.0,0.0,0.0,0.0,4.1097,4.1097,4.1095,4.1089,4.1091,4.1091,4.1091,4.1091,0.0,0.0,0.0,0.0,0.0,0.0,0.0,0.0,0.0,0.0,0.0,0.0,0.0,0.0,0.0,0.0,0.0,0.0,0.0,0.0,0.0,0.0,0.0,0.0,0.0,4.1884,4.1819,0.0,0.0,0.0,0.0,0.0,0.0,0.0,0.0,0.0,0.0,0.0,0.0,4.577,4.6027,4.6196,4.6196,4.6196,4.6196,4.6196,4.6196,4.6196,4.6196,4.6196,4.6196,0.0,0.0,0.0,0.0,0.0,0.0,0.0,0.0,0.0,0.0,0.0,0.0,0.0,0.0,0.0,0.0,0.0,0.0,0.0,0.0,0.0,0.0,0.0,0.0,0.0,0.0,0.0,0.0,0.0,0.0,0.0,0.0,3.5908,3.5908,0.0,0.0,0.0,0.0,0.0,0.0,0.0,0.0,0.0,0.0,0.0,0.0,0.0,0.0,4.1095,4.1097,4.1103,4.1106,4.1095,4.11,4.1106,4.1091,4.1106,4.1095,4.1095,0.0,4.1095,4.1095,0.0,0.0,0.0,0.0,0.0,0.0,0.0,0.0,0.0,0.0,0.0,0.0,0.0,0.0,0.0,0.0,0.0,0.0,0.0,0.0,0.0,0.0,4.1944,4.2942,4.2974,4.3044,0.0,4.3416,4.3082,4.4085,0.0,0.0,0.0,0.0,0.0,0.0,0.0,0.0,4.6111,4.6169,4.6196,4.6196,4.6196,4.6196,4.6196,4.6196,4.6196,4.6196,4.6196,4.6196,4.6196,4.6196,0.0,0.0,0.0,0.0,0.0,0.0,0.0,0.0,0.0,0.0,0.0,0.0,0.0,0.0,0.0,0.0,0.0,0.0,0.0,0.0,0.0,0.0,0.0,0.0,0.0,0.0,0.0,0.0,0.0,3.5908,3.5908,3.5908,3.5908,3.624,0.0,0.0,0.0,0.0,0.0,0.0,0.0,0.0,0.0,4.111,4.111,4.1097,4.1095,4.1109,4.1095,4.1091,4.1106,4.1106,4.1106,4.1091,4.11,4.1103,4.1089,4.1089,4.1103,4.1103,4.1103,4.1109,0.0,0.0,0.0,0.0,0.0,4.111,4.111,0.0,0.0,0.0,0.0,0.0,0.0,0.0,0.0,0.0,0.0,0.0,0.0,0.0,0.0,4.3898,4.3988,4.4114,4.5118,4.4989,4.4782,0.0,4.5109,4.5167,4.5449,0.0,0.0,0.0,0.0,0.0,4.6075,4.6154,4.6196,4.6196,4.6196,4.6196,4.6196,4.6196,4.6196,4.6196,4.6663,4.6936,4.6936,4.7404,4.7657,0.0,0.0,0.0,0.0,0.0,0.0,0.0,0.0,0.0,0.0,0.0,0.0,0.0,0.0,0.0,0.0,0.0,0.0,0.0,0.0,0.0,0.0,0.0,0.0,0.0,0.0,0.0,0.0,3.6415,3.6571,3.6571,3.6571,3.6902,0.0,0.0,0.0,0.0,0.0,0.0,4.111,4.111,4.111,4.111,4.111,4.1097,4.1109,4.1109,4.11,4.1091,4.1091,4.1091,4.1091,4.11,4.1111,4.1103,4.1095,4.1226,4.1383,4.1188,4.111,4.111,4.111,4.111,0.0,4.111,4.111,4.111,4.111,4.1227,4.1403,4.1403,0.0,4.1734,4.1734,0.0,0.0,0.0,0.0,4.3462,4.3723,0.0,4.3831,4.4832,4.4982,4.511,4.5881,4.6017,4.5966,0.0,4.575,4.5684,4.5638,0.0,0.0,0.0,0.0,4.6007,4.6056,4.6138,4.6196,4.6196,4.6196,4.6196,4.6196,4.6391,4.6527,4.6527,4.7345,4.7832,4.7832,4.8456,4.8806,4.8806,0.0,0.0,0.0,0.0,0.0,0.0,0.0,0.0,0.0,0.0,0.0,0.0,0.0,0.0,0.0,0.0,0.0,0.0,0.0,0.0,0.0,0.0,0.0,0.0,0.0,0.0,0.0,0.0,0.0,3.8363,3.8363,0.0,0.0,0.0,0.0,4.0974,4.1091,4.111,4.111,4.111,4.111,4.111,4.111,4.111,4.1091,4.1091,4.1103,4.1091,4.1091,4.1105,4.1108,4.1108,4.1097,4.1091,4.1091,4.1524,4.2182,4.1422,4.111,4.111,4.111,4.111,4.111,4.111,4.111,4.111,4.111,4.1598,4.2241,4.2241,4.2806,4.3461,4.3461,4.3416,0.0,0.0,4.3467,4.3617,4.4577,4.4731,4.4871,4.5881,4.6026,4.5969,4.6154,4.6093,4.6027,0.0,4.6162,4.6119,4.5997,0.0,4.5986,4.5986,4.5997,4.6056,4.6162,4.6196,4.6196,4.6196,4.6196,4.6196,4.6196,4.6956,4.7423,4.7423,4.8241,4.8729,4.8729,4.8787,4.8806,4.8806,4.8806,0.0,0.0,0.0,0.0,0.0,0.0,0.0,0.0,0.0,0.0,0.0,0.0,0.0,0.0,0.0,0.0,0.0,0.0,0.0,0.0,0.0,0.0,0.0,0.0,0.0,0.0,0.0,0.0,3.85,3.85,0.0,3.9727,3.9805,4.0156,4.1033,4.111,4.111,4.111,4.111,4.111,4.111,4.111,4.1097,4.11,4.11,4.1096,4.1097,4.1097,4.1097,4.1121,4.167,4.1937,4.1974,4.2529,4.291,4.3117,4.2824,4.2721,4.2708,4.2708,4.2708,4.2708,4.2708,4.2708,4.2708,4.2708,4.2903,4.313,4.313,4.3344,4.3598,4.3598,4.3953,4.4374,4.4416,4.4818,4.529,4.5643,4.5687,4.5757,4.6111,4.6154,4.6146,4.6189,4.6154,4.6146,4.6196,4.6138,4.6066,4.6007,4.6075,4.6093,4.6007,4.6075,4.6146,4.6196,4.6196,4.6196,4.6196,4.6702,4.7033,4.7033,4.7832,4.8339,4.8339,4.9118,4.9566,4.9566,5.0112,5.0404,5.0404,5.0404,5.0371,0.0,0.0,0.0,0.0,0.0,0.0,0.0,0.0,0.0,0.0,0.0,0.0,0.0,0.0,0.0,0.0,0.0,0.0,0.0,0.0,0.0,0.0,0.0,0.0,0.0,0.0,3.9376,3.9376,3.9376,3.961,4.0175,4.0234,4.0487,4.1052,4.111,4.111,4.111,4.111,4.1091,4.1097,4.1389,4.1538,4.1544,4.1837,4.1983,4.1983,4.1983,4.1979,4.1999,4.2588,4.2838,4.288,4.345,4.3836,4.4031,4.4044,4.4208,4.4429,4.3838,4.3598,4.3598,4.3598,4.3598,4.3637,4.3936,4.4033,4.4091,4.4384,4.4481,4.4481,4.4481,4.4871,4.5338,4.5338,4.5748,4.6196,4.6196,4.6196,4.6196,4.6196,4.6196,4.6196,4.6196,4.6196,4.6196,4.6196,4.6138,4.6075,4.6075,4.6146,4.6154,4.6017,4.6102,4.6189,4.6138,4.6162,4.6313,4.6605,4.715,4.7618,4.791,4.8729,4.9196,4.9196,4.9976,5.0443,5.0443,5.0989,5.1128,5.0791,5.0791,5.0889,5.1105,0.0,0.0,0.0,0.0,0.0,0.0,0.0,0.0,0.0,0.0,0.0,0.0,0.0,0.0,0.0,0.0,0.0,0.0,0.0,0.0,0.0,0.0,0.0,3.9961,4.0565,4.111,4.111,4.111,4.111,4.111,4.111,4.111,4.111,4.111,4.111,4.1149,4.1149,4.1156,4.1173,4.1992,4.2446,4.2442,4.3285,4.37,4.3708,4.3708,4.3697,4.3704,4.3723,4.3739,4.3747,4.3767,4.4211,4.4938,4.4947,4.5442,4.6027,4.4332,4.3676,4.3676,4.3676,4.3676,4.3799,4.4656,4.4929,4.5085,4.5923,4.6196,4.6196,4.6196,4.6196,4.6196,4.6196,4.6196,4.6196,4.6196,4.6196,4.6196,4.6196,4.6196,4.6196,4.6196,4.6196,4.6196,4.6196,4.6196,4.6196,4.6196,4.6196,4.6146,4.6017,4.6102,0.0,4.6017,4.6149,4.6566,4.7404,4.754,4.791,4.8768,4.9586,5.0034,5.0034,5.0833,5.13,5.13,5.13,5.083,4.9865,4.9834,5.025,5.1093,0.0,0.0,0.0,0.0,0.0,0.0,0.0,0.0,0.0,0.0,0.0,0.0,0.0,0.0,0.0,0.0,0.0,0.0,0.0,0.0,0.0,0.0,4.1013,4.0785,4.0955,4.111,4.111,4.111,4.111,4.111,4.111,4.111,4.111,4.111,4.1344,4.1948,4.1968,4.2266,4.2889,4.3148,4.3295,4.3333,4.3587,4.3693,4.37,4.37,4.3704,4.3723,4.4348,4.4637,4.4676,4.5301,4.5679,4.5835,4.5835,4.5975,4.6144,4.567,4.5494,4.5494,4.5494,4.5494,4.5514,4.5767,4.5845,4.5884,4.6118,4.6196,4.6196,4.6196,4.6196,4.6196,4.6196,4.6196,4.6196,4.6196,4.6196,4.6196,4.6196,4.6196,4.6196,4.6196,4.6196,4.6196,4.6196,4.6196,4.6196,4.6196,4.613,4.6037,4.6007,0.0,0.0,4.6007,4.6675,4.7228,4.7462,4.8592,4.941,4.9644,5.0443,5.095,5.095,5.1164,5.13,5.13,5.13,5.1176,5.0897,5.0661,5.0652,0.0,0.0,0.0,0.0,0.0,0.0,0.0,0.0,0.0,0.0,0.0,0.0,0.0,0.0,0.0,0.0,0.0,0.0,0.0,0.0,0.0,0.0,4.1101,4.11,4.1091,4.111,4.111,4.111,4.111,4.111,4.111,4.111,4.1247,4.1578,4.1598,4.1968,4.2806,4.2844,4.3085,4.3571,4.3953,4.4178,4.4235,4.461,4.4793,4.4797,4.4797,4.4797,4.4816,4.5304,4.5539,0.0,4.6085,4.6273,4.624,4.6211,4.6195,0.0,0.0,0.0,0.0,0.0,4.6196,4.6196,4.6196,4.6196,4.6196,4.6196,4.6196,4.6196,4.6196,4.6196,4.6196,4.6196,4.6196,4.6196,4.6196,4.6196,4.6196,4.6196,4.6196,4.6196,4.6196,4.6196,4.6313,4.6663,0.0,0.0,4.7202,4.6571,4.5997,4.5997,4.5997,4.6113,0.0,4.7084,4.7774,4.8475,4.941,5.0151,5.0502,5.1008,0.0,0.0,0.0,5.13,5.13,5.0897,0.0,0.0,0.0,5.0563,0.0,0.0,0.0,0.0,4.9847,4.9705,0.0,0.0,0.0,0.0,0.0,0.0,0.0,0.0,0.0,0.0,0.0,0.0,0.0,0.0,0.0,0.0,4.109,4.1097,4.111,4.111,4.111,4.111,4.111,4.111,4.111,4.1188,4.1539,4.226,4.2396,4.2825,4.3702,0.0,0.0,0.0,0.0,4.508,4.5128,4.5902,4.63,4.63,4.63,4.63,4.63,4.63,4.6358,4.6456,4.6456,4.6495,4.6569,4.6514,4.6479,4.6474,4.6287,4.6196,4.6196,4.6196,4.6196,0.0,0.0,0.0,0.0,4.6196,4.6196,4.6196,4.6196,4.6196,4.6196,4.6196,4.6196,4.6196,4.6196,4.6274,4.6352,4.6352,4.641,4.6488,4.6488,4.6488,4.6722,4.7501,4.7494,4.767,4.8635,4.7378,4.6258,4.6268,4.6268,0.0,4.725,4.7609,4.8358,4.9839,0.0,0.0,5.1222,5.13,5.13,5.13,5.13,5.13,5.13,5.0452,5.0384,5.1281,5.0413,5.034,5.1105,5.0889,5.064,5.0404,5.007,4.9906,0.0,0.0,0.0,0.0,0.0,0.0,0.0,0.0,0.0,0.0,0.0,0.0,0.0,0.0,0.0,4.1108,4.1108,4.1091,4.1097,4.111,4.111,4.111,4.111,4.111,4.111,4.1695,4.2124,4.2299,4.2961,4.3741,4.4598,4.4656,0.0,4.5676,4.5858,4.5942,4.5977,4.6186,4.6308,4.6308,0.0,0.0,4.63,4.63,4.6671,4.7354,4.7354,4.7721,4.8318,4.8294,4.8298,4.8152,4.6748,4.6196,4.6196,4.6196,4.6196,4.6196,4.6196,4.6196,4.6196,4.6196,4.6196,4.6196,4.6196,4.6196,0.0,4.6196,4.6196,4.6196,4.6196,4.6722,4.7248,4.7248,4.7793,4.83,4.83,4.83,4.8358,4.8514,4.8518,4.8557,4.8768,4.8269,4.7895,4.7986,4.8028,4.8066,4.8222,4.8991,4.9644,4.9976,5.0638,5.1125,5.13,5.13,5.13,5.13,5.13,5.13,5.13,5.1109,5.1109,5.13,5.0986,5.093,5.1105,5.0731,5.0528,5.0486,5.0193,5.0005,0.0,0.0,0.0,0.0,0.0,0.0,0.0,0.0,0.0,0.0,0.0,4.1096,4.109,0.0,4.1093,4.1094,4.1099,4.1109,4.1106,4.1103,4.111,4.111,4.111,4.1266,4.1656,4.2065,4.2669,4.3546,4.3994,4.4637,4.5494,4.5553,4.5754,4.619,4.6203,4.6195,4.6206,4.667,4.6913,4.6956,4.735,4.7549,4.7549,4.7549,4.7783,4.8193,4.8193,4.8424,4.879,4.8806,4.8806,4.8717,4.7834,4.7235,4.6839,4.6839,4.6566,4.6196,4.6196,4.6196,4.6274,4.6702,4.6839,4.6936,4.7365,4.7501,4.7501,4.7501,4.7501,4.7501,4.7501,4.7813,4.8144,4.8144,4.8475,4.8806,4.8806,4.8806,4.8923,4.9313,4.9359,4.9449,4.9968,4.9856,4.9465,4.8769,4.8564,4.869,4.9187,4.9698,5.017,5.0599,5.1047,5.13,5.13,5.13,5.13,5.13,5.13,5.13,5.13,5.13,5.13,5.13,5.1239,5.1161,5.1105,5.0797,5.0587,5.0486,5.0217,5.0057,0.0,0.0,0.0,0.0,0.0,0.0,0.0,0.0,4.1025,4.1091,4.11,4.1109,4.1108,4.1101,4.1168,4.1326,4.1343,4.14,4.1573,4.1583,4.159,4.159,4.1448,4.1656,4.2474,4.2708,4.339,4.4793,4.5066,4.5455,4.6157,4.6196,4.6196,4.6196,4.619,4.6281,4.6454,4.7153,4.7611,4.7834,4.8482,4.8798,4.8798,4.8798,4.8896,4.9052,4.9228,4.9306,4.9306,4.9317,4.9318,4.9309,4.9309,4.8769,4.7969,4.7813,4.7306,4.6702,4.6702,4.6702,4.6819,4.7521,4.7754,4.7871,4.8592,4.8806,4.8806,4.8806,4.8806,4.8806,4.8806,4.8923,4.9021,4.9021,4.9157,4.9294,4.9294,4.9294,4.9488,5.0131,5.0169,5.0354,5.1148,5.122,5.0724,4.9481,4.9157,4.9333,5.0143,5.0248,5.0521,5.1222,5.13,5.13,5.13,5.13,5.13,5.13,5.13,5.13,5.13,5.13,5.13,5.13,5.13,5.1248,5.1139,5.0898,5.0728,5.0548,5.0264,5.0082,4.0215,4.043,4.0579,4.0593,4.0718,4.0888,0.0,0.0,4.1025,4.1097,4.1104,4.1108,4.1108,4.1091,4.1353,4.2126,4.2245,4.2519,4.3296,4.3356,4.3318,4.3318,4.2641,4.2513,4.3364,4.415,4.4695,4.489,4.5611,4.6098,4.6196,4.6196,4.6196,4.6196,4.6203,4.6573,4.7352,4.7443,4.7883,4.8669,4.8771,4.8798,4.8798,4.8798,4.9228,5.0008,5.077,5.1102,5.1102,5.1102,5.1104,5.1121,5.1121,5.053,4.9625,4.8923,4.8592,4.8514,4.8514,4.8514,4.8534,4.8612,4.8651,4.867,4.8768,4.8806,4.8806,4.8806,4.8806,4.8806,4.8806,4.9333,4.9878,4.9878,5.0463,5.1028,5.1028,5.1028,5.1047,5.1145,5.1137,5.1167,5.1281,5.1292,5.1215,5.1047,5.1,5.1039,5.1145,5.1145,5.1183,5.13,5.13,5.13,5.13,5.13,5.13,5.13,5.13,5.13,5.13,5.13,5.13,5.13,5.13,5.1292,5.1284,5.0953,5.079,5.0761,5.0361,5.0114,4.0234,4.0363,4.0427,4.0469,4.0615,4.0765,4.0921,4.0967,4.1167,4.1745,4.1869,4.2006,4.2513,4.2611,4.2731,0.0,4.3159,4.328,4.3652,4.3686,4.3833,4.4301,4.4025,4.3966,4.4325,4.4695,4.5105,4.5611,4.5981,4.6196,4.6196,4.6196,4.6429,4.6936,4.6956,4.7372,4.8256,4.8749,4.9196,4.9552,5.0078,5.0301,5.0301,5.0301,5.0516,5.0887,5.1238,5.1394,5.1394,5.1394,5.1401,5.1394,5.1394,5.1141,5.0657,4.98,4.9196,4.8806,4.8806,4.8806,4.8884,4.9352,4.9508,4.9586,5.0092,5.0248,5.0248,5.0248,5.0248,5.0248,5.0248,5.0502,5.0755,5.0755,5.1028,5.13,5.13,5.13,5.13,5.13,5.13,5.13,5.13,5.13,5.13,5.13,5.13,5.13,5.13,5.13,5.13,5.13,5.13,5.13,5.13,5.13,5.13,5.13,5.13,5.13,5.13,5.13,5.13,5.13,5.13,5.13,5.13,5.0966,5.079,5.079,5.0404,5.0163,4.0176,4.0291,4.0326,4.0392,4.053,4.0759,4.115,4.1295,4.1616,4.2538,4.2744,4.2942,4.3587,4.3704,4.3782,4.4016,4.4069,4.4134,4.4388,4.4414,4.4627,4.5213,4.528,4.5258,4.527,4.5261,4.5514,4.6157,4.6196,4.6203,4.6196,4.6417,4.6846,4.7483,4.7723,4.8268,4.9146,4.9789,5.0215,5.0479,5.1098,5.1394,5.1394,5.1394,5.1394,5.1394,5.1394,5.1394,5.1394,5.1394,5.1401,5.1394,5.1394,5.1356,5.1222,5.0599,4.9995,4.9488,4.9488,4.9488,4.9586,5.017,5.0365,5.0482,5.1106,5.13,5.13,5.13,5.13,5.13,5.13,5.13,5.13,5.13,5.13,5.13,5.13,5.13,5.13,5.13,5.13,5.13,5.13,5.13,5.13,5.13,5.13,5.13,5.13,5.13,5.13,5.13,5.13,5.13,5.13,5.13,5.13,5.13,5.13,5.13,5.13,5.13,5.13,5.13,5.13,5.13,5.13,5.0966,5.079,5.0809,5.0653,5.0574,4.0098,4.0233,4.0406,4.0406,4.0607,4.1025,4.1867,4.2174,4.2506,4.3373,4.3611,4.3665,4.3704,4.3704,4.3977,4.4816,4.4953,4.5265,4.6105,4.6221,4.6229,4.6248,4.621,4.6165,0.0,4.6153,4.6176,4.6196,4.6196,4.6203,4.6201,4.7002,4.747,4.7509,4.8328,4.9184,5.0043,5.0101,5.0528,5.1357,5.139,5.1394,5.1394,5.1394,5.1394,5.1394,5.1394,5.1394,5.1394,5.1394,5.1401,5.1394,5.1394,5.1356,5.13,5.1261,5.1242,5.1222,5.1222,5.1222,5.1222,5.1242,5.1261,5.1261,5.13,5.13,5.13,5.13,5.13,5.13,5.13,5.13,5.13,5.13,5.13,5.13,5.13,5.13,5.13,5.13,5.13,5.13,5.13,5.13,5.13,5.13,5.13,5.13,5.13,5.13,5.13,5.13,5.13,5.13,5.13,5.13,5.13,5.13,5.13,5.13,5.13,5.13,5.13,5.13,5.13,5.13,5.13,5.0966,5.079,5.0809,5.1329,5.1514,4.0096,4.0597,4.1148,4.1236,4.1801,4.2441,4.2815,4.2995,4.3362,4.4273,4.4487,4.4668,4.5253,4.5367,4.546,4.5753,4.5824,4.5968,4.6261,4.6306,4.6293,4.6293,4.6286,0.0,0.0,0.0,0.0,4.6202,4.6201,4.6445,4.7025,4.7343,4.8014,4.9127,4.9437,5.0014,5.0879,5.0901,5.1076,5.14,5.1406,5.1394,5.1394,5.1394,5.1394,5.1394,5.1394,5.1394,5.1394,5.1394,5.1401,5.1394,5.1394,5.1356,5.13,5.13,5.13,5.13,5.13,5.13,5.13,5.13,5.13,5.13,5.13,5.13,5.13,5.13,5.13,5.13,5.13,5.13,5.13,5.13,5.13,5.13,5.13,5.13,5.13,5.13,5.13,5.13,5.13,5.13,5.13,5.13,5.13,5.13,5.13,5.13,5.13,5.13,5.13,5.13,5.13,5.13,5.13,5.13,5.13,5.13,5.13,5.13,5.13,5.13,5.1865,5.2158,5.2158,5.2408,5.2531,5.2531,5.2442,5.2384,4.0475,4.0997,4.1609,4.2061,4.2637,4.3217,4.3671,4.386,4.4225,4.5134,4.5344,4.5533,4.6098,4.6209,4.6206,4.6206,4.6269,4.63,4.63,4.63,4.63,4.63,4.6295,4.6303,0.0,0.0,0.0,4.6204,4.6498,4.6913,4.7471,4.8069,4.8905,5.0004,5.0314,5.0735,5.1289,5.1303,5.1323,5.1405,5.1406,5.1394,5.1394,5.1394,5.1394,5.1394,5.1394,5.1394,5.1394,5.1394,5.1401,5.1394,5.1394,5.1356,5.13,5.13,5.13,5.13,5.13,5.13,5.13,5.13,5.13,5.13,5.13,5.13,5.13,5.13,5.13,5.13,5.13,5.13,5.13,5.13,5.13,5.13,5.13,5.13,5.13,5.13,5.13,5.1398,5.171,5.2021,5.2236,5.2236,5.2236,5.2002,5.1378,5.13,5.1417,5.1729,5.1768,5.1885,5.2197,5.2236,5.2236,5.2236,5.2236,5.2236,5.2236,5.2236,5.2236,5.2236,5.2781,5.3054,5.3073,5.328,5.3401,5.3401,5.3305,5.3263,4.1333,4.1492,4.1858,4.2827,4.3153,4.3487,4.4447,4.4782,4.5101,4.5918,4.6146,4.6189,0.0,0.0,4.6206,4.6206,4.6269,4.63,4.63,4.63,4.63,0.0,0.0,0.0,0.0,0.0,0.0,4.6264,0.0,4.7545,4.7625,4.9132,5.0043,5.0157,5.0894,5.1289,5.1291,5.1291,5.133,5.1396,5.141,5.1394,5.1394,5.1394,5.1394,5.1394,5.1394,5.1394,5.1394,5.1394,5.1401,5.1394,5.1394,5.1356,5.13,5.13,5.13,5.13,5.13,5.13,5.13,5.13,5.13,5.13,5.13,5.13,5.13,5.13,5.13,5.13,5.13,5.13,5.13,5.13,5.13,5.132,5.1359,5.1378,5.1378,5.1417,5.1437,5.171,5.2528,5.3346,5.3911,5.3911,5.3911,5.3307,5.1651,5.1437,5.1749,5.2586,5.2664,5.2995,5.3833,5.3911,5.3911,5.3911,5.3911,5.3911,5.3911,5.3911,5.3911,5.3911,5.395,5.397,5.397,5.3668,5.3536,5.3539,5.3977,5.418,4.2077,4.2808,4.3464,4.3807,4.4465,4.5113,4.5492,4.5642,4.5765,4.5978,4.6027,4.6037,4.6037,0.0,0.0,4.619,4.6255,0.0,4.63,4.63,0.0,4.63,0.0,4.6305,4.6307,4.6835,0.0,0.0,4.7371,4.8063,4.9376,4.9845,5.0348,5.0972,5.1191,5.13,5.1308,5.1303,5.1323,5.14,5.1396,5.1406,5.1394,5.1394,5.1394,5.1394,5.1394,5.1394,5.1394,5.1394,5.1401,5.1394,5.1394,5.1356,5.13,5.13,5.13,5.13,5.13,5.13,5.13,5.13,5.13,5.13,5.13,5.13,5.13,5.13,5.13,5.13,5.13,5.13,5.13,5.13,5.13,5.1476,5.2138,5.2275,5.2469,5.3112,5.3249,5.3307,5.3541,5.3755,5.3911,5.3911,5.3911,5.3736,5.3288,5.3249,5.3327,5.3541,5.358,5.3658,5.3892,5.3911,5.3911,5.3911,5.3911,5.3911,5.3911,5.3911,5.3911,5.3911,5.4535,5.4866,5.4866,5.5123,5.5258,5.526,5.5128,5.5078,4.2978,4.3613,4.4133,4.4632,4.5235,4.5731,4.588,4.596,4.5997,4.5997,4.5997,4.5997,4.5997,4.6102,4.6196,0.0,0.0,0.0,4.63,4.63,4.6303,0.0,4.6303,0.0,4.6265,4.7004,4.7659,0.0,4.8427,4.9072,5.0045,5.0438,5.0823,5.1281,5.13,5.13,5.13,5.133,5.1369,5.1394,5.1396,5.141,5.1394,5.1394,5.1394,5.1394,0.0,5.1394,5.1394,5.1394,5.1401,5.1394,5.1394,5.1356,5.13,5.13,5.13,5.13,5.13,5.13,5.13,5.13,5.13,5.13,5.13,5.13,5.13,5.13,5.13,5.13,5.13,5.1573,5.1865,5.1865,5.2158,5.2586,5.3054,5.3171,5.3327,5.3814,5.4203,5.4476,5.4476,5.4788,5.5041,5.5041,5.5041,5.5041,5.5041,5.4379,5.4048,5.4437,5.4476,5.4632,5.5002,5.5041,5.5041,5.5041,5.5041,5.5041,5.5041,5.5041,5.5041,5.5041,5.5528,5.5762,5.5762,5.586,5.5915,5.5898,5.5915,5.5938,4.3918,4.4169,4.4401,4.5285,4.5601,4.5731,4.5852,4.5949,4.5997,4.5986,4.5997,4.5997,4.5997,4.6102,4.6196,4.6196,0.0,4.63,4.63,4.63,4.6309,4.6305,4.6287,4.6268,4.6225,4.709,4.7982,4.8737,4.9703,5.0265,5.0254,5.092,5.1308,5.13,5.1308,5.1308,5.13,5.1362,5.14,5.1394,5.1401,5.1394,5.1394,5.1394,5.1394,5.1394,0.0,0.0,5.1394,5.1394,5.1401,5.1394,5.1394,5.1356,5.132,5.1437,5.1476,5.1495,5.1593,5.1651,5.1612,5.1378,5.13,5.13,5.13,5.1378,5.1476,5.1476,5.1554,5.1651,5.1651,5.2216,5.2781,5.2781,5.3346,5.3931,5.4048,5.4164,5.4242,5.4242,5.4866,5.5372,5.5372,5.5996,5.6503,5.6503,5.6503,5.6503,5.6503,5.5178,5.4535,5.5295,5.5372,5.5684,5.6444,5.6503,5.6503,5.6503,5.6503,5.6503,5.6503,5.6503,5.6503,5.6503,5.6503,5.6503,5.6503,5.6209,5.6089,5.6106,5.6572,5.6785,4.4838,4.5067,4.5147,4.5419,4.5601,4.5715,4.5731,4.588,4.5975,4.5925,4.5972,4.5997,4.5997,4.6102,4.6196,4.6196,4.625,4.63,4.63,4.63,4.6303,0.0,4.6249,4.6229,4.6289,4.7662,0.0,0.0,0.0,5.1141,5.1082,5.1213,5.1291,5.13,5.131,5.131,5.13,5.1366,5.1396,5.1394,5.1391,5.1406,5.1394,5.1394,5.1394,5.1394,0.0,0.0,5.1394,5.1394,5.1401,5.1394,5.1394,5.1356,5.1398,5.2119,5.2372,5.2489,5.321,5.3444,5.321,5.1768,5.13,5.13,5.13,5.1807,5.2372,5.2372,5.2898,5.3444,5.3444,5.356,5.3677,5.3677,5.3794,5.4106,5.4827,5.5548,5.6054,5.6054,5.6171,5.6269,5.6269,5.6405,5.6503,5.6503,5.6503,5.6503,5.6503,5.623,5.6113,5.6249,5.6269,5.6347,5.6483,5.6503,5.6503,5.6503,5.6503,5.6503,5.6503,5.6503,5.6503,5.6503,5.6503,5.6503,5.6503,5.681,5.7047,5.7241,5.7524,5.7768,4.5048,4.5297,4.5317,4.538,4.5495,4.5601,4.5601,4.5786,4.5937,4.5906,4.596,4.5997,4.5997,4.6084,4.6154,4.6196,4.624,4.6269,4.63,4.63,4.6306,4.6297,4.6268,4.6425,4.6874,4.8057,0.0,0.0,0.0,5.1381,5.1342,5.1355,5.1359,5.1342,5.1355,5.1355,5.1357,5.1385,5.1374,5.1355,5.1381,5.1386,5.1348,5.1384,5.1398,5.1398,5.1402,0.0,5.1394,5.1394,5.1655,5.2018,5.2018,5.2285,5.2703,5.3112,5.3288,5.3346,5.3755,5.3911,5.3755,5.2918,5.2645,5.2645,5.2645,5.2937,5.3288,5.3288,5.358,5.3911,5.3911,5.4242,5.4574,5.4574,5.4924,5.5372,5.5782,5.6191,5.6503,5.6503,5.6503,5.6503,5.6503,5.6503,5.6503,5.6503,5.6503,5.6503,5.6503,5.6503,5.6503,5.6503,5.6503,5.6503,5.6503,5.6503,5.6503,5.6503,5.6503,5.6503,5.6503,5.6503,5.6697,5.7126,5.7126,5.734,5.7788,5.7923,5.8028,5.8137,5.8505,5.8746,4.5105,4.5297,4.5297,4.5297,4.54,4.5495,4.5457,4.57,4.5893,4.5866,4.5929,4.5997,4.5997,4.6047,4.613,4.6162,4.6196,4.6226,4.6273,4.6273,4.6284,4.6303,4.6306,0.0,4.7441,4.8299,0.0,0.0,0.0,0.0,5.1403,5.14,5.1398,5.1398,5.1402,5.1402,5.1398,5.1405,5.1367,5.1307,5.1361,5.1352,5.1297,5.1342,5.1386,5.1406,5.1396,0.0,0.0,5.1687,5.2143,5.2877,5.2877,5.3299,5.3931,5.4106,5.4184,5.4203,5.4398,5.4457,5.4457,5.4457,5.4203,5.3911,5.3911,5.4028,5.4184,5.4184,5.432,5.4457,5.4457,5.4963,5.5489,5.5489,5.5996,5.6503,5.6503,5.6503,5.6503,5.6503,5.6503,5.6503,5.6503,5.6503,5.6503,5.6503,5.6503,5.6503,5.6503,5.6503,5.6503,5.6503,5.6503,5.6503,5.6503,5.6503,5.6503,5.6503,5.6503,5.658,5.6756,5.6756,5.7145,5.7964,5.7983,5.8314,5.8996,5.899,5.8998,5.905,5.9476,5.9711,4.5277,4.5297,4.5297,4.5297,4.54,4.5457,4.5339,4.5635,4.5866,4.5746,4.588,4.5997,4.5997,4.6047,4.6093,4.6102,4.6162,4.6196,4.6206,4.6211,4.6221,4.6284,0.0,0.0,4.7517,4.8313,0.0,0.0,0.0,0.0,0.0,5.1404,5.1398,5.1398,5.1406,5.1406,5.1398,5.1406,5.1363,5.1307,5.1361,5.1352,5.1297,5.1301,5.1338,5.1406,0.0,0.0,0.0,5.2585,5.304,5.3774,5.3774,5.3832,5.4009,5.4788,5.508,5.5197,5.5996,5.6249,5.6249,5.6249,5.5197,5.3911,5.3911,5.4457,5.508,5.508,5.5645,5.6249,5.6249,5.6308,5.6386,5.6386,5.6444,5.6503,5.6503,5.6503,5.6503,5.6503,5.6503,5.6503,5.6503,5.6503,5.6503,5.6503,5.6503,5.6503,5.6503,5.6503,5.6503,5.6503,5.6503,5.6503,5.6503,5.6503,5.6503,5.6503,5.6503,5.6834,5.7555,5.7594,5.8003,5.886,5.888,5.8918,5.8996,5.958,5.9969,6.0166,6.0442,6.0682,4.5297,4.5297,4.5297,4.5297,4.5339,4.536,4.5317,4.5549,4.5761,4.5715,4.5867,4.5997,4.5997,4.6017,4.6047,4.6093,4.6111,4.6142,4.6181,4.6206,4.6216,4.63,4.6309,0.0,0.0,0.0,0.0,0.0,0.0,0.0,0.0,5.1398,5.1402,5.1402,5.1396,5.1394,5.1402,5.1391,5.1375,5.1294,5.1327,5.1297,5.1237,5.1245,5.1552,5.2119,0.0,0.0,0.0,5.3483,5.3957,5.4671,5.4671,5.5002,5.5509,5.584,5.5976,5.6035,5.6386,5.6503,5.6503,5.6503,5.6035,5.545,5.545,5.5704,5.5976,5.5976,5.623,5.6503,5.6503,5.6503,5.6503,5.6503,5.6503,5.6503,5.6503,5.6503,5.6503,5.6503,5.6503,5.6639,5.7145,5.7223,5.7399,5.7925,5.8003,5.8003,5.8003,5.8003,5.8003,5.8003,5.7087,5.6697,5.7184,5.7223,5.7438,5.7964,5.8003,5.8139,5.847,5.847,5.888,5.9776,5.9776,6.0029,6.0575,6.0827,6.1003,6.1081,6.107,6.1039,4.5297,4.5297,4.5297,4.5297,4.5297,4.5317,4.5339,4.5531,4.5715,4.5746,4.5893,4.5997,4.5997,4.5997,4.6017,4.6066,4.6075,4.6083,4.6151,4.6164,4.6195,4.6269,0.0,4.721,0.0,0.0,0.0,0.0,0.0,0.0,0.0,5.1394,5.1394,5.1394,5.1394,5.1394,5.1394,5.1394,5.1372,5.1335,5.1308,5.1258,5.1206,5.1444,5.1932,5.2591,0.0,0.0,0.0,5.4385,5.4855,5.5588,5.5574,5.5957,5.6503,5.6492,5.6492,5.6503,5.6503,5.6503,5.6503,5.6503,5.6503,5.6503,5.6503,5.6503,5.6503,5.6503,5.6503,5.6503,5.6503,5.6503,5.6503,5.6503,5.6503,5.6503,5.6503,5.6678,5.6853,5.6853,5.7048,5.7418,5.7983,5.8081,5.8295,5.8899,5.8996,5.8996,5.8996,5.8996,5.8996,5.8996,5.7944,5.7477,5.8042,5.8081,5.8353,5.8957,5.8996,5.9113,5.9367,5.9386,5.9795,6.0672,6.0672,6.0984,6.1607,6.1607,6.1607,6.1588,6.133,6.1074,4.5256,4.5297,4.5297,4.5297,4.5297,4.5319,4.5457,4.5599,4.5746,4.588,4.596,4.5997,4.5997,4.5997,4.5997,4.5997,4.5997,4.6017,4.6093,4.6093,4.6127,0.0,0.0,4.7835,0.0,0.0,0.0,0.0,0.0,0.0,0.0,5.1394,5.1394,5.1394,5.1394,5.1394,5.1394,5.1394,5.1401,5.1394,5.1335,5.1256,5.123,5.2022,5.2435,0.0,0.0,0.0,0.0,5.5257,5.5753,5.6485,5.6484,5.6498,5.6511,5.6508,5.65,5.6503,5.6503,5.6503,5.6503,5.6503,5.6503,5.6503,5.6503,5.6503,5.6503,5.6503,5.6503,5.6503,5.6503,5.6503,5.6503,5.6503,5.6503,5.6503,5.6503,5.7126,5.7691,5.7691,5.8373,5.8977,5.8996,5.8996,5.8996,5.8996,5.8996,5.8996,5.8996,5.8996,5.8996,5.8996,5.8977,5.8977,5.8996,5.8996,5.8996,5.8996,5.8996,5.9386,6.0243,6.0282,6.0692,6.1568,6.1588,6.1588,6.1607,6.1607,6.1607,6.1588,6.1194,6.0798,4.5256,4.5297,4.5297,4.5297,4.536,4.5438,4.5495,4.5665,4.5852,4.5893,4.596,4.5997,4.5997,4.5997,4.5997,4.5997,4.5997,4.6017,4.6093,4.6138,0.0,4.6201,4.7489,4.8732,0.0,0.0,0.0,0.0,0.0,0.0,0.0,5.1394,5.1394,5.1394,5.1394,5.1394,5.1394,5.1394,5.1372,5.1335,5.1308,5.1258,5.1225,5.203,0.0,0.0,0.0,0.0,0.0,5.6152,5.6319,5.6504,5.6511,5.6503,5.6503,5.6492,5.6492,5.6503,5.6503,5.6503,5.6503,5.6503,5.6503,5.6503,5.6503,5.6503,5.6503,5.6503,5.6503,5.6503,5.6503,5.6503,5.6639,5.7184,5.7321,5.7477,5.8081,5.8412,5.8587,5.8587,5.8802,5.9191,5.9795,5.9893,6.0088,6.0692,6.0769,6.0769,6.0769,6.0769,6.0769,6.0769,6.0769,6.0536,5.9932,5.9893,6.0146,6.073,6.0769,6.0906,6.1179,6.1198,6.1315,6.1588,6.1607,6.1607,6.1607,6.1607,6.1607,6.1588,6.1194,6.0925,4.5254,4.5297,4.5297,4.5297,4.54,4.5513,4.5566,4.5746,4.5906,4.5925,4.5964,4.5997,4.5997,4.5997,4.5997,4.5997,4.5997,4.6017,4.6093,0.0,0.0,4.7098,0.0,0.0,0.0,0.0,0.0,0.0,0.0,0.0,0.0,0.0,5.1394,5.1394,5.1394,5.1394,5.1394,5.1394,5.1381,5.1343,5.1316,5.1442,5.1755,5.2547,0.0,0.0,0.0,0.0,0.0,5.6538,5.6547,5.6504,5.6536,5.6517,5.6511,5.65,5.65,5.6503,5.6503,5.6503,5.6503,5.6503,5.6503,5.6503,5.6503,5.6503,5.6503,5.6503,5.6503,5.6503,5.6503,5.6717,5.7068,5.7574,5.7944,5.8334,5.888,5.925,5.9484,5.9484,5.9756,6.0146,6.0692,6.0789,6.0964,6.151,6.1607,6.1607,6.1607,6.1607,6.1607,6.1607,6.1607,6.1373,6.0847,6.0789,6.1023,6.1568,6.1607,6.1607,6.1607,6.1607,6.1607,6.1607,6.1607,6.1607,6.1607,6.1607,6.1568,6.1487,6.1142,6.1138,0.0,4.5297,4.5297,4.5297,4.5419,4.5549,4.5684,4.5805,0.0,4.5986,4.5997,4.5997,4.5997,4.5997,4.5997,4.5997,4.5997,4.6017,0.0,4.6093,0.0,0.0,0.0,0.0,0.0,0.0,0.0,0.0,0.0,0.0,0.0,0.0,5.1394,5.1394,5.1394,5.1394,5.1394,5.1394,5.1394,5.139,5.1336,5.174,5.2609,5.3358,0.0,0.0,0.0,0.0,0.0,5.6463,5.649,5.6504,5.6572,5.655,5.6492,5.6503,5.6496,5.6503,5.6503,5.6503,5.6503,5.6503,5.6503,5.6503,5.6503,5.6503,5.6503,5.6503,5.6541,5.658,5.658,5.7184,5.7808,5.7866,5.849,5.9113,5.9172,5.9815,6.038,6.038,6.1042,6.1607,6.1607,6.1607,6.1607,6.1607,6.1607,6.1607,6.1607,6.1607,6.1607,6.1607,6.1607,6.1607,6.1607,6.1607,6.1607,6.1607,6.1607,6.1607,6.1607,6.1607,6.1607,6.1607,6.1607,6.1607,6.1607,6.1607,6.1498,6.1317,6.115,6.1386,4.5233,0.0,4.5297,4.5297,4.5476,4.5668,0.0,4.5841,4.5975,4.5997,4.5997,4.5997,4.5997,4.5997,4.5997,4.5997,4.5997,4.6007,4.6017,0.0,0.0,0.0,0.0,0.0,0.0,0.0,0.0,0.0,0.0,0.0,0.0,0.0,5.1394,5.1394,5.1394,5.1394,5.1394,5.1394,5.1377,5.133,5.1308,5.1695,5.2491,5.3312,0.0,0.0,0.0,0.0,5.6415,5.6463,5.649,5.6504,5.6511,5.651,5.6511,5.65,5.6492,5.6503,5.6503,5.6503,5.6503,5.6503,5.6503,5.6503,5.6503,5.6503,5.6503,5.6503,5.6931,5.7418,5.7418,5.8042,5.886,5.9522,5.9854,6.0185,6.0847,6.114,6.1295,6.1295,6.1451,6.1607,6.1607,6.1607,6.1607,6.1607,6.1607,6.1607,6.1607,6.1607,6.1607,6.1607,6.1607,6.1607,6.1607,6.1607,6.1607,6.1607,6.1607,6.1607,6.1607,6.1607,6.1607,6.1607,6.1607,6.1607,6.1607,6.1607,6.1578,6.1548,6.1798,6.1988,4.5148,4.5235,4.5297,4.5297,4.5495,4.57,4.57,4.5867,4.5997,4.5997,4.5997,4.5997,4.5997,4.5997,4.5997,4.5997,4.5997,0.0,0.0,0.0,4.7268,0.0,0.0,0.0,0.0,0.0,0.0,0.0,0.0,0.0,0.0,0.0,5.1394,5.1394,5.1394,5.1394,5.1394,5.1394,5.1377,5.1349,5.1308,5.1901,5.3063,5.3487,0.0,0.0,0.0,0.0,5.6355,5.6426,5.6465,5.6493,5.6533,5.6524,5.65,5.6488,5.65,5.6503,5.6503,5.6503,5.6503,5.6503,5.6503,5.6503,5.6503,5.6756,5.7048,5.7048,5.736,5.7788,5.8178,5.8938,5.9717,6.0185,6.0614,6.1023,6.149,6.1607,6.1607,6.1607,6.1607,6.1607,6.1607,6.1607,6.1607,6.1607,6.1607,6.1607,6.1607,6.1607,6.1607,6.1607,6.1607,6.1607,6.1607,6.1607,6.1607,6.1607,6.1607,6.1607,6.1607,6.1607,6.1607,6.1607,6.1607,6.1607,6.1607,6.1607,6.1802,6.2211,6.2337,6.2758,4.5061,4.5192,4.5317,4.5338,4.5513,4.5715,4.5731,4.588,4.5997,4.5997,4.5997,4.5997,4.5997,4.5997,0.0,4.5997,0.0,0.0,4.6093,4.6847,4.7762,0.0,0.0,0.0,0.0,0.0,0.0,0.0,0.0,0.0,0.0,0.0,0.0,5.1394,5.1394,5.1394,5.1394,5.1394,5.1381,5.1388,5.1335,5.2163,5.3777,5.3732,5.464,0.0,0.0,0.0,5.6316,5.6366,5.6437,5.65,5.6559,5.6556,5.6496,5.6491,5.6496,5.6503,5.6503,5.6503,5.6503,5.6503,5.6503,5.6503,5.6503,5.7048,5.773,5.7866,5.7983,5.8276,5.9016,5.9854,6.0497,6.0497,6.1062,6.1607,6.1607,6.1607,6.1607,6.1607,6.1607,6.1607,6.1607,6.1607,6.1607,6.1607,6.1607,6.1607,6.1607,6.1607,6.1607,6.1607,6.1607,6.1607,6.1607,6.1607,6.1607,6.1607,6.1607,6.1607,6.1607,6.1607,6.1607,6.1607,6.1607,6.1607,6.1607,6.1724,6.2172,6.2893,6.2964,6.3618,4.5061,4.5192,4.5338,4.5438,4.5584,4.5731,4.5833,4.5949,4.5997,4.5997,4.5997,4.5997,4.5997,4.5997,4.5997,0.0,0.0,4.6017,0.0,0.0,0.0,0.0,0.0,0.0,0.0,0.0,0.0,0.0,0.0,0.0,0.0,0.0,0.0,5.1394,5.1394,5.1394,5.1394,5.1394,5.1372,5.1328,5.13,5.2154,5.3701,5.3701,5.464,0.0,0.0,5.6306,5.6316,5.6366,5.6437,5.65,5.6508,5.6511,5.6496,5.6496,5.6508,5.6503,5.6503,5.6503,5.6503,5.6503,5.6503,5.6503,5.6503,5.7048,5.7847,5.8587,5.9328,5.9932,6.0068,6.075,6.1393,6.1393,6.149,6.1607,6.1607,6.1607,6.1607,6.1607,6.1607,6.1607,6.1607,6.1607,6.1607,6.1607,6.1607,6.1607,6.1607,6.1607,6.1607,6.1607,6.1607,6.1607,6.1607,6.1607,6.1607,6.1607,6.1607,6.1607,6.1607,6.1607,6.1607,6.1607,6.1607,6.1607,6.1607,6.2348,6.2776,6.2932,6.415,6.4743,4.4986,4.5148,4.5319,4.5457,4.5601,4.5715,4.5776,4.5893,4.5997,4.5997,4.5997,4.5997,4.5997,0.0,4.5997,4.5997,0.0,0.0,0.0,0.0,0.0,0.0,0.0,0.0,0.0,0.0,0.0,0.0,0.0,0.0,0.0,0.0,0.0,0.0,5.1394,5.1394,5.1394,5.1394,5.1377,5.1349,5.1308,5.2163,5.3755,5.3732,5.464,5.6291,0.0,5.6309,5.6319,5.6374,5.6391,5.6403,5.6468,5.6475,5.646,5.6484,5.6492,5.6503,5.6503,5.6503,5.6503,5.6503,5.6503,5.658,5.7009,5.773,5.8587,5.9464,5.999,6.0399,6.0886,6.1295,6.1607,6.1607,6.1607,6.1607,6.1607,6.1607,6.1607,6.1607,6.1607,6.1607,6.1607,6.1607,6.1607,6.1607,6.1607,6.1607,6.1607,6.1607,6.1607,6.1607,6.1607,6.1607,6.1607,6.1607,6.1607,6.1607,6.1607,6.1607,6.1607,6.1607,6.1607,6.1607,6.1607,6.1822,6.2309,6.2698,6.3361,6.4276,6.4944,6.5347,4.4895,4.5103,4.5319,4.5457,4.5601,4.5715,4.5746,4.588,4.5997,4.5997,0.0,4.5997,0.0,4.5997,0.0,4.5997,0.0,0.0,0.0,0.0,0.0,0.0,0.0,0.0,0.0,0.0,0.0,0.0,0.0,0.0,0.0,0.0,0.0,0.0,5.1394,5.1394,5.1394,5.1394,5.1401,5.1394,5.1349,5.2208,5.3828,5.3755,5.4665,5.6297,5.6304,5.6304,5.629,5.6367,5.6368,5.6347,5.6443,5.6477,5.6419,5.6484,5.6503,5.6503,5.6503,5.6503,5.6503,5.6503,5.6503,5.6639,5.7457,5.8314,5.9172,6.0049,6.0458,6.075,6.1432,6.1607,6.1607,6.1607,6.1607,6.1607,6.1607,6.1607,6.1607,6.1607,6.1607,6.1607,6.1607,6.1607,6.1607,6.1607,6.1607,6.1607,6.1607,6.1607,6.1607,6.1607,6.1607,6.1607,6.1607,6.1607,6.1607,6.1607,6.1607,6.1607,6.1607,6.1607,6.1607,6.1607,6.1802,6.2231,6.2893,6.3283,6.416,6.5407,6.5621,6.5875,4.4895,4.5103,4.5319,4.5457,4.5601,4.5731,4.5866,4.5929,0.0,4.5997,0.0,0.0,0.0,4.5997,4.5997,4.5997,0.0,0.0,0.0,0.0,0.0,0.0,0.0,0.0,0.0,0.0,0.0,0.0,0.0,0.0,0.0,0.0,0.0,0.0,0.0,5.1394,5.1394,5.1394,5.1401,5.1394,5.1394,5.2265,5.3883,5.3808,5.4702,5.6297,5.6297,5.6309,5.6289,5.6318,5.634,5.6394,5.6461,5.651,5.6485,5.65,5.6503,5.6503,5.6503,5.6503,5.6503,5.6503,5.6503,5.6639,5.7457,5.8314,5.9172,6.0049,6.0886,6.151,6.1588,6.1607,6.1607,6.1607,6.1607,6.1607,6.1607,6.1607,6.1607,6.1607,6.1607,6.1607,6.1607,6.1607,6.1607,6.1607,6.1607,6.1607,6.1607,6.1607,6.1607,6.1607,6.1607,6.1607,6.1607,6.1607,6.1607,6.1607,6.1607,6.1607,6.1607,6.1607,6.1607,6.1607,6.2387,6.2835,6.2893,6.4452,6.529,6.5426,6.6225,6.6528,4.4895,4.5103,4.5317,4.536,4.5549,0.0,0.0,4.5893,4.5986,4.5949,4.5964,0.0,0.0,0.0,4.5997,0.0,0.0,0.0,0.0,0.0,0.0,0.0,0.0,0.0,0.0,0.0,0.0,0.0,0.0,0.0,0.0,0.0,0.0,0.0,0.0,5.1394,5.1394,5.1394,5.141,5.1401,5.1405,5.2285,5.3903,5.3828,5.4713,5.6308,5.6306,5.6302,5.6302,5.6347,5.6347,5.6339,5.6419,5.646,5.6491,5.6508,5.6503,5.6503,5.6503,5.6503,5.6503,5.6503,5.6503,5.6756,5.81,5.8743,5.9289,6.0711,6.1354,6.1607,6.1607,6.1607,6.1607,6.1607,6.1607,6.1607,6.1607,6.1607,6.1607,6.1607,6.1607,6.1607,6.1607,6.1607,6.1607,6.1607,6.1607,6.1607,6.1607,6.1607,6.1607,6.1607,6.1607,6.1607,6.1607,6.1607,6.1607,6.1607,6.1607,6.1607,6.1607,6.1607,6.1841,6.2406,6.2737,6.3419,6.4452,6.5095,6.5679,6.6225,6.6556,6.6587,4.4895,4.5103,4.5317,4.5339,4.5495,4.5651,4.57,4.5867,4.5975,4.5899,4.596,4.5997,4.5997,0.0,0.0,0.0,0.0,0.0,0.0,0.0,0.0,0.0,0.0,0.0,0.0,0.0,0.0,0.0,0.0,0.0,0.0,0.0,0.0,0.0,0.0,5.1394,5.1394,5.1394,5.1394,5.1394,5.1396,5.2147,5.3532,5.3744,5.4606,5.5969,5.6222,5.6349,5.6367,5.6366,5.6348,5.6338,5.6377,5.6445,5.6489,5.6491,5.65,5.6503,5.6503,5.6503,5.6503,5.6503,5.6503,5.6814,5.849,5.8996,5.9367,6.1101,6.1607,6.1607,6.1607,6.1607,6.1607,6.1607,6.1607,6.1607,6.1607,6.1607,6.1607,6.1607,6.1607,6.1607,6.1607,6.1607,6.1607,6.1607,6.1607,6.1607,6.1607,6.1607,6.1607,6.1607,6.1607,6.1607,6.1607,6.1607,6.1607,6.1607,6.1607,6.1607,6.1607,6.1861,6.2289,6.2893,6.3419,6.4257,6.5407,6.5679,6.6127,6.6712,6.6712,6.663,4.4895,4.5084,4.5319,4.5457,4.5495,4.5531,4.5668,4.5848,4.5975,4.5899,4.596,4.5997,4.5997,0.0,0.0,0.0,0.0,0.0,0.0,0.0,0.0,0.0,0.0,0.0,0.0,0.0,0.0,0.0,0.0,0.0,0.0,0.0,0.0,0.0,5.1394,0.0,5.1394,5.1394,5.1394,5.1394,5.1394,5.1863,5.2722,5.3532,5.4378,5.5237,5.6059,5.643,5.6498,5.6349,5.6329,5.6407,5.6405,5.6442,5.6508,5.6494,5.6498,5.6503,5.6503,5.6503,5.6503,5.6503,5.6503,5.6814,5.849,5.8996,5.9367,6.1101,6.1607,6.1607,6.1607,6.1607,6.1607,6.1607,6.1607,6.1607,6.1607,6.1607,6.1607,6.1607,6.1607,6.1607,6.1607,6.1607,6.1607,6.1607,6.1607,6.1607,6.1607,6.1607,6.1607,6.1607,6.1607,6.1607,6.1607,6.1607,6.1607,6.1607,6.1607,6.1607,6.1607,6.2445,6.2913,6.2913,6.4549,6.5407,6.5407,6.6283,6.6712,6.6712,6.6712,6.6712,4.487,4.5033,4.5192,4.5319,4.5419,4.5513,4.5549,4.5742,0.0,0.0,4.5986,4.5997,4.5997,0.0,0.0,0.0,0.0,0.0,0.0,0.0,0.0,0.0,0.0,0.0,0.0,0.0,0.0,0.0,0.0,0.0,0.0,0.0,0.0,0.0,5.1394,5.1394,5.1394,5.1394,5.1394,5.1394,5.1394,5.1863,5.2722,5.3488,5.4332,5.5237,5.6059,5.6377,5.6349,5.6314,5.6338,5.6391,5.6394,5.6437,5.6507,5.6499,5.6498,5.6503,5.6503,5.6503,5.6503,5.6503,5.6503,5.6814,5.849,5.8996,5.9367,6.1101,6.1607,6.1607,6.1607,6.1607,6.1607,6.1607,6.1607,6.1607,6.1607,6.1607,6.1607,6.1607,6.1607,6.1607,6.1607,6.1607,6.1607,6.1607,6.1607,6.1607,6.1607,6.1607,6.1607,6.1607,6.1607,6.1607,6.1607,6.1607,6.1607,6.1607,6.2172,6.2503,6.2503,6.2757,6.3458,6.4647,6.5153,6.5699,6.6322,6.6576,6.6712,6.6712,6.6712,6.7024,4.4943,4.508,4.5192,4.5275,4.54,4.5531,4.5616,0.0,0.0,0.0,4.5997,4.5997,4.5997,0.0,0.0,0.0,0.0,0.0,0.0,0.0,0.0,0.0,0.0,0.0,0.0,0.0,0.0,0.0,0.0,0.0,0.0,0.0,0.0,0.0,5.1394,5.1394,5.1394,5.1394,5.1394,5.1394,5.1406,5.1679,5.2214,5.2999,5.3871,5.4786,5.5938,5.6405,5.6339,5.6347,5.6349,5.6394,5.6426,5.6465,5.6502,5.6504,5.6509,5.6496,5.6492,5.6503,5.6503,5.6503,5.6503,5.6814,5.849,5.8996,5.9367,6.1101,6.1607,6.1607,6.1607,6.1607,6.1607,6.1607,6.1607,6.1607,6.1607,6.1607,6.1607,6.1607,6.1607,6.1607,6.1607,6.1607,6.1607,6.1607,6.1607,6.1607,6.1607,6.1607,6.1607,6.1607,6.1607,6.1607,6.1607,6.1919,6.2114,6.2114,6.2913,6.3536,6.3887,6.3887,6.4374,6.5387,6.5738,6.6166,6.6712,6.6712,6.6712,6.6712,6.7063,6.7511,4.5057,4.517,4.5297,4.5297,4.5419,4.5584,4.5838,4.5893,4.5944,4.5986,0.0,4.5997,0.0,0.0,0.0,0.0,0.0,0.0,0.0,0.0,0.0,0.0,0.0,0.0,0.0,0.0,0.0,0.0,0.0,0.0,0.0,0.0,0.0,0.0,5.1394,5.1394,5.1394,5.1394,5.1394,0.0,5.1391,5.1391,5.1429,5.2308,5.3205,5.4201,5.5789,5.6457,5.6405,5.6396,5.6377,5.6414,5.6464,5.6489,5.6503,5.65,5.6501,5.6503,5.6508,5.6503,5.6503,5.6503,5.6503,5.6814,5.849,5.8996,5.9367,6.1101,6.1607,6.1607,6.1607,6.1607,6.1607,6.1607,6.1607,6.1607,6.1607,6.1607,6.1607,6.1607,6.1607,6.1607,6.1607,6.1607,6.1607,6.1607,6.1607,6.1607,6.1607,6.1607,6.1607,6.1607,6.1607,6.1627,6.1705,6.2445,6.2932,6.2991,6.377,6.4569,6.5368,6.5407,6.5446,6.5523,6.6303,6.6712,6.6712,6.6712,6.6751,6.6848,6.7628,6.8095,4.4895,4.5057,4.517,4.5256,4.5476,4.5684,4.5731,4.5867,4.5975,4.5997,4.5997,4.5997,0.0,0.0,0.0,0.0,0.0,0.0,0.0,0.0,0.0,0.0,0.0,0.0,0.0,0.0,0.0,0.0,0.0,0.0,0.0,0.0,0.0,5.1394,5.1394,5.1394,5.1394,5.1394,5.1394,0.0,5.141,5.1401,5.1425,5.2253,5.3468,5.4989,5.5989,5.6414,5.6405,5.6336,5.6358,5.6405,5.6422,5.6455,5.6503,5.65,5.6501,5.6503,5.6508,5.6503,5.6503,5.6503,5.6503,5.6814,5.849,5.8996,5.9367,6.1101,6.1607,6.1607,6.1607,6.1607,6.1607,6.1607,6.1607,6.1607,6.1607,6.1607,6.1607,6.1607,6.1607,6.1607,6.1607,6.1607,6.1607,6.1607,6.1607,6.1607,6.1607,6.1607,6.1607,6.1607,6.1607,6.188,6.2562,6.2796,6.3166,6.3809,6.4647,6.5192,6.5387,6.5407,6.5718,6.642,6.6595,6.6712,6.6712,6.6712,6.7043,6.7725,6.792,6.8738,4.4943,4.5057,4.5151,4.5438,4.5601,4.5731,4.5827,4.591,4.5997,4.5997,4.5997,0.0,0.0,0.0,0.0,0.0,0.0,0.0,0.0,0.0,0.0,0.0,0.0,0.0,0.0,0.0,0.0,0.0,0.0,0.0,0.0,5.138,5.1396,5.1396,5.141,5.1394,5.1394,5.1394,5.1394,5.1394,5.1401,5.1411,5.1433,5.2662,5.3715,5.4645,5.5876,5.6377,5.6349,5.6358,5.6359,5.6414,5.6471,5.6519,5.6534,5.6502,5.6507,5.6508,5.6496,5.6503,5.6503,5.6503,5.6503,5.6814,5.849,5.8996,5.9367,6.1101,6.1607,6.1607,6.1607,6.1607,6.1607,6.1607,6.1607,6.1607,6.1607,6.1607,6.1607,6.1607,6.1607,6.1607,6.1607,6.1607,6.1607,6.1607,6.1607,6.1607,6.1607,6.1607,6.1607,6.1607,6.1607,6.1958,6.2835,6.3244,6.3828,6.4666,6.5543,6.603,6.603,6.603,6.6244,6.6692,6.6712,6.6712,6.6712,6.7121,6.7569,6.8017,6.8855,6.9732,4.4967,4.5061,4.5194,4.5547,4.5651,4.5712,4.5898,4.5964,4.5986,4.5997,4.5997,0.0,0.0,0.0,0.0,0.0,0.0,0.0,0.0,0.0,0.0,0.0,0.0,0.0,0.0,0.0,0.0,0.0,0.0,0.0,5.1284,5.1349,5.1388,5.1394,5.1391,5.1386,5.1394,5.139,5.141,5.141,5.138,5.1394,5.1439,5.2974,5.3767,5.3982,5.5506,5.6222,5.6299,5.6359,5.6386,5.6414,5.6523,5.6582,5.6595,5.6523,5.6495,5.651,5.651,5.6503,5.6503,5.6503,5.6503,5.6814,5.849,5.8996,5.9367,6.1101,6.1607,6.1607,6.1607,6.1607,6.1607,6.1607,6.1607,6.1607,6.1607,6.1607,6.1607,6.1607,6.1607,6.1607,6.1607,6.1607,6.1607,6.1607,6.1607,6.1607,6.1607,6.1607,6.1607,6.1607,6.1724,6.2172,6.303,6.3867,6.4705,6.5562,6.6303,6.6712,6.6712,6.6712,6.6712,6.6712,6.6712,6.677,6.6926,6.7647,6.8154,6.8485,6.9927,7.0667,4.4745,4.4919,4.5148,4.5319,4.5438,4.5547,4.5696,0.0,4.5925,0.0,0.0,0.0,0.0,0.0,0.0,0.0,0.0,0.0,0.0,0.0,0.0,0.0,0.0,0.0,0.0,0.0,0.0,0.0,0.0,0.0,5.122,5.1284,5.1342,5.1394,5.133,5.1349,5.1394,5.1391,5.14,5.14,5.1349,5.1343,5.1429,5.2357,5.3182,5.3943,5.4863,5.5658,5.6289,5.6319,5.6349,5.6414,5.6478,5.6548,5.6595,5.6523,5.6495,5.651,5.651,5.6503,5.6503,5.6503,5.6503,5.6814,5.849,5.8996,5.9367,6.1101,6.1607,6.1607,6.1607,6.1607,6.1607,6.1607,6.1607,6.1607,6.1607,6.1607,6.1607,6.1607,6.1607,6.1607,6.1607,6.1607,6.1607,6.1607,6.1607,6.1607,6.1607,6.1607,6.1607,6.1607,6.2289,6.3069,6.3867,6.4725,6.5601,6.6478,6.6634,6.6712,6.6712,6.6712,6.6712,6.6712,6.6712,6.7082,6.7842,6.7939,6.8777,7.0258,7.0492,7.0959,4.477,4.4943,4.5151,4.5361,4.5513,4.5651,4.5776,4.5887,4.5953,4.5997,0.0,0.0,0.0,0.0,0.0,0.0,0.0,0.0,0.0,0.0,0.0,0.0,0.0,0.0,0.0,0.0,0.0,0.0,0.0,5.1197,5.1197,5.123,5.1248,5.1292,5.13,5.133,5.1391,5.14,5.1394,5.1394,5.1335,5.1349,5.1411,5.1739,5.2594,5.3888,5.4723,5.5549,5.6302,5.6329,5.6368,5.6414,5.6511,5.6547,5.6534,5.6502,5.6507,5.6504,5.6496,5.6503,5.6503,5.6503,5.6503,5.6814,5.849,5.8996,5.9367,6.1101,6.1607,6.1607,6.1607,6.1607,6.1607,6.1607,6.1607,6.1607,6.1607,6.1607,6.1607,6.1607,6.1607,6.1607,6.1607,6.1607,6.1607,6.1607,6.1607,6.1607,6.1607,6.1607,6.1783,6.2289,6.2679,6.3419,6.4725,6.5173,6.5777,6.6634,6.6712,6.6712,6.6712,6.6712,6.6712,6.6712,6.718,6.7628,6.7998,6.8972,6.9849,7.0609,7.1057,7.1466,4.4789,4.4919,4.5061,4.5321,4.5475,4.5599,0.0,0.0,4.5941,0.0,0.0,0.0,0.0,0.0,0.0,0.0,0.0,0.0,0.0,0.0,0.0,0.0,0.0,0.0,0.0,0.0,0.0,0.0,0.0,5.1202,5.1202,5.1208,5.119,5.1211,5.1248,5.13,5.1362,5.1362,5.1388,5.1394,5.1349,5.1342,5.1362,5.1316,5.2091,5.3515,5.4392,5.5353,5.6309,5.6369,5.6414,5.643,5.6548,5.6566,5.6503,5.65,5.6501,5.6503,5.6508,5.6503,5.6503,5.6503,5.6503,5.6814,5.849,5.8996,5.9367,6.1101,6.1607,6.1607,6.1607,6.1607,6.1607,6.1607,6.1607,6.1607,6.1607,6.1607,6.1607,6.1607,6.1607,6.1607,6.1607,6.1607,6.1607,6.1607,6.1607,6.1607,6.1607,6.1783,6.2172,6.2835,6.3283,6.4043,6.529,6.5601,6.6011,6.6653,6.6712,6.6712,6.6712,6.6712,6.6809,6.7024,6.79,6.8329,6.8329,6.9868,7.0706,7.092,7.1524,7.1797,4.4685,4.4712,4.4789,4.5038,4.5148,4.5218,0.0,0.0,0.0,0.0,0.0,0.0,0.0,0.0,0.0,0.0,0.0,0.0,0.0,0.0,0.0,0.0,0.0,0.0,0.0,0.0,0.0,0.0,0.0,5.1202,5.1202,5.1202,5.1197,5.1211,5.1191,5.1239,5.13,5.13,5.1342,5.1394,5.1394,5.1356,5.13,5.13,5.1763,5.2611,5.3487,5.478,5.6308,5.6368,5.643,5.6504,5.6577,5.6566,5.6503,5.65,5.6501,5.6503,5.6508,5.6503,5.6503,5.6503,5.6503,5.6814,5.849,5.8996,5.9367,6.1101,6.1607,6.1607,6.1607,6.1607,6.1607,6.1607,6.1607,6.1607,6.1607,6.1607,6.1607,6.1607,6.1607,6.1607,6.1607,6.1607,6.1607,6.1607,6.1607,6.1607,6.1607,6.2328,6.2854,6.2893,6.4315,6.5309,6.5387,6.6166,6.6653,6.6712,6.6712,6.6712,6.6712,6.6712,6.7102,6.792,6.8797,6.9225,6.9225,7.0141,7.0979,7.1739,7.1778,7.1797,4.4659,4.4712,4.4745,4.4938,4.5087,4.5282,4.5509,4.5712,4.586,0.0,0.0,0.0,0.0,0.0,0.0,0.0,0.0,0.0,0.0,0.0,0.0,0.0,0.0,0.0,0.0,0.0,0.0,0.0,0.0,0.0,5.1202,5.1197,5.1189,5.1197,5.119,5.123,5.13,5.1342,5.1382,5.1394,5.1308,5.1284,5.13,5.1259,5.1696,5.2553,5.3429,5.446,5.5579,5.6154,5.643,5.6504,5.6577,5.6566,5.6503,5.65,5.6501,5.6503,5.6508,5.6503,5.6503,5.6503,5.6503,5.6814,5.849,5.8996,5.9367,6.1101,6.1607,6.1607,6.1607,6.1607,6.1607,6.1607,6.1607,6.1607,6.1607,6.1607,6.1607,6.1607,6.1607,6.1607,6.1607,6.1607,6.1607,6.1607,6.1607,6.1802,6.2367,6.2718,6.3302,6.4393,6.5036,6.564,6.6186,6.6517,6.6712,6.6712,6.6712,6.6712,6.6712,6.7238,6.7686,6.7998,6.9401,7.0122,7.0141,7.0959,7.1524,7.1797,7.1797,7.1797,4.4605,0.0,4.4659,4.4796,4.4972,4.5159,4.5436,0.0,4.5814,0.0,0.0,0.0,0.0,0.0,0.0,0.0,0.0,0.0,0.0,0.0,0.0,0.0,0.0,0.0,0.0,0.0,0.0,0.0,0.0,0.0,5.1183,5.1197,5.12,5.1219,5.122,5.1248,5.1336,5.1388,5.1394,5.1394,5.1316,5.1273,5.1276,5.1249,5.153,5.2133,5.3282,5.4295,5.5171,5.6063,5.6471,5.6542,5.6577,5.6566,5.6503,5.65,5.6501,5.6503,5.6508,5.6503,5.6503,5.6503,5.6503,5.6814,5.849,5.8996,5.9367,6.1101,6.1607,6.1607,6.1607,6.1607,6.1607,6.1607,6.1607,6.1607,6.1607,6.1607,6.1607,6.1607,6.1607,6.1607,6.1607,6.1607,6.1607,6.1607,6.1607,6.1919,6.2796,6.3146,6.3848,6.5251,6.566,6.6069,6.6653,6.6712,6.6712,6.6712,6.6712,6.6829,6.7121,6.7686,6.829,6.8855,7.0005,7.0726,7.0998,7.1544,7.1797,7.1797,7.1797,7.1797,0.0,0.0,0.0,0.0,4.4712,4.4852,4.5362,0.0,4.5591,0.0,0.0,0.0,0.0,0.0,0.0,0.0,0.0,0.0,0.0,0.0,0.0,0.0,0.0,0.0,0.0,0.0,0.0,0.0,0.0,5.027,5.1125,5.1183,5.1238,5.1292,5.1239,5.1281,5.139,5.1411,5.1394,5.1394,5.1401,5.133,5.1211,5.1276,5.1269,5.1299,5.3058,5.4276,5.5147,5.6101,5.6542,5.6606,5.6606,5.6566,5.6503,5.65,5.6501,5.6503,5.6488,5.6511,5.6503,5.6503,5.6503,5.6814,5.849,5.8996,5.9367,6.1101,6.1607,6.1607,6.1607,6.1607,6.1607,6.1607,6.1607,6.1607,6.1607,6.1607,6.1607,6.1607,6.1607,6.1607,6.1607,6.1607,6.1607,6.1607,6.1627,6.1958,6.2815,6.3634,6.4471,6.5348,6.6205,6.6712,6.6712,6.6712,6.6712,6.6712,6.6731,6.7121,6.7978,6.8056,6.8875,7.057,7.0609,7.1018,7.1797,7.1797,7.1797,7.1797,7.1797,7.1797,4.4515,0.0,0.0,0.0,0.0,0.0,4.5011,4.5142,4.5323,0.0,0.0,0.0,0.0,0.0,0.0,0.0,0.0,0.0,0.0,0.0,0.0,0.0,0.0,0.0,0.0,0.0,0.0,0.0,4.9182,4.9998,5.025,5.0853,5.1217,5.123,5.1248,5.13,5.133,5.1391,5.1406,5.1406,5.1391,5.1362,5.1265,5.1239,5.121,5.1299,5.3079,5.4,5.4348,5.5867,5.6542,5.6606,5.6606,5.6591,5.6563,5.6521,5.6502,5.6501,5.6503,5.6503,5.6503,5.6503,5.6503,5.6814,5.849,5.8996,5.9367,6.1101,6.1607,6.1607,6.1607,6.1607,6.1607,6.1607,6.1607,6.1607,6.1607,6.1607,6.1607,6.1607,6.1607,6.1607,6.1607,6.1607,6.1607,6.1607,6.2133,6.2835,6.3653,6.451,6.5368,6.6244,6.6556,6.6712,6.6712,6.6712,6.6712,6.6712,6.7296,6.7745,6.7998,6.9206,7.0102,7.0589,7.1174,7.1583,7.1797,7.1797,7.1797,7.1797,7.1797,7.1797,0.0,0.0,0.0,0.0,0.0,0.0,4.4915,4.5077,4.5304,0.0,0.0,0.0,0.0,0.0,0.0,0.0,0.0,0.0,0.0,0.0,0.0,0.0,0.0,0.0,0.0,0.0,0.0,4.7279,4.825,4.9124,4.9862,5.0736,5.1197,5.1239,5.1284,5.1308,5.1342,5.1377,5.141,5.1401,5.1396,5.1349,5.13,5.1256,5.122,5.1299,5.3117,5.39,5.4036,5.5802,5.6553,5.6606,5.6606,5.6606,5.6591,5.6517,5.6504,5.6493,5.6504,5.6498,5.6503,5.6503,5.6503,5.6814,5.849,5.8996,5.9367,6.1101,6.1607,6.1607,6.1607,6.1607,6.1607,6.1607,6.1607,6.1607,6.1607,6.1607,6.1607,6.1607,6.1607,6.1607,6.1607,6.1607,6.1607,6.1607,6.2348,6.3185,6.4004,6.4861,6.5738,6.6615,6.6712,6.6712,6.6712,6.6712,6.6712,6.6712,6.753,6.8154,6.8524,6.9868,7.0765,7.1096,7.1563,7.1797,7.1797,7.1797,7.1797,7.1797,7.1797,7.1797,0.0,0.0,0.0,0.0,0.0,0.0,4.4957,4.512,4.5323,4.5708,0.0,0.0,0.0,0.0,0.0,0.0,0.0,0.0,0.0,0.0,0.0,0.0,0.0,0.0,0.0,4.5997,4.6307,4.7114,4.727,4.8066,4.9804,5.0619,5.1131,5.1284,5.1292,5.1308,5.1382,5.1391,5.1396,5.1394,5.1396,5.1361,5.13,5.1292,5.1259,5.1299,5.3108,5.3892,5.4036,5.584,5.6582,5.6606,5.6606,5.6606,5.6591,5.6534,5.6504,5.6495,5.6508,5.6504,5.65,5.6511,5.6561,5.6931,5.8509,5.9074,5.9484,6.114,6.1607,6.1607,6.1607,6.1607,6.1607,6.1607,6.1607,6.1607,6.1607,6.1607,6.1607,6.1607,6.1607,6.1607,6.1607,6.1607,6.1627,6.1724,6.2484,6.3322,6.414,6.5017,6.5835,6.6615,6.6712,6.6712,6.6712,6.6712,6.6751,6.6848,6.7667,6.8543,6.9401,7.0258,7.1076,7.1797,7.1797,7.1797,7.1797,7.1797,7.1797,7.1797,7.1797,7.1797,0.0,0.0,0.0,0.0,0.0,0.0,4.4587,4.4621,4.4758,0.0,0.0,0.0,0.0,0.0,0.0,0.0,0.0,0.0,0.0,0.0,0.0,0.0,0.0,0.0,0.0,4.5997,4.6095,4.6309,4.697,4.8117,4.9815,5.0056,5.0476,5.1197,5.122,5.123,5.1239,5.1281,5.1356,5.1394,5.1356,5.1316,5.13,5.1239,5.121,5.1299,5.3068,5.3837,5.4036,5.5796,5.6548,5.6606,5.6606,5.6606,5.6606,5.6595,5.6551,5.6504,5.6495,5.6508,5.6511,5.65,5.6931,5.7652,5.8685,5.9484,6.0263,6.1315,6.1607,6.1607,6.1607,6.1607,6.1607,6.1607,6.1607,6.1607,6.1607,6.1607,6.1607,6.1607,6.1607,6.1607,6.1607,6.1607,6.1841,6.2542,6.3341,6.4179,6.5036,6.5913,6.6517,6.6673,6.6712,6.6712,6.6712,6.6712,6.7004,6.7706,6.8563,6.944,7.0316,7.1135,7.1641,7.1797,7.1797,7.1797,7.1797,7.1797,7.1797,7.1797,7.1797,7.1797,0.0,0.0,0.0,4.4487,0.0,0.0,0.0,4.4648,4.4758,4.4962,0.0,0.0,0.0,0.0,0.0,0.0,0.0,0.0,0.0,0.0,0.0,0.0,0.0,0.0,0.0,4.5997,4.6007,4.6056,4.6853,4.7718,4.8561,4.9435,5.0098,5.0547,5.0967,5.122,5.1248,5.1292,5.1328,5.1349,5.1328,5.1284,5.1248,5.122,5.12,5.1299,5.3038,5.3828,5.4036,5.5789,5.6511,5.6548,5.6582,5.6577,5.6548,5.6582,5.6566,5.6503,5.6504,5.649,5.6503,5.6498,5.7034,5.7866,5.8743,5.9912,6.1042,6.1471,6.1607,6.1607,6.1607,6.1607,6.1607,6.1607,6.1607,6.1607,6.1607,6.1607,6.1607,6.1607,6.1607,6.1607,6.1607,6.1607,6.1899,6.2776,6.3575,6.4413,6.529,6.6166,6.6712,6.6712,6.6712,6.6712,6.6712,6.7102,6.753,6.7978,6.9225,7.0141,7.057,7.1369,7.1797,7.1797,7.1797,7.1797,7.1797,7.1797,7.1797,7.1797,7.1797,7.1797,0.0,0.0,0.0,0.0,0.0,4.4542,0.0,0.0,0.0,4.4962,0.0,0.0,0.0,0.0,0.0,0.0,0.0,0.0,0.0,0.0,0.0,0.0,0.0,0.0,0.0,4.6007,4.6007,4.5997,4.6668,4.7134,4.7298,4.8794,4.9729,4.9897,5.0753,5.123,5.1276,5.1276,5.1276,5.1284,5.1276,5.1258,5.1211,5.1201,5.1208,5.1299,5.3027,5.3818,5.4036,5.5762,5.6471,5.6498,5.6572,5.6548,5.6504,5.6577,5.6563,5.6518,5.65,5.6499,5.6499,5.6489,5.7154,5.8139,5.9191,6.0477,6.1607,6.1607,6.1607,6.1607,6.1607,6.1607,6.1607,6.1607,6.1607,6.1607,6.1607,6.1607,6.1607,6.1607,6.1607,6.1607,6.1607,6.1744,6.2133,6.2991,6.3828,6.4666,6.5543,6.6264,6.6712,6.6712,6.6712,6.6712,6.6712,6.7511,6.8076,6.8251,6.9732,7.0667,7.0823,7.1446,7.1797,7.1797,7.1797,7.1797,7.1797,7.1797,7.1797,7.1797,7.1797,7.1797,0.0,0.0,0.0,0.0,4.4458,0.0,0.0,0.0,4.4551,4.4578,0.0,0.0,0.0,0.0,0.0,0.0,0.0,0.0,0.0,0.0,0.0,0.0,0.0,0.0,0.0,0.0,4.6047,4.6007,4.6144,4.6552,4.7259,4.8211,4.9085,4.9873,5.0748,5.1194,5.1206,5.1206,5.1208,5.122,5.1208,5.1208,5.1211,5.1197,5.1202,5.1299,5.2982,5.3788,5.4036,5.5712,5.6414,5.6422,5.6548,5.6548,5.6504,5.6577,5.6606,5.6575,5.6517,5.6503,5.6507,5.6499,5.7563,5.9152,6.0808,6.1432,6.1607,6.1607,6.1607,6.1607,6.1607,6.1607,6.1607,6.1607,6.1607,6.1607,6.1607,6.1607,6.1607,6.1607,6.1607,6.1607,6.1607,6.2231,6.303,6.3848,6.4705,6.5562,6.6439,6.6634,6.6712,6.6712,6.6712,6.6712,6.6712,6.7511,6.8329,6.9089,7.0063,7.092,7.1622,7.1739,7.1797,7.1797,7.1797,7.1797,7.1797,7.1797,7.1797,7.1797,7.1797,7.1797,0.0,0.0,0.0,0.0,0.0,0.0,0.0,0.0,4.4515,0.0,0.0,0.0,0.0,0.0,0.0,0.0,0.0,0.0,0.0,0.0,0.0,0.0,0.0,0.0,0.0,0.0,0.0,0.0,0.0,4.6202,4.6521,4.7376,4.825,4.9124,4.9978,5.0701,5.1189,5.0701,5.0712,5.1191,5.0692,5.0709,5.1197,5.1194,5.1202,5.1299,5.297,5.3747,5.3974,5.5695,5.6368,5.6359,5.6498,5.6504,5.6457,5.6511,5.6572,5.6606,5.6563,5.6538,5.6659,5.7621,5.8421,5.9328,6.1062,6.1607,6.1607,6.1607,6.1607,6.1607,6.1607,6.1607,6.1607,6.1607,6.1607,6.1607,6.1607,6.1607,6.1607,6.1607,6.1607,6.1763,6.227,6.2659,6.3166,6.3984,6.4842,6.5718,6.6595,6.6712,6.6712,6.6712,6.6712,6.6907,6.7413,6.8251,6.9128,7.0005,7.0842,7.1446,7.1797,7.1797,7.1797,7.1797,7.1797,7.1797,7.1797,7.1797,7.1797,7.1797,7.1797,7.1797,4.4153,0.0,0.0,0.0,0.0,0.0,0.0,0.0,0.0,0.0,0.0,0.0,0.0,0.0,0.0,0.0,0.0,0.0,0.0,0.0,0.0,0.0,0.0,0.0,0.0,0.0,0.0,0.0,0.0,0.0,4.5997,4.6832,4.7706,4.8561,4.9454,5.0195,5.084,5.0215,5.0215,5.084,5.0195,5.0367,5.1202,5.1202,5.1202,5.1299,5.297,5.3744,5.3934,5.5658,5.6349,5.6319,5.6414,5.6422,5.6414,5.6471,5.6542,5.6606,5.6577,5.668,5.707,5.8523,5.917,5.9639,6.114,6.1607,6.1607,6.1607,6.1607,6.1607,6.1607,6.1607,6.1607,6.1607,6.1607,6.1607,6.1607,6.1607,6.1607,6.1607,6.1607,6.188,6.2757,6.3088,6.3517,6.4335,6.5192,6.5991,6.6615,6.6712,6.6712,6.6712,6.6712,6.7043,6.7939,6.8797,6.9771,7.0862,7.1485,7.1797,7.1797,7.1797,7.1797,7.1797,7.1797,7.1797,7.1797,7.1797,7.1797,7.1797,7.1797,7.1797,0.0,0.0,0.0,4.4214,0.0,0.0,0.0,0.0,4.4411,0.0,0.0,0.0,0.0,0.0,0.0,0.0,0.0,0.0,0.0,0.0,0.0,0.0,0.0,0.0,0.0,0.0,0.0,0.0,0.0,0.0,4.5997,4.6832,4.7706,4.8561,4.9454,4.9901,4.9951,4.9901,4.9901,4.9951,4.9901,5.0367,5.1202,5.1202,5.1202,5.1299,5.297,5.3744,5.3934,5.5608,5.6289,5.6289,5.6299,5.6349,5.6414,5.6471,5.6542,5.6582,5.6536,5.7008,5.7811,5.8714,5.9572,6.0438,6.1334,6.1607,6.1607,6.1607,6.1607,6.1607,6.1607,6.1607,6.1607,6.1607,6.1607,6.1607,6.1607,6.1607,6.1607,6.1607,6.1607,6.188,6.2757,6.3556,6.4354,6.5231,6.6108,6.6673,6.6712,6.6712,6.6712,6.6712,6.6712,6.7043,6.7939,6.8797,7.0005,7.1661,7.1797,7.1797,7.1797,7.1797,7.1797,7.1797,7.1797,7.1797,7.1797,7.1797,7.1797,7.1797,7.1797,7.1797,0.0,0.0,4.4184,4.4184,0.0,0.0,0.0,0.0,0.0,0.0,0.0,0.0,0.0,0.0,0.0,0.0,0.0,0.0,0.0,0.0,0.0,0.0,0.0,0.0,0.0,0.0,0.0,0.0,0.0,0.0,0.0,4.6268,4.6832,4.7706,4.8036,4.8463,4.9027,4.8463,4.8755,4.9881,4.9318,4.9804,5.1202,5.1202,5.1202,5.1299,5.297,5.3701,5.386,5.5597,5.6306,5.629,5.6297,5.6299,5.6349,5.6414,5.6504,5.6606,5.6577,5.7063,5.7848,5.8778,5.9622,6.0457,6.1333,6.1607,6.1607,6.1607,6.1607,6.1607,6.1607,6.1607,6.1607,6.1607,6.1607,6.1607,6.1607,6.1607,6.1607,6.1607,6.2075,6.2718,6.3556,6.4393,6.5056,6.5368,6.6147,6.6712,6.6712,6.6712,6.6712,6.6712,6.7219,6.792,6.8797,7.0141,7.1193,7.1758,7.1797,7.1797,7.1797,7.1797,7.1797,7.1797,7.1797,7.1797,7.1797,7.1797,7.1797,7.1797,7.1797,7.1797,4.4005,4.4055,0.0,4.4135,4.4165,0.0,4.4255,0.0,0.0,0.0,0.0,0.0,0.0,0.0,0.0,0.0,0.0,0.0,0.0,4.5975,0.0,0.0,0.0,0.0,0.0,0.0,0.0,0.0,0.0,0.0,0.0,0.0,4.6404,4.7279,4.7298,4.757,4.8133,4.79,4.8327,4.9435,4.9182,4.9804,5.1202,5.1202,5.1202,5.1299,5.297,5.3689,5.3837,5.5583,5.629,5.6291,5.6302,5.6297,5.6319,5.6368,5.6445,5.6542,5.6582,5.7293,5.8261,5.8904,5.9855,6.0873,6.1431,6.1607,6.1607,6.1607,6.1607,6.1607,6.1607,6.1607,6.1607,6.1607,6.1607,6.1607,6.1607,6.1607,6.1607,6.1607,6.2309,6.3166,6.3965,6.4822,6.5504,6.5816,6.6342,6.6712,6.6712,6.6712,6.6712,6.6712,6.7491,6.8485,6.9654,7.0998,7.1797,7.1797,7.1797,7.1797,7.1797,7.1797,7.1797,7.1797,7.1797,7.1797,7.1797,7.1797,7.1797,7.1797,7.1797,7.1797]},{"header":{"parameterUnit":"m.s-1","parameterCategory":1,"la1":30.6,"la2":29.2853,"lo1":-89.7004,"lo2":-87.6739,"dy":0.0162,"dx":0.0183,"nx":112,"ny":82,"refTime":"2024-03-23T06:00:00:Z","depth":0,"parameterNumber":3,"parameterNumberName":"V-component_of_WINDS"},"data":[0.0,0.0,0.0,0.0,0.0,0.0,0.0,0.0,0.0,0.0,0.0,0.0,0.0,0.0,0.0,0.0,0.0,0.0,0.0,0.0,0.0,0.0,0.0,0.0,0.0,0.0,0.0,0.0,0.0,0.0,0.0,0.0,0.0,0.0,0.0,0.0,0.0,0.0,0.0,0.0,0.0,0.0,0.0,0.0,0.0,0.0,0.0,0.0,0.0,0.0,0.0,0.0,0.0,0.0,0.0,0.0,0.0,0.0,0.0,0.0,0.0,0.0,0.0,0.0,0.0,0.0,0.0,0.0,0.0,0.0,0.0,0.0,0.0,0.0,0.0,0.0,0.0,0.0,0.0,0.0,0.0,0.0,0.0,0.0,0.0,0.0,0.0,0.0,0.0,0.0,0.0,-0.3217,-0.323,-0.323,-0.323,-0.323,-0.323,-0.323,0.0,0.0,0.0,0.0,0.0,0.0,0.0,0.0,0.0,0.0,0.0,0.0,0.0,0.0,0.0,0.0,0.0,0.0,0.0,0.0,0.0,0.0,0.0,0.0,0.0,0.0,0.0,0.0,0.0,0.0,0.0,0.0,0.0,0.0,0.0,0.0,0.0,0.0,0.0,0.0,0.0,0.0,0.0,0.0,0.0,0.0,0.0,0.0,0.0,0.0,0.0,0.0,0.0,0.0,0.0,0.0,0.0,0.0,0.0,0.0,0.0,0.0,0.0,0.0,0.0,0.0,0.0,0.0,0.0,0.0,0.0,0.0,0.0,0.0,0.0,0.0,0.0,0.0,0.0,0.0,0.0,0.0,0.0,0.0,0.0,0.0,0.0,0.0,0.0,0.0,0.0,0.0,0.0,0.0,0.0,0.0,0.0,0.0,0.0,0.0,0.0,0.0,0.0,0.0,-0.3095,-0.3217,-0.323,-0.323,-0.323,-0.323,-0.323,-0.323,0.0,0.0,0.0,0.0,0.0,0.0,0.0,0.0,0.0,0.0,0.0,0.0,0.0,0.0,0.0,0.0,0.0,0.0,0.0,0.0,0.0,0.0,0.0,0.0,0.0,0.0,0.0,0.0,0.0,0.0,0.0,0.0,0.0,0.0,0.0,0.0,0.0,0.0,0.0,0.0,0.0,0.0,0.0,0.0,0.0,0.0,0.0,0.0,0.0,0.0,0.0,0.0,0.0,0.0,0.0,0.0,0.0,0.0,0.0,0.0,0.0,0.0,0.0,0.0,0.0,0.0,0.0,0.0,0.0,0.0,0.0,0.0,0.0,0.0,0.0,0.0,0.0,0.0,0.0,0.0,0.0,0.0,0.0,0.0,0.0,0.0,0.0,0.0,0.0,0.0,0.0,0.0,0.0,0.0,0.0,0.0,0.0,0.0,0.0,0.0,0.0,0.0,0.0,-0.3127,-0.3169,-0.3224,-0.323,-0.323,-0.323,-0.323,-0.323,-0.323,-0.323,0.0,0.0,0.0,0.0,0.0,0.0,0.0,0.0,0.0,0.0,0.0,0.0,0.0,0.0,0.0,0.0,0.0,0.0,0.0,0.0,0.0,0.0,0.0,0.0,0.0,0.0,0.0,0.0,0.0,0.0,0.0,0.0,0.0,0.0,0.0,0.0,0.0,0.0,0.0,0.0,0.0,0.0,0.0,0.0,0.0,0.0,0.0,0.0,0.0,0.0,0.0,0.0,0.0,0.0,0.0,0.0,0.0,0.0,0.0,0.0,0.0,0.0,0.0,0.0,0.0,0.0,0.0,0.0,0.0,0.0,0.0,0.0,0.0,0.0,0.0,0.0,0.0,0.0,0.0,0.0,0.0,0.0,0.0,0.0,0.0,0.0,0.0,0.0,0.0,0.0,0.0,0.0,0.0,0.0,0.0,0.0,0.0,0.0,0.0,0.0,0.0,0.0,-0.3192,-0.323,-0.323,-0.323,-0.323,-0.323,-0.323,-0.323,-0.323,-0.323,0.0,0.0,0.0,0.0,0.0,0.0,0.0,0.0,0.0,0.0,0.0,0.0,0.0,0.0,0.0,0.0,0.0,0.0,0.0,0.0,0.0,0.0,0.0,0.0,0.0,0.0,0.0,0.0,0.0,0.0,0.0,0.0,0.0,0.0,0.0,0.0,0.0,0.0,0.0,0.0,0.0,0.0,0.0,0.0,0.0,0.0,0.0,0.0,0.0,0.0,0.0,0.0,0.0,0.0,0.0,0.0,0.0,0.0,0.0,0.0,0.0,0.0,0.0,0.0,0.0,0.0,0.0,0.0,0.0,0.0,0.0,0.0,0.0,0.0,0.0,0.0,0.0,0.0,0.0,0.0,0.0,0.0,0.0,0.0,0.0,0.0,0.0,0.0,0.0,0.0,0.0,0.0,0.0,0.0,0.0,0.0,0.0,0.0,0.0,0.0,0.0,0.0,-0.3192,-0.323,-0.323,-0.323,-0.323,-0.323,-0.323,-0.323,-0.323,-0.323,0.0,0.0,0.0,0.0,0.0,0.0,0.0,0.0,0.0,0.0,0.0,0.0,0.0,0.0,0.0,0.0,0.0,0.0,0.0,0.0,0.0,0.0,0.0,0.0,0.0,0.0,0.0,0.0,0.0,0.0,0.0,0.0,0.0,0.0,0.0,0.0,0.0,0.0,0.0,0.0,0.0,0.0,0.0,0.0,0.0,0.0,0.0,0.0,0.0,0.0,0.0,0.0,0.0,0.0,0.0,0.0,0.0,0.0,0.0,0.0,0.0,0.0,0.0,0.0,0.0,0.0,0.0,0.0,0.0,0.0,0.0,0.0,0.0,0.0,0.0,0.0,0.0,0.0,0.0,0.0,0.0,0.0,0.0,0.0,0.0,0.0,0.0,0.0,0.0,0.0,0.0,0.0,0.0,0.0,0.0,0.0,0.0,0.0,0.0,0.0,0.0,0.0,-0.3217,-0.323,0.0,-0.323,-0.323,-0.323,-0.323,-0.323,-0.323,0.0,0.0,0.0,0.0,0.0,0.0,0.0,0.0,0.0,0.0,0.0,0.0,0.0,0.0,0.0,0.0,0.0,0.0,0.0,0.0,0.0,0.0,0.0,0.0,0.0,0.0,0.0,0.0,0.0,0.0,0.0,0.0,0.0,0.0,0.0,0.0,0.0,0.0,0.0,0.0,0.0,0.0,0.0,0.0,0.0,0.0,0.0,0.0,0.0,0.0,0.0,0.0,0.0,0.0,0.0,0.0,0.0,0.0,0.0,0.0,0.0,0.0,0.0,0.0,0.0,0.0,0.0,0.0,0.0,0.0,0.0,0.0,0.0,0.0,0.0,0.0,0.0,0.0,0.0,0.0,0.0,0.0,0.0,0.0,0.0,0.0,0.0,0.0,0.0,0.0,0.0,0.0,0.0,0.0,0.0,0.0,0.0,0.0,0.0,0.0,0.0,0.0,-0.3717,-0.343,-0.323,0.0,-0.323,-0.323,-0.323,-0.323,-0.323,-0.323,0.0,0.0,0.0,0.0,0.0,0.0,0.0,0.0,0.0,0.0,0.0,0.0,0.0,0.0,0.0,0.0,0.0,0.0,0.0,0.0,0.0,0.0,0.0,0.0,0.0,0.0,0.0,0.0,0.0,0.0,0.0,0.0,0.0,0.0,0.0,0.0,0.0,0.0,0.0,0.0,0.0,0.0,0.0,0.0,0.0,0.0,0.0,0.0,0.0,0.0,0.0,0.0,0.0,0.0,0.0,0.0,0.0,0.0,0.0,0.0,0.0,0.0,0.0,0.0,0.0,0.0,0.0,0.0,0.0,0.0,0.0,0.0,0.0,0.0,0.0,0.0,0.0,0.0,0.0,0.0,0.0,0.0,0.0,0.0,0.0,0.0,0.0,0.0,0.0,0.0,0.0,0.0,0.0,0.0,0.0,0.0,0.0,0.0,0.0,0.0,0.0,0.0,-0.4822,-0.3833,-0.323,-0.323,-0.323,-0.323,-0.323,-0.323,-0.323,0.0,0.0,0.0,0.0,0.0,0.0,0.0,0.0,0.0,0.0,0.0,0.0,0.0,0.0,0.0,0.0,0.0,0.0,0.0,0.0,0.0,0.0,0.0,0.0,0.0,0.0,0.0,0.0,0.0,0.0,0.0,0.0,0.0,0.0,0.0,0.0,0.0,0.0,0.0,0.0,0.0,0.0,0.0,0.0,0.0,0.0,0.0,0.0,0.0,0.0,0.0,0.0,0.0,0.0,0.0,0.0,0.0,0.0,0.0,0.0,0.0,0.0,0.0,0.0,0.0,0.0,0.0,0.0,0.0,0.0,0.0,0.0,0.0,0.0,0.0,0.0,0.0,0.0,0.0,0.0,0.0,0.0,0.0,0.0,0.0,0.0,0.0,0.0,0.0,0.0,0.0,0.0,0.0,0.0,0.0,0.0,0.0,0.0,0.0,0.0,0.0,0.0,0.0,-0.4822,-0.3833,-0.323,-0.323,-0.323,-0.323,-0.323,-0.323,-0.323,-0.323,0.0,0.0,0.0,0.0,0.0,0.0,0.0,0.0,0.0,0.0,0.0,0.0,0.0,0.0,0.0,0.0,0.0,0.0,0.0,0.0,0.0,0.0,0.0,0.0,0.0,0.0,0.0,0.0,0.0,0.0,0.0,0.0,0.0,0.0,0.0,0.0,0.0,0.0,0.0,0.0,0.0,0.0,0.0,0.0,0.0,0.0,0.0,0.0,0.0,0.0,0.0,0.0,0.0,0.0,0.0,0.0,0.0,0.0,0.0,0.0,0.0,0.0,0.0,0.0,0.0,0.0,0.0,0.0,0.0,0.0,0.0,0.0,0.0,0.0,0.0,0.0,0.0,0.0,0.0,0.0,0.0,0.0,0.0,0.0,0.0,0.0,0.0,0.0,0.0,0.0,0.0,0.0,0.0,0.0,0.0,0.0,0.0,0.0,0.0,0.0,0.0,0.0,-0.5422,-0.4131,-0.323,-0.323,-0.323,-0.323,-0.323,-0.323,-0.323,-0.323,0.0,0.0,0.0,0.0,0.0,0.0,0.0,0.0,0.0,0.0,0.0,0.0,0.0,0.0,0.0,0.0,0.0,0.0,0.0,0.0,0.0,0.0,0.0,0.0,0.0,0.0,0.0,0.0,0.0,0.0,0.0,0.0,0.0,0.0,0.0,0.0,0.0,0.0,0.0,0.0,0.0,0.0,0.0,0.0,0.0,0.0,0.0,0.0,0.0,0.0,0.0,0.0,0.0,0.0,0.0,0.0,0.0,0.0,0.0,0.0,0.0,0.0,0.0,0.0,0.0,0.0,0.0,0.0,0.0,0.0,0.0,0.0,0.0,0.0,0.0,0.0,0.0,0.0,0.0,0.0,0.0,0.0,0.0,0.0,0.0,0.0,0.0,0.0,0.0,0.0,0.0,0.0,0.0,0.0,0.0,0.0,0.0,0.0,0.0,0.0,0.0,0.0,-0.6224,-0.4429,-0.323,-0.323,-0.323,-0.323,-0.323,-0.323,-0.323,-0.323,0.0,0.0,0.0,0.0,0.0,0.0,0.0,0.0,0.0,0.0,0.0,0.0,0.0,0.0,0.0,0.0,0.0,0.0,0.0,0.0,0.0,0.0,0.0,0.0,0.0,0.0,0.0,0.0,0.0,0.0,0.0,0.0,0.0,0.0,0.0,0.0,0.0,0.0,0.0,0.0,0.0,0.0,0.0,0.0,0.0,0.0,0.0,0.0,0.0,0.0,0.0,0.0,0.0,0.0,0.0,0.0,0.0,0.0,0.0,0.0,-0.2154,0.0,0.0,0.0,0.0,0.0,0.0,0.0,0.0,0.0,0.0,0.0,0.0,0.0,0.0,0.0,0.0,0.0,0.0,0.0,0.0,0.0,0.0,0.0,0.0,0.0,0.0,0.0,0.0,0.0,0.0,0.0,0.0,0.0,0.0,0.0,0.0,0.0,0.0,0.0,0.0,0.0,-0.5231,-0.4033,-0.323,-0.323,-0.323,-0.323,-0.323,-0.323,-0.323,-0.323,0.0,0.0,0.0,0.0,0.0,0.0,0.0,0.0,0.0,0.0,0.0,0.0,0.0,0.0,0.0,0.0,0.0,0.0,0.0,0.0,0.0,0.0,0.0,0.0,0.0,0.0,0.0,0.0,0.0,0.0,0.0,0.0,0.0,0.0,0.0,0.0,0.0,0.0,0.0,0.0,0.0,0.0,0.0,0.0,0.0,0.0,0.0,0.0,0.0,0.0,0.0,0.0,0.0,0.0,0.0,0.0,0.0,0.0,0.0,0.0,0.0,-0.2424,0.0,0.0,0.0,0.0,0.0,0.0,0.0,0.0,0.0,0.0,0.0,0.0,0.0,0.0,0.0,0.0,0.0,0.0,0.0,0.0,0.0,0.0,0.0,0.0,0.0,0.0,0.0,0.0,0.0,0.0,0.0,0.0,0.0,0.0,0.0,0.0,0.0,0.0,0.0,0.0,-0.5629,-0.4232,-0.323,-0.323,-0.323,-0.323,-0.323,-0.323,-0.323,-0.323,-0.323,0.0,0.0,0.0,0.0,0.0,0.0,0.0,0.0,0.0,0.0,0.0,0.0,0.0,0.0,0.0,0.0,0.0,0.0,0.0,0.0,0.0,0.0,0.0,0.0,0.0,0.0,0.0,0.0,0.0,0.0,0.0,0.0,0.0,0.0,0.0,0.0,0.0,0.0,0.0,0.0,0.0,0.0,0.0,0.0,0.0,0.0,0.0,0.0,0.0,0.0,0.0,0.0,0.0,0.0,-0.2784,-0.2784,-0.2513,-0.2603,-0.2873,-0.2873,-0.2873,-0.2873,0.0,0.0,0.0,0.0,0.0,0.0,0.0,0.0,0.0,0.0,0.0,0.0,0.0,0.0,0.0,0.0,0.0,0.0,0.0,0.0,0.0,0.0,0.0,0.0,0.0,-0.7763,-0.8508,0.0,0.0,0.0,0.0,0.0,0.0,0.0,0.0,0.0,0.0,0.0,0.0,-0.5924,-0.4331,-0.323,-0.323,-0.323,-0.323,-0.323,-0.323,-0.323,-0.323,-0.323,-0.323,0.0,0.0,0.0,0.0,0.0,0.0,0.0,0.0,0.0,0.0,0.0,0.0,0.0,0.0,0.0,0.0,0.0,0.0,0.0,0.0,0.0,0.0,0.0,0.0,0.0,0.0,0.0,0.0,0.0,0.0,0.0,0.0,-0.2511,-0.2511,0.0,0.0,0.0,0.0,0.0,0.0,0.0,0.0,0.0,0.0,0.0,0.0,0.0,0.0,-0.2513,-0.2784,-0.2694,-0.2334,-0.2513,-0.2424,-0.2334,-0.2243,-0.2334,-0.2513,-0.2513,0.0,-0.2513,-0.2513,0.0,0.0,0.0,0.0,0.0,0.0,0.0,0.0,0.0,0.0,0.0,0.0,0.0,0.0,0.0,0.0,0.0,0.0,0.0,0.0,0.0,0.0,-0.6082,-0.5083,-0.6327,-0.7493,0.0,-0.7168,-0.75,-0.6687,0.0,0.0,0.0,0.0,0.0,0.0,0.0,0.0,-0.3831,-0.333,-0.323,-0.323,-0.323,-0.323,-0.323,-0.323,-0.323,-0.323,-0.323,-0.323,-0.323,-0.323,0.0,0.0,0.0,0.0,0.0,0.0,0.0,0.0,0.0,0.0,0.0,0.0,0.0,0.0,0.0,0.0,0.0,0.0,0.0,0.0,0.0,0.0,0.0,0.0,0.0,0.0,0.0,0.0,0.0,-0.2511,-0.2511,-0.2511,-0.2511,-0.2534,0.0,0.0,0.0,0.0,0.0,0.0,0.0,0.0,0.0,-0.2875,-0.2875,-0.2784,-0.2513,-0.2604,-0.2513,-0.2243,-0.2334,-0.2334,-0.2334,-0.2243,-0.2424,-0.2694,-0.2603,-0.2603,-0.2694,-0.2694,-0.2694,-0.2604,0.0,0.0,0.0,0.0,0.0,-0.2875,-0.2875,0.0,0.0,0.0,0.0,0.0,0.0,0.0,0.0,0.0,0.0,0.0,0.0,0.0,0.0,-0.4808,-0.5694,-0.6495,-0.564,-0.5723,-0.6095,0.0,-0.6842,-0.7356,-0.7912,0.0,0.0,0.0,0.0,0.0,-0.4234,-0.3531,-0.323,-0.323,-0.323,-0.323,-0.323,-0.323,-0.323,-0.323,-0.3263,-0.3282,-0.3282,-0.3315,-0.3332,0.0,0.0,0.0,0.0,0.0,0.0,0.0,0.0,0.0,0.0,0.0,0.0,0.0,0.0,0.0,0.0,0.0,0.0,0.0,0.0,0.0,0.0,0.0,0.0,0.0,0.0,0.0,0.0,-0.2546,-0.2557,-0.2557,-0.2557,-0.258,0.0,0.0,0.0,0.0,0.0,0.0,-0.2875,-0.2875,-0.2875,-0.2875,-0.2875,-0.2784,-0.2604,-0.2604,-0.2424,-0.2243,-0.2243,-0.2243,-0.2243,-0.2064,-0.2244,-0.2694,-0.2513,-0.2612,-0.2894,-0.288,-0.2875,-0.2875,-0.2875,-0.2875,0.0,-0.2875,-0.2875,-0.2875,-0.2875,-0.2883,-0.2895,-0.2895,0.0,-0.2918,-0.2918,0.0,0.0,0.0,0.0,-0.4472,-0.421,0.0,-0.5382,-0.4514,-0.5125,-0.5539,-0.462,-0.4634,-0.4933,0.0,-0.6226,-0.6828,-0.7126,0.0,0.0,0.0,0.0,-0.4734,-0.4435,-0.3732,-0.323,-0.323,-0.323,-0.323,-0.323,-0.3244,-0.3253,-0.3253,-0.3311,-0.3345,-0.3345,-0.3388,-0.3413,-0.3413,0.0,0.0,0.0,0.0,0.0,0.0,0.0,0.0,0.0,0.0,0.0,0.0,0.0,0.0,0.0,0.0,0.0,0.0,0.0,0.0,0.0,0.0,0.0,0.0,0.0,0.0,0.0,0.0,0.0,-0.2683,-0.2683,0.0,0.0,0.0,0.0,-0.2865,-0.2873,-0.2875,-0.2875,-0.2875,-0.2875,-0.2875,-0.2875,-0.2875,-0.2873,-0.2873,-0.2694,-0.2243,-0.2243,-0.1974,-0.1436,-0.1436,-0.1705,-0.2243,-0.2243,-0.254,-0.295,-0.2897,-0.2875,-0.2875,-0.2875,-0.2875,-0.2875,-0.2875,-0.2875,-0.2875,-0.2875,-0.2909,-0.2954,-0.2954,-0.2993,-0.3134,-0.3134,-0.3703,0.0,0.0,-0.3803,-0.4296,-0.341,-0.3913,-0.4518,-0.351,-0.4128,-0.4528,-0.3531,-0.4033,-0.4533,0.0,-0.343,-0.3731,-0.4834,0.0,-0.4935,-0.4935,-0.4834,-0.4435,-0.343,-0.323,-0.323,-0.323,-0.323,-0.323,-0.323,-0.3283,-0.3316,-0.3316,-0.3373,-0.3407,-0.3407,-0.3412,-0.3413,-0.3413,-0.3413,0.0,0.0,0.0,0.0,0.0,0.0,0.0,0.0,0.0,0.0,0.0,0.0,0.0,0.0,0.0,0.0,0.0,0.0,0.0,0.0,0.0,0.0,0.0,0.0,0.0,0.0,0.0,0.0,-0.2692,-0.2692,0.0,-0.2778,-0.2783,-0.2808,-0.2869,-0.2875,-0.2875,-0.2875,-0.2875,-0.2875,-0.2875,-0.2875,-0.2784,-0.2424,-0.2424,-0.2154,-0.1705,-0.1705,-0.1705,-0.1616,-0.1546,-0.1739,-0.22,-0.2043,-0.2249,-0.2732,-0.2713,-0.28,-0.2986,-0.2986,-0.2986,-0.2986,-0.2986,-0.2986,-0.2986,-0.2986,-0.3,-0.3111,-0.3111,-0.3126,-0.3144,-0.3144,-0.3363,-0.3492,-0.3203,-0.3331,-0.3564,-0.3292,-0.3495,-0.3601,-0.3325,-0.3531,-0.3632,-0.3331,-0.3531,-0.3632,-0.323,-0.3732,-0.4334,-0.4734,-0.4234,-0.4033,-0.4734,-0.4234,-0.3632,-0.323,-0.323,-0.323,-0.323,-0.3266,-0.3289,-0.3289,-0.3345,-0.338,-0.338,-0.3435,-0.3466,-0.3466,-0.3504,-0.3525,-0.3525,-0.3525,-0.3964,0.0,0.0,0.0,0.0,0.0,0.0,0.0,0.0,0.0,0.0,0.0,0.0,0.0,0.0,0.0,0.0,0.0,0.0,0.0,0.0,0.0,0.0,0.0,0.0,0.0,0.0,-0.2753,-0.2753,-0.2753,-0.277,-0.2809,-0.2813,-0.2831,-0.2871,-0.2875,-0.2875,-0.2875,-0.2875,-0.2873,-0.2784,-0.2804,-0.2632,-0.2177,-0.2193,-0.2017,-0.1558,-0.1558,-0.1649,-0.165,-0.158,-0.1683,-0.206,-0.1992,-0.2106,-0.25,-0.2597,-0.2801,-0.3009,-0.3065,-0.3144,-0.3144,-0.3144,-0.3144,-0.3147,-0.3072,-0.3079,-0.3083,-0.3104,-0.311,-0.311,-0.311,-0.3138,-0.317,-0.317,-0.3199,-0.323,-0.323,-0.323,-0.323,-0.323,-0.323,-0.323,-0.323,-0.323,-0.323,-0.323,-0.3732,-0.4234,-0.4234,-0.3632,-0.3531,-0.4634,-0.3932,-0.3331,-0.3732,-0.343,-0.3238,-0.3259,-0.3297,-0.333,-0.335,-0.3407,-0.344,-0.344,-0.3495,-0.3527,-0.3527,-0.3565,-0.3799,-0.4109,-0.4109,-0.4564,-0.5371,0.0,0.0,0.0,0.0,0.0,0.0,0.0,0.0,0.0,0.0,0.0,0.0,0.0,0.0,0.0,0.0,0.0,0.0,0.0,0.0,0.0,0.0,0.0,-0.2794,-0.2837,-0.2875,-0.2875,-0.2875,-0.2875,-0.2875,-0.2875,-0.2875,-0.2875,-0.2875,-0.2875,-0.2877,-0.2877,-0.2788,-0.2518,-0.2568,-0.2503,-0.2224,-0.2174,-0.2099,-0.1908,-0.1908,-0.1717,-0.1526,-0.1527,-0.1623,-0.191,-0.1911,-0.2027,-0.2355,-0.2552,-0.2779,-0.2815,-0.3003,-0.315,-0.315,-0.315,-0.315,-0.3063,-0.3123,-0.3142,-0.3153,-0.3211,-0.323,-0.323,-0.323,-0.323,-0.323,-0.323,-0.323,-0.323,-0.323,-0.323,-0.323,-0.323,-0.323,-0.323,-0.323,-0.323,-0.323,-0.323,-0.323,-0.323,-0.323,-0.323,-0.3632,-0.4634,-0.3932,0.0,-0.4634,-0.3835,-0.3256,-0.3315,-0.3324,-0.335,-0.341,-0.3467,-0.3499,-0.3499,-0.3555,-0.3587,-0.3587,-0.3587,-0.4112,-0.5021,-0.5128,-0.5282,-0.5483,0.0,0.0,0.0,0.0,0.0,0.0,0.0,0.0,0.0,0.0,0.0,0.0,0.0,0.0,0.0,0.0,0.0,0.0,0.0,0.0,0.0,0.0,-0.2239,-0.2763,-0.2864,-0.2875,-0.2875,-0.2875,-0.2875,-0.2875,-0.2875,-0.2875,-0.2875,-0.2875,-0.2891,-0.2933,-0.2935,-0.2863,-0.2623,-0.2545,-0.2364,-0.1987,-0.1998,-0.1812,-0.1622,-0.1622,-0.1526,-0.1527,-0.1549,-0.1656,-0.1658,-0.1681,-0.1994,-0.2402,-0.2402,-0.2711,-0.3126,-0.3194,-0.3181,-0.3181,-0.3181,-0.3181,-0.3183,-0.32,-0.3206,-0.3209,-0.3225,-0.323,-0.323,-0.323,-0.323,-0.323,-0.323,-0.323,-0.323,-0.323,-0.323,-0.323,-0.323,-0.323,-0.323,-0.323,-0.323,-0.323,-0.323,-0.323,-0.323,-0.323,-0.3833,-0.4433,-0.4734,0.0,0.0,-0.4734,-0.3878,-0.3303,-0.3319,-0.3398,-0.3455,-0.3471,-0.3527,-0.3563,-0.3563,-0.3578,-0.3587,-0.3587,-0.3587,-0.3691,-0.4006,-0.566,-0.6556,0.0,0.0,0.0,0.0,0.0,0.0,0.0,0.0,0.0,0.0,0.0,0.0,0.0,0.0,0.0,0.0,0.0,0.0,0.0,0.0,0.0,0.0,-0.1615,-0.2424,-0.2873,-0.2875,-0.2875,-0.2875,-0.2875,-0.2875,-0.2875,-0.2875,-0.2884,-0.2907,-0.2909,-0.2935,-0.2993,-0.2996,-0.2918,-0.2665,-0.2496,-0.2315,-0.1931,-0.185,-0.1662,-0.1564,-0.1564,-0.1564,-0.1565,-0.1582,-0.159,0.0,-0.1609,-0.1818,-0.212,-0.2321,-0.2623,0.0,0.0,0.0,0.0,0.0,-0.323,-0.323,-0.323,-0.323,-0.323,-0.323,-0.323,-0.323,-0.323,-0.323,-0.323,-0.323,-0.323,-0.323,-0.323,-0.323,-0.323,-0.323,-0.323,-0.323,-0.323,-0.323,-0.3238,-0.3263,0.0,0.0,-0.3404,-0.4177,-0.4834,-0.4834,-0.4834,-0.4847,0.0,-0.3912,-0.3341,-0.339,-0.3455,-0.3507,-0.3531,-0.3567,0.0,0.0,0.0,-0.3587,-0.3587,-0.4006,0.0,0.0,0.0,-0.632,0.0,0.0,0.0,0.0,-1.1394,-1.2163,0.0,0.0,0.0,0.0,0.0,0.0,0.0,0.0,0.0,0.0,0.0,0.0,0.0,0.0,0.0,0.0,-0.1884,-0.2784,-0.2875,-0.2875,-0.2875,-0.2875,-0.2875,-0.2875,-0.2875,-0.288,-0.2905,-0.2955,-0.2965,-0.2995,-0.3056,0.0,0.0,0.0,0.0,-0.2264,-0.2069,-0.1803,-0.1617,-0.1617,-0.1617,-0.1617,-0.1617,-0.1617,-0.1619,-0.1622,-0.1622,-0.1624,-0.1728,-0.2133,-0.2436,-0.2537,-0.3034,-0.323,-0.323,-0.323,-0.323,0.0,0.0,0.0,0.0,-0.323,-0.323,-0.323,-0.323,-0.323,-0.323,-0.323,-0.323,-0.323,-0.323,-0.3236,-0.3241,-0.3241,-0.3245,-0.3251,-0.3251,-0.3251,-0.3267,-0.3322,-0.4155,-0.459,-0.3614,-0.4353,-0.4964,-0.4863,-0.4863,0.0,-0.4862,-0.3956,-0.3382,-0.3485,0.0,0.0,-0.3582,-0.3587,-0.3587,-0.3587,-0.3587,-0.3587,-0.3587,-0.4414,-0.4519,-0.3586,-0.4632,-0.518,-0.5371,-0.67,-0.8134,-0.9798,-1.1559,-1.2327,0.0,0.0,0.0,0.0,0.0,0.0,0.0,0.0,0.0,0.0,0.0,0.0,0.0,0.0,0.0,-0.0628,-0.1436,-0.2243,-0.2784,-0.2875,-0.2875,-0.2875,-0.2875,-0.2875,-0.2875,-0.2916,-0.2946,-0.2958,-0.3004,-0.3059,-0.3119,-0.3123,0.0,-0.2794,-0.2704,-0.2609,-0.2309,-0.2017,-0.1921,-0.1921,0.0,0.0,-0.1617,-0.1617,-0.163,-0.1654,-0.1654,-0.1771,-0.2004,-0.2109,-0.2426,-0.2945,-0.3166,-0.323,-0.323,-0.323,-0.323,-0.323,-0.323,-0.323,-0.323,-0.323,-0.323,-0.323,-0.323,-0.323,0.0,-0.323,-0.323,-0.323,-0.323,-0.3267,-0.3304,-0.3304,-0.3342,-0.3377,-0.3377,-0.3377,-0.3382,-0.3392,-0.3606,-0.3608,-0.341,-0.5073,-0.6093,-0.5149,-0.4942,-0.4946,-0.4962,-0.4071,-0.3471,-0.3495,-0.3541,-0.3575,-0.3587,-0.3587,-0.3587,-0.3587,-0.3587,-0.3587,-0.3587,-0.3798,-0.3798,-0.3587,-0.4797,-0.5353,-0.5371,-0.7808,-0.9137,-0.9471,-1.1013,-1.2005,0.0,0.0,0.0,0.0,0.0,0.0,0.0,0.0,0.0,0.0,0.0,0.2154,0.1884,0.0,0.0269,-0.009,-0.1076,-0.1885,-0.2334,-0.2694,-0.2875,-0.2875,-0.2875,-0.2886,-0.2913,-0.2941,-0.2984,-0.3045,-0.3076,-0.3121,-0.3181,-0.3185,-0.3099,-0.3027,-0.2826,-0.2623,-0.2422,-0.214,-0.1946,-0.1845,-0.1757,-0.166,-0.166,-0.166,-0.1669,-0.1683,-0.1683,-0.1797,-0.1917,-0.2024,-0.2451,-0.298,-0.303,-0.3199,-0.3275,-0.3275,-0.3256,-0.323,-0.323,-0.323,-0.3236,-0.3266,-0.3275,-0.3282,-0.3312,-0.3322,-0.3322,-0.3322,-0.3322,-0.3322,-0.3322,-0.3343,-0.3367,-0.3367,-0.339,-0.3413,-0.3413,-0.3413,-0.3421,-0.3448,-0.3885,-0.4218,-0.3604,-0.491,-0.5636,-0.4374,-0.4676,-0.4796,-0.4303,-0.3802,-0.3508,-0.3538,-0.357,-0.3587,-0.3587,-0.3587,-0.3587,-0.3587,-0.3587,-0.3587,-0.3587,-0.3587,-0.3587,-0.3587,-0.4145,-0.4814,-0.5371,-0.7365,-0.8692,-0.9471,-1.0903,-1.1787,0.0,0.0,0.0,0.0,0.0,0.0,0.0,0.0,0.3229,0.2243,0.2064,0.1885,0.1436,0.0987,0.0539,0.0451,-0.0631,-0.1446,-0.1543,-0.2179,-0.2726,-0.2726,-0.2807,-0.2913,-0.297,-0.2986,-0.3034,-0.3132,-0.3151,-0.3179,-0.3228,-0.323,-0.323,-0.323,-0.3027,-0.2831,-0.2536,-0.2265,-0.2079,-0.1879,-0.1799,-0.1704,-0.1704,-0.1704,-0.1707,-0.1713,-0.1719,-0.1722,-0.1722,-0.1938,-0.2369,-0.2908,-0.2908,-0.309,-0.3354,-0.3343,-0.3308,-0.3266,-0.3266,-0.3266,-0.3274,-0.3323,-0.3339,-0.3347,-0.3398,-0.3413,-0.3413,-0.3413,-0.3413,-0.3413,-0.3413,-0.3421,-0.3428,-0.3428,-0.3437,-0.3447,-0.3447,-0.3447,-0.3461,-0.3506,-0.4279,-0.4627,-0.3801,-0.4369,-0.4661,-0.3569,-0.4193,-0.4425,-0.3616,-0.3514,-0.3533,-0.3582,-0.3587,-0.3587,-0.3587,-0.3587,-0.3587,-0.3587,-0.3587,-0.3587,-0.3587,-0.3587,-0.3587,-0.3587,-0.3587,-0.4033,-0.5037,-0.6475,-0.7695,-0.9027,-1.0684,-1.1678,0.8915,0.7676,0.6609,0.652,0.5542,0.4297,0.0,0.0,0.2689,0.1705,0.1525,0.1436,0.1436,0.1345,0.1083,0.046,0.0276,-0.0093,-0.0661,-0.1419,-0.1891,-0.1891,-0.2515,-0.2973,-0.3127,-0.3087,-0.3125,-0.3139,-0.3189,-0.3224,-0.323,-0.323,-0.323,-0.323,-0.313,-0.3155,-0.3207,-0.2694,-0.2509,-0.2444,-0.1916,-0.1704,-0.1704,-0.1704,-0.1719,-0.1746,-0.1773,-0.1785,-0.1785,-0.1785,-0.2231,-0.2679,-0.2679,-0.3091,-0.347,-0.3421,-0.3398,-0.3392,-0.3392,-0.3392,-0.3394,-0.3399,-0.3402,-0.3403,-0.341,-0.3413,-0.3413,-0.3413,-0.3413,-0.3413,-0.3413,-0.345,-0.3488,-0.3488,-0.3529,-0.3568,-0.3568,-0.3568,-0.357,-0.3576,-0.3688,-0.3802,-0.3586,-0.3699,-0.3694,-0.357,-0.3678,-0.3681,-0.3576,-0.3576,-0.3579,-0.3587,-0.3587,-0.3587,-0.3587,-0.3587,-0.3587,-0.3587,-0.3587,-0.3587,-0.3587,-0.3587,-0.3587,-0.3587,-0.3587,-0.3699,-0.3811,-0.6031,-0.7138,-0.7473,-1.0017,-1.1455,0.8828,0.812,0.7584,0.7136,0.6251,0.5186,0.376,0.3224,0.2608,0.164,0.1462,0.1467,0.1485,0.1488,0.1399,0.0,0.0659,0.0283,0.0,-0.0667,-0.1148,-0.116,-0.1826,-0.2593,-0.31,-0.3125,-0.3154,-0.3189,-0.3215,-0.323,-0.323,-0.323,-0.3247,-0.3282,-0.3283,-0.3209,-0.3163,-0.2768,-0.2471,-0.238,-0.1968,-0.1757,-0.1757,-0.1757,-0.1764,-0.1777,-0.1789,-0.1795,-0.1795,-0.1795,-0.2132,-0.2693,-0.2693,-0.3016,-0.3542,-0.3482,-0.344,-0.3413,-0.3413,-0.3413,-0.3418,-0.3451,-0.3462,-0.3467,-0.3503,-0.3514,-0.3514,-0.3514,-0.3514,-0.3514,-0.3514,-0.3531,-0.3549,-0.3549,-0.3568,-0.3587,-0.3587,-0.3587,-0.3587,-0.3587,-0.3587,-0.3587,-0.3587,-0.3587,-0.3587,-0.3587,-0.3587,-0.3587,-0.3587,-0.3587,-0.3587,-0.3587,-0.3587,-0.3587,-0.3587,-0.3587,-0.3587,-0.3587,-0.3587,-0.3587,-0.3587,-0.3587,-0.3587,-0.3587,-0.3587,-0.3587,-0.3587,-0.5919,-0.7138,-0.7138,-0.9798,-1.1236,0.8999,0.8564,0.8204,0.7669,0.6782,0.5819,0.4416,0.3522,0.2636,0.1857,0.1586,0.15,0.1522,0.1526,0.1529,0.1537,0.1058,0.077,0.0775,0.0097,-0.0389,-0.0395,-0.1087,-0.1778,-0.2372,-0.2867,-0.3183,-0.3228,-0.323,-0.313,-0.2927,-0.3144,-0.3173,-0.3008,-0.3232,-0.3269,-0.3006,-0.2718,-0.2412,-0.2204,-0.1896,-0.1795,-0.1795,-0.1795,-0.1795,-0.1795,-0.1795,-0.1795,-0.1795,-0.1795,-0.2132,-0.2693,-0.2693,-0.3029,-0.3582,-0.3538,-0.3496,-0.3461,-0.3461,-0.3461,-0.3467,-0.3508,-0.3522,-0.353,-0.3574,-0.3587,-0.3587,-0.3587,-0.3587,-0.3587,-0.3587,-0.3587,-0.3587,-0.3587,-0.3587,-0.3587,-0.3587,-0.3587,-0.3587,-0.3587,-0.3587,-0.3587,-0.3587,-0.3587,-0.3587,-0.3587,-0.3587,-0.3587,-0.3587,-0.3587,-0.3587,-0.3587,-0.3587,-0.3587,-0.3587,-0.3587,-0.3587,-0.3587,-0.3587,-0.3587,-0.3587,-0.3587,-0.3587,-0.3587,-0.3587,-0.3587,-0.3587,-0.5919,-0.7138,-0.7141,-0.9846,-1.1096,0.9257,0.846,0.7489,0.7489,0.6432,0.531,0.4863,0.3783,0.2786,0.2368,0.1904,0.1525,0.1526,0.1526,0.1536,0.1565,0.157,0.1581,0.161,0.0908,0.0403,0.0404,-0.0302,-0.0806,0.0,-0.2318,-0.3229,-0.323,-0.323,-0.2826,-0.2118,-0.2875,-0.2903,-0.2178,-0.2956,-0.3331,-0.3061,-0.2735,-0.2427,-0.2242,-0.1907,-0.1795,-0.1795,-0.1795,-0.1795,-0.1795,-0.1795,-0.1795,-0.1795,-0.1795,-0.2132,-0.2693,-0.2693,-0.3029,-0.3587,-0.3585,-0.3583,-0.3582,-0.3582,-0.3582,-0.3582,-0.3583,-0.3585,-0.3585,-0.3587,-0.3587,-0.3587,-0.3587,-0.3587,-0.3587,-0.3587,-0.3587,-0.3587,-0.3587,-0.3587,-0.3587,-0.3587,-0.3587,-0.3587,-0.3587,-0.3587,-0.3587,-0.3587,-0.3587,-0.3587,-0.3587,-0.3587,-0.3587,-0.3587,-0.3587,-0.3587,-0.3587,-0.3587,-0.3587,-0.3587,-0.3587,-0.3587,-0.3587,-0.3587,-0.3587,-0.3587,-0.3587,-0.3587,-0.3587,-0.3587,-0.3587,-0.3587,-0.5919,-0.7138,-0.7141,-0.9745,-1.1185,0.9349,0.8814,0.8278,0.7829,0.6995,0.6059,0.5162,0.4235,0.3413,0.2999,0.2721,0.2634,0.2669,0.2378,0.2084,0.2098,0.18,0.1605,0.1615,0.1415,0.1212,0.1212,0.0505,0.0,0.0,0.0,0.0,-0.1613,-0.2118,-0.2332,-0.2053,-0.2378,-0.2621,-0.3005,-0.3349,-0.3497,-0.3446,-0.3113,-0.2789,-0.2581,-0.202,-0.1795,-0.1795,-0.1795,-0.1795,-0.1795,-0.1795,-0.1795,-0.1795,-0.1795,-0.2132,-0.2693,-0.2693,-0.3029,-0.3587,-0.3587,-0.3587,-0.3587,-0.3587,-0.3587,-0.3587,-0.3587,-0.3587,-0.3587,-0.3587,-0.3587,-0.3587,-0.3587,-0.3587,-0.3587,-0.3587,-0.3587,-0.3587,-0.3587,-0.3587,-0.3587,-0.3587,-0.3587,-0.3587,-0.3587,-0.3587,-0.3587,-0.3587,-0.3587,-0.3587,-0.3587,-0.3587,-0.3587,-0.3587,-0.3587,-0.3587,-0.3587,-0.3587,-0.3587,-0.3587,-0.3587,-0.3587,-0.3587,-0.3587,-0.3587,-0.3587,-0.3587,-0.3587,-0.3587,-0.3627,-0.3647,-0.3647,-0.6203,-0.7383,-0.7383,-0.9956,-1.1135,0.9531,0.9089,0.8655,0.7986,0.7326,0.6555,0.5556,0.461,0.3869,0.3552,0.337,0.3184,0.3224,0.2725,0.2422,0.2422,0.1919,0.1617,0.1617,0.1617,0.1617,0.1617,0.1111,0.0707,0.0,0.0,0.0,-0.0806,-0.1522,-0.1946,-0.1658,-0.2309,-0.2777,-0.3058,-0.3408,-0.3548,-0.3474,-0.325,-0.2914,-0.2469,-0.202,-0.1795,-0.1795,-0.1795,-0.1795,-0.1795,-0.1795,-0.1795,-0.1795,-0.1795,-0.2132,-0.2693,-0.2693,-0.3029,-0.3587,-0.3587,-0.3587,-0.3587,-0.3587,-0.3587,-0.3587,-0.3587,-0.3587,-0.3587,-0.3587,-0.3587,-0.3587,-0.3587,-0.3587,-0.3587,-0.3587,-0.3587,-0.3587,-0.3587,-0.3587,-0.3587,-0.3587,-0.3587,-0.3587,-0.3587,-0.3587,-0.3594,-0.3616,-0.3638,-0.3653,-0.3653,-0.3653,-0.3636,-0.3593,-0.3587,-0.3595,-0.3617,-0.362,-0.3628,-0.365,-0.3653,-0.3653,-0.3653,-0.3653,-0.3653,-0.3653,-0.3653,-0.3653,-0.3653,-0.3691,-0.371,-0.3711,-0.6306,-0.7505,-0.7505,-1.012,-1.1321,0.9637,0.9199,0.8706,0.8034,0.7318,0.6596,0.595,0.4806,0.3946,0.4017,0.3632,0.3331,0.0,0.0,0.2422,0.2422,0.1919,0.1617,0.1617,0.1617,0.1617,0.0,0.0,0.0,0.0,0.0,0.0,-0.0707,0.0,-0.1764,-0.1039,-0.2575,-0.3061,-0.2409,-0.3224,-0.3474,-0.3137,-0.3137,-0.2802,-0.2244,-0.1908,-0.1795,-0.1795,-0.1795,-0.1795,-0.1795,-0.1795,-0.1795,-0.1795,-0.1795,-0.2132,-0.2693,-0.2693,-0.3029,-0.3587,-0.3587,-0.3587,-0.3587,-0.3587,-0.3587,-0.3587,-0.3587,-0.3587,-0.3587,-0.3587,-0.3587,-0.3587,-0.3587,-0.3587,-0.3587,-0.3587,-0.3587,-0.3587,-0.3587,-0.3587,-0.3589,-0.3591,-0.3593,-0.3593,-0.3595,-0.3597,-0.3616,-0.3673,-0.373,-0.377,-0.377,-0.377,-0.3728,-0.3612,-0.3597,-0.3619,-0.3677,-0.3683,-0.3706,-0.3764,-0.377,-0.377,-0.377,-0.377,-0.377,-0.377,-0.377,-0.377,-0.377,-0.3773,-0.3774,-0.3774,-0.6352,-0.7524,-0.7644,-1.0248,-1.1516,0.9714,0.949,0.9041,0.8317,0.7641,0.6944,0.609,0.52,0.4608,0.463,0.4533,0.4433,0.4433,0.0,0.0,0.3027,0.2222,0.0,0.1617,0.1617,0.0,0.1617,0.0,0.0606,0.0404,-0.0204,0.0,0.0,-0.1034,-0.1468,-0.194,-0.2394,-0.2859,-0.3229,-0.3467,-0.3587,-0.3475,-0.325,-0.2914,-0.2581,-0.2244,-0.202,-0.1795,-0.1795,-0.1795,-0.1795,-0.1795,-0.1795,-0.1795,-0.1795,-0.2132,-0.2693,-0.2693,-0.3029,-0.3587,-0.3587,-0.3587,-0.3587,-0.3587,-0.3587,-0.3587,-0.3587,-0.3587,-0.3587,-0.3587,-0.3587,-0.3587,-0.3587,-0.3587,-0.3587,-0.3587,-0.3587,-0.3587,-0.3587,-0.3587,-0.36,-0.3646,-0.3655,-0.3669,-0.3714,-0.3724,-0.3728,-0.3744,-0.3759,-0.377,-0.377,-0.377,-0.3758,-0.3726,-0.3724,-0.3729,-0.3744,-0.3747,-0.3752,-0.3768,-0.377,-0.377,-0.377,-0.377,-0.377,-0.377,-0.377,-0.377,-0.377,-0.3813,-0.3837,-0.3837,-0.6524,-0.7766,-0.7889,-1.0466,-1.1707,0.9626,0.9469,0.918,0.8474,0.7773,0.7039,0.6142,0.5338,0.4834,0.4834,0.4834,0.4834,0.4834,0.3932,0.323,0.0,0.0,0.0,0.1617,0.1617,0.1516,0.0,0.0707,0.0,-0.0606,-0.082,-0.1248,0.0,-0.1691,-0.1714,-0.2294,-0.2643,-0.3108,-0.3586,-0.3587,-0.3587,-0.3587,-0.3139,-0.2805,-0.2693,-0.2244,-0.1908,-0.1795,-0.1795,-0.1795,-0.1795,0.0,-0.1795,-0.1795,-0.1795,-0.2132,-0.2693,-0.2693,-0.3029,-0.3587,-0.3587,-0.3587,-0.3587,-0.3587,-0.3587,-0.3587,-0.3587,-0.3587,-0.3587,-0.3587,-0.3587,-0.3587,-0.3587,-0.3587,-0.3587,-0.3587,-0.3606,-0.3627,-0.3627,-0.3647,-0.3677,-0.371,-0.3718,-0.3729,-0.3763,-0.379,-0.3809,-0.3809,-0.3831,-0.3849,-0.3849,-0.3849,-0.3849,-0.3849,-0.3803,-0.3779,-0.3807,-0.3809,-0.382,-0.3846,-0.3849,-0.3849,-0.3849,-0.3849,-0.3849,-0.3849,-0.3849,-0.3849,-0.3849,-0.3883,-0.3899,-0.3899,-0.6611,-0.7858,-0.798,-1.0616,-1.189,0.9536,0.9388,0.9235,0.8598,0.7836,0.7039,0.6342,0.5438,0.4834,0.4935,0.4834,0.4834,0.4834,0.3932,0.323,0.323,0.0,0.1617,0.1617,0.1617,0.1314,0.0606,0.0404,-0.0303,-0.1513,-0.1336,-0.1571,-0.2981,-0.2496,-0.2195,-0.2414,-0.3114,-0.3475,-0.3587,-0.3475,-0.3475,-0.3587,-0.2917,-0.2581,-0.2693,-0.2132,-0.1795,-0.1795,-0.1795,-0.1795,-0.1795,0.0,0.0,-0.1795,-0.1795,-0.2132,-0.2693,-0.2693,-0.3029,-0.3589,-0.3597,-0.36,-0.3601,-0.3608,-0.3612,-0.3609,-0.3593,-0.3587,-0.3587,-0.3587,-0.3593,-0.36,-0.36,-0.3605,-0.3612,-0.3612,-0.3651,-0.3691,-0.3691,-0.373,-0.3771,-0.3779,-0.3788,-0.3793,-0.3793,-0.3837,-0.3872,-0.3872,-0.3916,-0.3951,-0.3951,-0.3951,-0.3951,-0.3951,-0.3858,-0.3813,-0.3867,-0.3872,-0.3894,-0.3947,-0.3951,-0.3951,-0.3951,-0.3951,-0.3951,-0.3951,-0.3951,-0.3951,-0.3951,-0.3951,-0.3951,-0.3951,-0.6653,-0.7883,-0.776,-1.0613,-1.1941,0.9531,0.9579,0.9391,0.8623,0.7836,0.7138,0.7039,0.5837,0.5035,0.5639,0.5238,0.4834,0.4834,0.3932,0.323,0.323,0.2323,0.1617,0.1617,0.1617,0.1516,0.0,0.0202,-0.0403,-0.0101,-0.1144,0.0,0.0,0.0,-0.1786,-0.3348,-0.2796,-0.28,-0.3587,-0.2801,-0.2801,-0.3587,-0.2467,-0.2244,-0.2693,-0.2356,-0.202,-0.1795,-0.1795,-0.1795,-0.1795,0.0,0.0,-0.1795,-0.1795,-0.2132,-0.2693,-0.2693,-0.3029,-0.3594,-0.3644,-0.3662,-0.367,-0.3721,-0.3737,-0.3721,-0.362,-0.3587,-0.3587,-0.3587,-0.3623,-0.3662,-0.3662,-0.3699,-0.3737,-0.3737,-0.3745,-0.3753,-0.3753,-0.3762,-0.3783,-0.3834,-0.3884,-0.392,-0.392,-0.3928,-0.3935,-0.3935,-0.3944,-0.3951,-0.3951,-0.3951,-0.3951,-0.3951,-0.3932,-0.3924,-0.3933,-0.3935,-0.394,-0.395,-0.3951,-0.3951,-0.3951,-0.3951,-0.3951,-0.3951,-0.3951,-0.3951,-0.3951,-0.3951,-0.3951,-0.3951,-0.6724,-0.751,-0.6395,-1.0402,-1.1622,0.9575,0.9628,0.9529,0.913,0.8432,0.7836,0.7836,0.6537,0.5539,0.5942,0.5338,0.4834,0.4834,0.4133,0.3531,0.323,0.2524,0.1919,0.1617,0.1617,0.1415,0.101,0.0303,-0.0203,-0.0205,-0.0944,0.0,0.0,0.0,-0.0785,-0.2129,-0.1793,-0.1681,-0.2129,-0.1793,-0.1793,-0.2242,-0.1458,-0.1121,-0.1121,-0.0785,-0.0336,0.0,-0.0561,-0.0897,-0.0897,-0.157,0.0,-0.1795,-0.1795,-0.2142,-0.2726,-0.2726,-0.3198,-0.3685,-0.3714,-0.3726,-0.373,-0.3759,-0.377,-0.3759,-0.37,-0.3681,-0.3681,-0.3681,-0.3702,-0.3726,-0.3726,-0.3747,-0.377,-0.377,-0.3793,-0.3816,-0.3816,-0.3841,-0.3872,-0.3901,-0.3929,-0.3951,-0.3951,-0.3951,-0.3951,-0.3951,-0.3951,-0.3951,-0.3951,-0.3951,-0.3951,-0.3951,-0.3951,-0.3951,-0.3951,-0.3951,-0.3951,-0.3951,-0.3951,-0.3951,-0.3951,-0.3951,-0.3951,-0.3951,-0.3951,-0.3965,-0.3995,-0.3995,-0.401,-0.4041,-0.6088,-0.674,-0.611,-0.9659,-1.0888,0.9587,0.9628,0.9628,0.9628,0.9031,0.8432,0.863,0.7238,0.6042,0.6242,0.5436,0.4834,0.4834,0.4332,0.3833,0.343,0.2927,0.2423,0.1818,0.1818,0.1515,0.0707,0.0505,0.0,-0.0207,-0.0421,0.0,0.0,0.0,0.0,-0.0561,-0.0785,-0.0897,-0.0897,-0.0673,-0.0673,-0.0897,-0.0336,0.0,0.0448,0.0784,0.1233,0.1791,0.0784,0.0224,-0.0,-0.1009,0.0,0.0,-0.1805,-0.2163,-0.2771,-0.2771,-0.326,-0.3771,-0.3783,-0.3789,-0.379,-0.3804,-0.3808,-0.3808,-0.3808,-0.379,-0.377,-0.377,-0.3778,-0.3789,-0.3789,-0.3798,-0.3808,-0.3808,-0.3843,-0.388,-0.388,-0.3916,-0.3951,-0.3951,-0.3951,-0.3951,-0.3951,-0.3951,-0.3951,-0.3951,-0.3951,-0.3951,-0.3951,-0.3951,-0.3951,-0.3951,-0.3951,-0.3951,-0.3951,-0.3951,-0.3951,-0.3951,-0.3951,-0.3951,-0.3951,-0.3951,-0.3956,-0.3969,-0.3969,-0.3996,-0.4053,-0.4055,-0.4078,-0.4125,-0.542,-0.5941,-0.5816,-0.9021,-1.026,0.9624,0.9628,0.9628,0.9628,0.9031,0.863,0.9327,0.7637,0.6242,0.6939,0.5837,0.4834,0.4834,0.4332,0.4033,0.3932,0.343,0.2927,0.2422,0.2321,0.2119,0.1515,0.0,0.0,0.1452,0.0843,0.0,0.0,0.0,0.0,0.0,-0.0449,-0.0897,-0.0897,-0.0112,-0.0112,-0.0897,0.0224,0.0672,0.0448,0.0784,0.1233,0.1791,0.1679,0.1008,-0.0,0.0,0.0,0.0,-0.1836,-0.22,-0.2818,-0.2818,-0.3175,-0.3777,-0.3831,-0.3852,-0.386,-0.3916,-0.3933,-0.3933,-0.3933,-0.386,-0.377,-0.377,-0.3808,-0.3852,-0.3852,-0.3891,-0.3933,-0.3933,-0.3937,-0.3943,-0.3943,-0.3947,-0.3951,-0.3951,-0.3951,-0.3951,-0.3951,-0.3951,-0.3951,-0.3951,-0.3951,-0.3951,-0.3951,-0.3951,-0.3951,-0.3951,-0.3951,-0.3951,-0.3951,-0.3951,-0.3951,-0.3951,-0.3951,-0.3951,-0.3951,-0.3951,-0.3974,-0.4025,-0.4027,-0.4056,-0.4116,-0.4117,-0.412,-0.4125,-0.5606,-0.5642,-0.4471,-0.8764,-1.0019,0.9628,0.9628,0.9628,0.9628,0.9327,0.9229,0.9529,0.8134,0.6839,0.7138,0.5937,0.4834,0.4834,0.4634,0.4332,0.4033,0.3831,0.3429,0.2521,0.2422,0.222,0.1617,0.1314,0.0,0.0,0.0,0.0,0.0,0.0,0.0,0.0,0.0897,0.0673,0.0673,0.1009,0.1121,0.0673,0.1234,0.1794,0.2352,0.2465,0.3025,0.392,0.3246,0.2251,0.1023,0.0,0.0,0.0,-0.1868,-0.2238,-0.2865,-0.2865,-0.3244,-0.3882,-0.3905,-0.3914,-0.3918,-0.3943,-0.3951,-0.3951,-0.3951,-0.3918,-0.3877,-0.3877,-0.3895,-0.3914,-0.3914,-0.3932,-0.3951,-0.3951,-0.3951,-0.3951,-0.3951,-0.3951,-0.3951,-0.3951,-0.3951,-0.3951,-0.3951,-0.3951,-0.3961,-0.3996,-0.4001,-0.4014,-0.405,-0.4056,-0.4056,-0.4056,-0.4056,-0.4056,-0.4056,-0.3992,-0.3965,-0.3999,-0.4001,-0.4016,-0.4053,-0.4056,-0.4065,-0.4089,-0.4089,-0.4117,-0.418,-0.418,-0.4198,-0.4236,-0.4787,-0.4801,-0.4271,-0.6958,-0.8307,0.9628,0.9628,0.9628,0.9628,0.9628,0.9529,0.9327,0.8233,0.7138,0.6939,0.5737,0.4834,0.4834,0.4834,0.4634,0.4334,0.4234,0.393,0.3025,0.2823,0.2623,0.1919,0.0,0.1855,0.0,0.0,0.0,0.0,0.0,0.0,0.0,0.1795,0.1795,0.1795,0.1795,0.1795,0.1795,0.1795,0.2355,0.3365,0.3475,0.4147,0.5156,0.4501,0.3518,0.2181,0.0,0.0,0.0,-0.178,-0.2275,-0.2913,-0.2791,-0.33,-0.3951,-0.3826,-0.3826,-0.3951,-0.3951,-0.3951,-0.3951,-0.3951,-0.3951,-0.3951,-0.3951,-0.3951,-0.3951,-0.3951,-0.3951,-0.3951,-0.3951,-0.3951,-0.3951,-0.3951,-0.3951,-0.3951,-0.3951,-0.3963,-0.3976,-0.3976,-0.3989,-0.4015,-0.4055,-0.4061,-0.4076,-0.4119,-0.4125,-0.4125,-0.4125,-0.4125,-0.4125,-0.4125,-0.4052,-0.4019,-0.4059,-0.4061,-0.408,-0.4123,-0.4125,-0.4134,-0.4151,-0.4153,-0.4181,-0.4243,-0.4243,-0.4264,-0.4308,-0.4308,-0.4308,-0.4307,-0.6176,-0.8041,0.9723,0.9628,0.9628,0.9628,0.9628,0.9426,0.863,0.7733,0.6939,0.6142,0.5338,0.4834,0.4834,0.4834,0.4834,0.4834,0.4834,0.4634,0.4033,0.4033,0.363,0.0,0.0,0.2298,0.0,0.0,0.0,0.0,0.0,0.0,0.0,0.1795,0.1795,0.1795,0.1795,0.1795,0.1795,0.1795,0.2132,0.2693,0.3365,0.3921,0.4482,0.5238,0.4818,0.0,0.0,0.0,0.0,-0.1326,-0.2312,-0.296,-0.259,-0.3085,-0.3828,-0.358,-0.3703,-0.3951,-0.3951,-0.3951,-0.3951,-0.3951,-0.3951,-0.3951,-0.3951,-0.3951,-0.3951,-0.3951,-0.3951,-0.3951,-0.3951,-0.3951,-0.3951,-0.3951,-0.3951,-0.3951,-0.3951,-0.3995,-0.4034,-0.4034,-0.4082,-0.4124,-0.4125,-0.4125,-0.4125,-0.4125,-0.4125,-0.4125,-0.4125,-0.4125,-0.4125,-0.4125,-0.4124,-0.4124,-0.4125,-0.4125,-0.4125,-0.4125,-0.4125,-0.4153,-0.4213,-0.4215,-0.4244,-0.4305,-0.4307,-0.4307,-0.4308,-0.4308,-0.4308,-0.4307,-0.7243,-1.0038,0.9723,0.9628,0.9628,0.9628,0.9229,0.873,0.8432,0.7335,0.6342,0.6042,0.5338,0.4834,0.4834,0.4834,0.4834,0.4834,0.4834,0.4634,0.4033,0.3732,0.0,0.2522,0.2177,0.1915,0.0,0.0,0.0,0.0,0.0,0.0,0.0,0.1795,0.1795,0.1795,0.1795,0.1795,0.1795,0.1795,0.2355,0.3365,0.3475,0.4147,0.5158,0.5354,0.0,0.0,0.0,0.0,0.0,-0.147,-0.2336,-0.2961,-0.2838,-0.3332,-0.3951,-0.3826,-0.3826,-0.3951,-0.3951,-0.3951,-0.3951,-0.3951,-0.3951,-0.3951,-0.3951,-0.3951,-0.3951,-0.3951,-0.3951,-0.3951,-0.3951,-0.3951,-0.3961,-0.3999,-0.4008,-0.4019,-0.4061,-0.4085,-0.4097,-0.4097,-0.4112,-0.4139,-0.4181,-0.4188,-0.4202,-0.4244,-0.4249,-0.4249,-0.4249,-0.4249,-0.4249,-0.4249,-0.4249,-0.4233,-0.4191,-0.4188,-0.4206,-0.4247,-0.4249,-0.4259,-0.4278,-0.4279,-0.4288,-0.4307,-0.4308,-0.4308,-0.4308,-0.4308,-0.4308,-0.4307,-0.7243,-0.9105,0.9826,0.9628,0.9628,0.9628,0.9031,0.8333,0.8035,0.6939,0.5942,0.5639,0.5135,0.4834,0.4834,0.4834,0.4834,0.4834,0.4834,0.4634,0.4033,0.0,0.0,0.2571,0.0,0.0,0.0,0.0,0.0,0.0,0.0,0.0,0.0,0.0,0.1795,0.1795,0.1795,0.1795,0.1795,0.1795,0.2131,0.2915,0.3363,0.4049,0.4756,0.5291,0.0,0.0,0.0,0.0,0.0,-0.074,-0.1975,-0.2961,-0.2716,-0.3086,-0.3828,-0.3703,-0.3703,-0.3951,-0.3951,-0.3951,-0.3951,-0.3951,-0.3951,-0.3951,-0.3951,-0.3951,-0.3951,-0.3951,-0.3951,-0.3951,-0.3951,-0.3966,-0.3991,-0.4026,-0.4052,-0.4079,-0.4117,-0.4143,-0.4159,-0.4159,-0.4179,-0.4206,-0.4244,-0.4251,-0.4263,-0.4301,-0.4308,-0.4308,-0.4308,-0.4308,-0.4308,-0.4308,-0.4308,-0.4292,-0.4255,-0.4251,-0.4267,-0.4305,-0.4308,-0.4308,-0.4308,-0.4308,-0.4308,-0.4308,-0.4308,-0.4308,-0.4308,-0.4308,-0.4575,-0.5109,-0.7507,-0.8865,0.0,0.9628,0.9628,0.9628,0.8931,0.8134,0.7338,0.6539,0.0,0.4935,0.4834,0.4834,0.4834,0.4834,0.4834,0.4834,0.4834,0.4634,0.0,0.4033,0.0,0.0,0.0,0.0,0.0,0.0,0.0,0.0,0.0,0.0,0.0,0.0,0.1795,0.1795,0.1795,0.1795,0.1795,0.1795,0.1795,0.1907,0.3027,0.3731,0.391,0.502,0.0,0.0,0.0,0.0,0.0,0.0493,-0.1233,-0.2961,-0.2346,-0.284,-0.3826,-0.3332,-0.3455,-0.3951,-0.3951,-0.3951,-0.3951,-0.3951,-0.3951,-0.3951,-0.3951,-0.3951,-0.3951,-0.3951,-0.3954,-0.3956,-0.3956,-0.3999,-0.4042,-0.4046,-0.409,-0.4134,-0.4138,-0.4183,-0.4222,-0.4222,-0.4268,-0.4308,-0.4308,-0.4308,-0.4308,-0.4308,-0.4308,-0.4308,-0.4308,-0.4308,-0.4308,-0.4308,-0.4308,-0.4308,-0.4308,-0.4308,-0.4308,-0.4308,-0.4308,-0.4308,-0.4308,-0.4308,-0.4308,-0.4308,-0.4308,-0.4308,-0.4308,-0.4308,-0.4975,-0.6309,-0.7915,-0.9448,0.9924,0.0,0.9628,0.9628,0.8531,0.7437,0.0,0.6137,0.5035,0.4834,0.4834,0.4834,0.4834,0.4834,0.4834,0.4834,0.4834,0.4734,0.4634,0.0,0.0,0.0,0.0,0.0,0.0,0.0,0.0,0.0,0.0,0.0,0.0,0.0,0.1795,0.1795,0.1795,0.1795,0.1795,0.1795,0.2243,0.3139,0.3475,0.4069,0.5054,0.5486,0.0,0.0,0.0,0.0,0.1847,0.0493,-0.1233,-0.2961,-0.2838,-0.3209,-0.3828,-0.3703,-0.3826,-0.3951,-0.3951,-0.3951,-0.3951,-0.3951,-0.3951,-0.3951,-0.3951,-0.3951,-0.3951,-0.3951,-0.3981,-0.4015,-0.4015,-0.4059,-0.4116,-0.4162,-0.4185,-0.4209,-0.4255,-0.4275,-0.4286,-0.4286,-0.4297,-0.4308,-0.4308,-0.4308,-0.4308,-0.4308,-0.4308,-0.4308,-0.4308,-0.4308,-0.4308,-0.4308,-0.4308,-0.4308,-0.4308,-0.4308,-0.4308,-0.4308,-0.4308,-0.4308,-0.4308,-0.4308,-0.4308,-0.4308,-0.4308,-0.4308,-0.4308,-0.4308,-0.4441,-0.4844,-0.7451,-0.8988,1.0216,0.9821,0.9628,0.9628,0.8432,0.7238,0.7238,0.5937,0.4834,0.4834,0.4834,0.4834,0.4834,0.4834,0.4834,0.4834,0.4834,0.0,0.0,0.0,0.2995,0.0,0.0,0.0,0.0,0.0,0.0,0.0,0.0,0.0,0.0,0.0,0.1795,0.1795,0.1795,0.1795,0.1795,0.1795,0.2243,0.3141,0.3475,0.4199,0.5226,0.5504,0.0,0.0,0.0,0.0,0.283,0.1478,-0.0123,-0.1849,-0.2345,-0.2962,-0.3703,-0.3579,-0.3703,-0.3951,-0.3951,-0.3951,-0.3951,-0.3951,-0.3951,-0.3951,-0.3951,-0.3969,-0.3989,-0.3989,-0.4011,-0.4041,-0.4068,-0.4121,-0.4176,-0.4209,-0.4239,-0.4267,-0.43,-0.4308,-0.4308,-0.4308,-0.4308,-0.4308,-0.4308,-0.4308,-0.4308,-0.4308,-0.4308,-0.4308,-0.4308,-0.4308,-0.4308,-0.4308,-0.4308,-0.4308,-0.4308,-0.4308,-0.4308,-0.4308,-0.4308,-0.4308,-0.4308,-0.4308,-0.4308,-0.4308,-0.4308,-0.4308,-0.4308,-0.4308,-0.4322,-0.435,-0.6689,-0.8123,1.0507,1.0019,0.9529,0.943,0.8333,0.7138,0.7039,0.5837,0.4834,0.4834,0.4834,0.4834,0.4834,0.4834,0.0,0.4834,0.0,0.0,0.4033,0.3687,0.3235,0.0,0.0,0.0,0.0,0.0,0.0,0.0,0.0,0.0,0.0,0.0,0.0,0.1795,0.1795,0.1795,0.1795,0.1795,0.2131,0.2806,0.3365,0.4105,0.4941,0.5411,0.5743,0.0,0.0,0.0,0.3815,0.2584,0.0985,-0.0616,-0.1605,-0.2717,-0.3455,-0.3208,-0.3455,-0.3951,-0.3951,-0.3951,-0.3951,-0.3951,-0.3951,-0.3951,-0.3951,-0.3989,-0.4037,-0.4046,-0.4055,-0.4075,-0.4127,-0.4185,-0.423,-0.423,-0.427,-0.4308,-0.4308,-0.4308,-0.4308,-0.4308,-0.4308,-0.4308,-0.4308,-0.4308,-0.4308,-0.4308,-0.4308,-0.4308,-0.4308,-0.4308,-0.4308,-0.4308,-0.4308,-0.4308,-0.4308,-0.4308,-0.4308,-0.4308,-0.4308,-0.4308,-0.4308,-0.4308,-0.4308,-0.4308,-0.4308,-0.4308,-0.4308,-0.4316,-0.4348,-0.4398,-0.5924,-0.753,1.0507,1.0019,0.943,0.873,0.7935,0.7039,0.6339,0.5438,0.4834,0.4834,0.4834,0.4834,0.4834,0.4834,0.4834,0.0,0.0,0.4634,0.0,0.0,0.0,0.0,0.0,0.0,0.0,0.0,0.0,0.0,0.0,0.0,0.0,0.0,0.0,0.1795,0.1795,0.1795,0.1795,0.1795,0.2355,0.3477,0.3587,0.4219,0.5526,0.5526,0.5743,0.0,0.0,0.5174,0.3815,0.2584,0.0985,-0.0616,-0.1973,-0.2838,-0.3455,-0.3455,-0.358,-0.3951,-0.3951,-0.3951,-0.3951,-0.3951,-0.3951,-0.3951,-0.3951,-0.3989,-0.4045,-0.4097,-0.4149,-0.4191,-0.42,-0.4248,-0.4293,-0.4293,-0.43,-0.4308,-0.4308,-0.4308,-0.4308,-0.4308,-0.4308,-0.4308,-0.4308,-0.4308,-0.4308,-0.4308,-0.4308,-0.4308,-0.4308,-0.4308,-0.4308,-0.4308,-0.4308,-0.4308,-0.4308,-0.4308,-0.4308,-0.4308,-0.4308,-0.4308,-0.4308,-0.4308,-0.4308,-0.4308,-0.4308,-0.4308,-0.4308,-0.436,-0.439,-0.4401,-0.6036,-0.7663,1.0904,1.0216,0.9426,0.863,0.7836,0.7138,0.6739,0.5737,0.4834,0.4834,0.4834,0.4834,0.4834,0.0,0.4834,0.4834,0.0,0.0,0.0,0.0,0.0,0.0,0.0,0.0,0.0,0.0,0.0,0.0,0.0,0.0,0.0,0.0,0.0,0.0,0.1795,0.1795,0.1795,0.1795,0.2243,0.3141,0.3475,0.4105,0.5176,0.5411,0.5743,0.5916,0.0,0.5546,0.4803,0.2831,0.1969,0.16,-0.1355,-0.2342,-0.2218,-0.3331,-0.3826,-0.3951,-0.3951,-0.3951,-0.3951,-0.3951,-0.3951,-0.3956,-0.3986,-0.4037,-0.4097,-0.4158,-0.4195,-0.4224,-0.4258,-0.4286,-0.4308,-0.4308,-0.4308,-0.4308,-0.4308,-0.4308,-0.4308,-0.4308,-0.4308,-0.4308,-0.4308,-0.4308,-0.4308,-0.4308,-0.4308,-0.4308,-0.4308,-0.4308,-0.4308,-0.4308,-0.4308,-0.4308,-0.4308,-0.4308,-0.4308,-0.4308,-0.4308,-0.4308,-0.4308,-0.4308,-0.4308,-0.4308,-0.4308,-0.4323,-0.4357,-0.4384,-0.4431,-0.4495,-0.5254,-0.7012,1.1194,1.0413,0.9426,0.863,0.7836,0.7138,0.6939,0.5837,0.4834,0.4834,0.0,0.4834,0.0,0.4834,0.0,0.4834,0.0,0.0,0.0,0.0,0.0,0.0,0.0,0.0,0.0,0.0,0.0,0.0,0.0,0.0,0.0,0.0,0.0,0.0,0.1795,0.1795,0.1795,0.1795,0.2132,0.2693,0.3141,0.3765,0.4591,0.5176,0.5504,0.5669,0.5794,0.5794,0.5544,0.3324,0.2954,0.3323,-0.0493,-0.1726,-0.1724,-0.3331,-0.3951,-0.3951,-0.3951,-0.3951,-0.3951,-0.3951,-0.3951,-0.3961,-0.4018,-0.4078,-0.4138,-0.4199,-0.4228,-0.4248,-0.4296,-0.4308,-0.4308,-0.4308,-0.4308,-0.4308,-0.4308,-0.4308,-0.4308,-0.4308,-0.4308,-0.4308,-0.4308,-0.4308,-0.4308,-0.4308,-0.4308,-0.4308,-0.4308,-0.4308,-0.4308,-0.4308,-0.4308,-0.4308,-0.4308,-0.4308,-0.4308,-0.4308,-0.4308,-0.4308,-0.4308,-0.4308,-0.4308,-0.4308,-0.4322,-0.4352,-0.4398,-0.4425,-0.4486,-0.4574,-0.4589,-0.6053,1.1194,1.0413,0.9426,0.863,0.7836,0.7039,0.6242,0.5436,0.0,0.4834,0.0,0.0,0.0,0.4834,0.4834,0.4834,0.0,0.0,0.0,0.0,0.0,0.0,0.0,0.0,0.0,0.0,0.0,0.0,0.0,0.0,0.0,0.0,0.0,0.0,0.0,0.1795,0.1795,0.1795,0.2132,0.2693,0.2693,0.3197,0.3886,0.4589,0.4906,0.5049,0.5669,0.5546,0.4925,0.4062,0.3446,0.2832,0.0616,-0.1233,-0.296,-0.3703,-0.3951,-0.3951,-0.3951,-0.3951,-0.3951,-0.3951,-0.3951,-0.3961,-0.4018,-0.4078,-0.4138,-0.4199,-0.4258,-0.4301,-0.4307,-0.4308,-0.4308,-0.4308,-0.4308,-0.4308,-0.4308,-0.4308,-0.4308,-0.4308,-0.4308,-0.4308,-0.4308,-0.4308,-0.4308,-0.4308,-0.4308,-0.4308,-0.4308,-0.4308,-0.4308,-0.4308,-0.4308,-0.4308,-0.4308,-0.4308,-0.4308,-0.4308,-0.4308,-0.4308,-0.4308,-0.4308,-0.4308,-0.4308,-0.4362,-0.4394,-0.4398,-0.4507,-0.4565,-0.4575,-0.4631,-0.5528,1.1194,1.0413,0.9529,0.9229,0.8134,0.0,0.0,0.5737,0.4935,0.5438,0.5135,0.0,0.0,0.0,0.4834,0.0,0.0,0.0,0.0,0.0,0.0,0.0,0.0,0.0,0.0,0.0,0.0,0.0,0.0,0.0,0.0,0.0,0.0,0.0,0.0,0.1795,0.1795,0.1795,0.1908,0.2132,0.2469,0.2855,0.3297,0.4355,0.4787,0.4926,0.5174,0.5421,0.5421,0.394,0.394,0.4558,0.1724,-0.0739,-0.2837,-0.358,-0.3951,-0.3951,-0.3951,-0.3951,-0.3951,-0.3951,-0.3951,-0.3969,-0.4063,-0.4108,-0.4146,-0.4245,-0.429,-0.4308,-0.4308,-0.4308,-0.4308,-0.4308,-0.4308,-0.4308,-0.4308,-0.4308,-0.4308,-0.4308,-0.4308,-0.4308,-0.4308,-0.4308,-0.4308,-0.4308,-0.4308,-0.4308,-0.4308,-0.4308,-0.4308,-0.4308,-0.4308,-0.4308,-0.4308,-0.4308,-0.4308,-0.4308,-0.4308,-0.4308,-0.4308,-0.4308,-0.4324,-0.4364,-0.4387,-0.4435,-0.4507,-0.4552,-0.4593,-0.4631,-0.4654,-0.5533,1.1194,1.0413,0.9529,0.9327,0.8432,0.7537,0.7238,0.5937,0.5035,0.5839,0.5338,0.4834,0.4834,0.0,0.0,0.0,0.0,0.0,0.0,0.0,0.0,0.0,0.0,0.0,0.0,0.0,0.0,0.0,0.0,0.0,0.0,0.0,0.0,0.0,0.0,0.1795,0.1795,0.1795,0.1795,0.1795,0.2244,0.2505,0.2571,0.364,0.4178,0.4282,0.4548,0.4682,0.4931,0.3942,0.4187,0.4805,0.2338,-0.0123,-0.2466,-0.3208,-0.3703,-0.3951,-0.3951,-0.3951,-0.3951,-0.3951,-0.3951,-0.3973,-0.409,-0.4125,-0.4151,-0.4273,-0.4308,-0.4308,-0.4308,-0.4308,-0.4308,-0.4308,-0.4308,-0.4308,-0.4308,-0.4308,-0.4308,-0.4308,-0.4308,-0.4308,-0.4308,-0.4308,-0.4308,-0.4308,-0.4308,-0.4308,-0.4308,-0.4308,-0.4308,-0.4308,-0.4308,-0.4308,-0.4308,-0.4308,-0.4308,-0.4308,-0.4308,-0.4308,-0.4308,-0.4326,-0.4356,-0.4398,-0.4435,-0.4493,-0.4574,-0.4593,-0.4624,-0.4665,-0.4665,-0.5244,1.1194,1.0408,0.9426,0.863,0.8432,0.8233,0.7437,0.5934,0.5035,0.5839,0.5338,0.4834,0.4834,0.0,0.0,0.0,0.0,0.0,0.0,0.0,0.0,0.0,0.0,0.0,0.0,0.0,0.0,0.0,0.0,0.0,0.0,0.0,0.0,0.0,0.1795,0.0,0.1795,0.1795,0.1795,0.1795,0.1795,0.1811,0.1841,0.2571,0.285,0.2895,0.3552,0.3575,0.3085,0.4435,0.4186,0.2956,0.2586,0.0616,-0.1973,-0.2343,-0.3085,-0.3951,-0.3951,-0.3951,-0.3951,-0.3951,-0.3951,-0.3973,-0.409,-0.4125,-0.4151,-0.4273,-0.4308,-0.4308,-0.4308,-0.4308,-0.4308,-0.4308,-0.4308,-0.4308,-0.4308,-0.4308,-0.4308,-0.4308,-0.4308,-0.4308,-0.4308,-0.4308,-0.4308,-0.4308,-0.4308,-0.4308,-0.4308,-0.4308,-0.4308,-0.4308,-0.4308,-0.4308,-0.4308,-0.4308,-0.4308,-0.4308,-0.4308,-0.4308,-0.4308,-0.4367,-0.4399,-0.4399,-0.4514,-0.4574,-0.4574,-0.4635,-0.4665,-0.4665,-0.4665,-0.4665,1.1292,1.0708,1.0019,0.9426,0.8829,0.8333,0.8134,0.6836,0.0,0.0,0.4935,0.4834,0.4834,0.0,0.0,0.0,0.0,0.0,0.0,0.0,0.0,0.0,0.0,0.0,0.0,0.0,0.0,0.0,0.0,0.0,0.0,0.0,0.0,0.0,0.1795,0.1795,0.1795,0.1795,0.1795,0.1795,0.1795,0.1811,0.1841,0.3037,0.3323,0.2895,0.3552,0.4066,0.4435,0.5298,0.4805,0.3573,0.2832,0.0985,-0.1356,-0.222,-0.3085,-0.3951,-0.3951,-0.3951,-0.3951,-0.3951,-0.3951,-0.3973,-0.409,-0.4125,-0.4151,-0.4273,-0.4308,-0.4308,-0.4308,-0.4308,-0.4308,-0.4308,-0.4308,-0.4308,-0.4308,-0.4308,-0.4308,-0.4308,-0.4308,-0.4308,-0.4308,-0.4308,-0.4308,-0.4308,-0.4308,-0.4308,-0.4308,-0.4308,-0.4308,-0.4308,-0.4308,-0.4308,-0.4308,-0.4308,-0.4308,-0.4308,-0.4348,-0.4371,-0.4371,-0.4388,-0.4437,-0.4521,-0.4556,-0.4594,-0.4638,-0.4655,-0.4665,-0.4665,-0.4665,-0.4687,1.0998,1.0511,1.0019,0.9727,0.9031,0.8233,0.7633,0.0,0.0,0.0,0.4834,0.4834,0.4834,0.0,0.0,0.0,0.0,0.0,0.0,0.0,0.0,0.0,0.0,0.0,0.0,0.0,0.0,0.0,0.0,0.0,0.0,0.0,0.0,0.0,0.1795,0.1795,0.1795,0.1795,0.1795,0.1795,0.202,0.203,0.1823,0.2662,0.2823,0.2512,0.3299,0.3944,0.4558,0.493,0.4682,0.382,0.2957,0.1479,-0.0493,-0.148,-0.2467,-0.3455,-0.3826,-0.3951,-0.3951,-0.3951,-0.3951,-0.3973,-0.409,-0.4125,-0.4151,-0.4273,-0.4308,-0.4308,-0.4308,-0.4308,-0.4308,-0.4308,-0.4308,-0.4308,-0.4308,-0.4308,-0.4308,-0.4308,-0.4308,-0.4308,-0.4308,-0.4308,-0.4308,-0.4308,-0.4308,-0.4308,-0.4308,-0.4308,-0.4308,-0.4308,-0.4308,-0.4308,-0.4308,-0.433,-0.4343,-0.4343,-0.4399,-0.4443,-0.4467,-0.4467,-0.4501,-0.4572,-0.4597,-0.4627,-0.4665,-0.4665,-0.4665,-0.4665,-0.4689,-0.4721,1.0609,1.0117,0.9628,0.9628,0.8931,0.7935,0.6442,0.6042,0.5641,0.4935,0.0,0.4834,0.0,0.0,0.0,0.0,0.0,0.0,0.0,0.0,0.0,0.0,0.0,0.0,0.0,0.0,0.0,0.0,0.0,0.0,0.0,0.0,0.0,0.0,0.1795,0.1795,0.1795,0.1795,0.1795,0.0,0.2356,0.2356,0.1908,0.1941,0.1974,0.2011,0.2802,0.3453,0.3944,0.4067,0.4066,0.3821,0.333,0.1973,0.037,-0.0616,-0.1603,-0.259,-0.358,-0.3951,-0.3951,-0.3951,-0.3951,-0.3973,-0.409,-0.4125,-0.4151,-0.4273,-0.4308,-0.4308,-0.4308,-0.4308,-0.4308,-0.4308,-0.4308,-0.4308,-0.4308,-0.4308,-0.4308,-0.4308,-0.4308,-0.4308,-0.4308,-0.4308,-0.4308,-0.4308,-0.4308,-0.4308,-0.4308,-0.4308,-0.4308,-0.4308,-0.4308,-0.4309,-0.4315,-0.4367,-0.4401,-0.4405,-0.4459,-0.4515,-0.4571,-0.4574,-0.4576,-0.4582,-0.4636,-0.4665,-0.4665,-0.4665,-0.4668,-0.4674,-0.4729,-0.4762,1.1194,1.0609,1.0117,0.9723,0.8531,0.7338,0.7039,0.5937,0.5035,0.4834,0.4834,0.4834,0.0,0.0,0.0,0.0,0.0,0.0,0.0,0.0,0.0,0.0,0.0,0.0,0.0,0.0,0.0,0.0,0.0,0.0,0.0,0.0,0.0,0.1795,0.1795,0.1795,0.1795,0.1795,0.1795,0.0,0.1908,0.2132,0.247,0.3082,0.3036,0.2762,0.3424,0.3821,0.3944,0.5053,0.4807,0.3944,0.3698,0.2341,0.037,-0.0616,-0.1603,-0.259,-0.358,-0.3951,-0.3951,-0.3951,-0.3951,-0.3973,-0.409,-0.4125,-0.4151,-0.4273,-0.4308,-0.4308,-0.4308,-0.4308,-0.4308,-0.4308,-0.4308,-0.4308,-0.4308,-0.4308,-0.4308,-0.4308,-0.4308,-0.4308,-0.4308,-0.4308,-0.4308,-0.4308,-0.4308,-0.4308,-0.4308,-0.4308,-0.4308,-0.4308,-0.4308,-0.4327,-0.4375,-0.4391,-0.4417,-0.4462,-0.4521,-0.4559,-0.4572,-0.4574,-0.4595,-0.4645,-0.4657,-0.4665,-0.4665,-0.4665,-0.4688,-0.4736,-0.4749,-0.4807,1.0998,1.0609,1.0113,0.873,0.7836,0.7039,0.6237,0.5434,0.4834,0.4834,0.4834,0.0,0.0,0.0,0.0,0.0,0.0,0.0,0.0,0.0,0.0,0.0,0.0,0.0,0.0,0.0,0.0,0.0,0.0,0.0,0.0,0.258,0.2244,0.2244,0.1908,0.1795,0.1795,0.1795,0.1795,0.1795,0.2132,0.2357,0.2695,0.3106,0.3168,0.2983,0.3662,0.4066,0.4435,0.4807,0.4559,0.3821,0.3207,0.2221,0.0987,-0.0493,-0.1356,-0.1973,-0.3455,-0.3951,-0.3951,-0.3951,-0.3951,-0.3973,-0.409,-0.4125,-0.4151,-0.4273,-0.4308,-0.4308,-0.4308,-0.4308,-0.4308,-0.4308,-0.4308,-0.4308,-0.4308,-0.4308,-0.4308,-0.4308,-0.4308,-0.4308,-0.4308,-0.4308,-0.4308,-0.4308,-0.4308,-0.4308,-0.4308,-0.4308,-0.4308,-0.4308,-0.4308,-0.4333,-0.4394,-0.4422,-0.4463,-0.4522,-0.4583,-0.4617,-0.4617,-0.4617,-0.4632,-0.4664,-0.4665,-0.4665,-0.4665,-0.4694,-0.4725,-0.4756,-0.4815,-0.4876,1.09,1.0507,0.9916,0.8031,0.7537,0.7036,0.5534,0.5135,0.4935,0.4834,0.4834,0.0,0.0,0.0,0.0,0.0,0.0,0.0,0.0,0.0,0.0,0.0,0.0,0.0,0.0,0.0,0.0,0.0,0.0,0.0,0.3811,0.3141,0.2806,0.2693,0.2356,0.2019,0.1795,0.1907,0.1908,0.1908,0.258,0.2693,0.2583,0.2776,0.2935,0.2947,0.3638,0.4301,0.4802,0.4312,0.3943,0.3821,0.2591,0.2099,0.1729,-0.0247,-0.0986,-0.1233,-0.3209,-0.3951,-0.3951,-0.3951,-0.3951,-0.3973,-0.409,-0.4125,-0.4151,-0.4273,-0.4308,-0.4308,-0.4308,-0.4308,-0.4308,-0.4308,-0.4308,-0.4308,-0.4308,-0.4308,-0.4308,-0.4308,-0.4308,-0.4308,-0.4308,-0.4308,-0.4308,-0.4308,-0.4308,-0.4308,-0.4308,-0.4308,-0.4308,-0.4308,-0.4316,-0.4348,-0.4407,-0.4466,-0.4525,-0.4585,-0.4636,-0.4665,-0.4665,-0.4665,-0.4665,-0.4665,-0.4665,-0.4669,-0.468,-0.473,-0.4766,-0.4789,-0.489,-0.4942,1.178,1.1096,1.0216,0.9426,0.873,0.8031,0.7135,0.0,0.5639,0.0,0.0,0.0,0.0,0.0,0.0,0.0,0.0,0.0,0.0,0.0,0.0,0.0,0.0,0.0,0.0,0.0,0.0,0.0,0.0,0.0,0.4369,0.3811,0.3253,0.2693,0.3139,0.2803,0.1795,0.2356,0.2581,0.2581,0.3141,0.2915,0.1908,0.2973,0.3253,0.2945,0.3596,0.4258,0.4925,0.4803,0.4435,0.3821,0.3083,0.2469,0.1729,-0.0247,-0.0986,-0.1233,-0.3209,-0.3951,-0.3951,-0.3951,-0.3951,-0.3973,-0.409,-0.4125,-0.4151,-0.4273,-0.4308,-0.4308,-0.4308,-0.4308,-0.4308,-0.4308,-0.4308,-0.4308,-0.4308,-0.4308,-0.4308,-0.4308,-0.4308,-0.4308,-0.4308,-0.4308,-0.4308,-0.4308,-0.4308,-0.4308,-0.4308,-0.4308,-0.4308,-0.4308,-0.4356,-0.441,-0.4466,-0.4526,-0.4587,-0.4649,-0.466,-0.4665,-0.4665,-0.4665,-0.4665,-0.4665,-0.4665,-0.4691,-0.4744,-0.4751,-0.4809,-0.4913,-0.4929,-0.4962,1.1683,1.0998,1.0113,0.9126,0.8333,0.7537,0.6739,0.5939,0.5236,0.4834,0.0,0.0,0.0,0.0,0.0,0.0,0.0,0.0,0.0,0.0,0.0,0.0,0.0,0.0,0.0,0.0,0.0,0.0,0.0,0.5043,0.5043,0.4482,0.4033,0.3699,0.3587,0.3139,0.2356,0.2581,0.2693,0.2693,0.3365,0.3141,0.2357,0.3165,0.3562,0.3532,0.4187,0.486,0.5421,0.4681,0.4189,0.3821,0.2838,0.1975,0.0987,-0.0493,-0.1356,-0.2097,-0.3455,-0.3951,-0.3951,-0.3951,-0.3951,-0.3973,-0.409,-0.4125,-0.4151,-0.4273,-0.4308,-0.4308,-0.4308,-0.4308,-0.4308,-0.4308,-0.4308,-0.4308,-0.4308,-0.4308,-0.4308,-0.4308,-0.4308,-0.4308,-0.4308,-0.4308,-0.4308,-0.4308,-0.4308,-0.4308,-0.4308,-0.4308,-0.432,-0.4356,-0.4383,-0.4435,-0.4526,-0.4557,-0.46,-0.466,-0.4665,-0.4665,-0.4665,-0.4665,-0.4665,-0.4665,-0.4698,-0.4729,-0.4755,-0.4823,-0.4884,-0.4937,-0.4969,-0.4997,1.1688,1.1096,1.0507,0.9221,0.8428,0.7733,0.0,0.0,0.5336,0.0,0.0,0.0,0.0,0.0,0.0,0.0,0.0,0.0,0.0,0.0,0.0,0.0,0.0,0.0,0.0,0.0,0.0,0.0,0.0,0.5382,0.5382,0.4931,0.4704,0.448,0.4033,0.3587,0.2917,0.2917,0.2806,0.2693,0.3141,0.3253,0.2917,0.3363,0.3757,0.4094,0.4639,0.5086,0.5546,0.4436,0.3821,0.3575,0.2469,0.1358,0.037,-0.0616,-0.1603,-0.259,-0.358,-0.3951,-0.3951,-0.3951,-0.3951,-0.3973,-0.409,-0.4125,-0.4151,-0.4273,-0.4308,-0.4308,-0.4308,-0.4308,-0.4308,-0.4308,-0.4308,-0.4308,-0.4308,-0.4308,-0.4308,-0.4308,-0.4308,-0.4308,-0.4308,-0.4308,-0.4308,-0.4308,-0.4308,-0.4308,-0.4308,-0.432,-0.4348,-0.4394,-0.4425,-0.4478,-0.4565,-0.4587,-0.4616,-0.4661,-0.4665,-0.4665,-0.4665,-0.4665,-0.4672,-0.4687,-0.4748,-0.4778,-0.4778,-0.4886,-0.4944,-0.4959,-0.5001,-0.5021,1.2078,1.198,1.1688,1.0605,1.0216,0.9715,0.0,0.0,0.0,0.0,0.0,0.0,0.0,0.0,0.0,0.0,0.0,0.0,0.0,0.0,0.0,0.0,0.0,0.0,0.0,0.0,0.0,0.0,0.0,0.5382,0.5382,0.5382,0.5043,0.448,0.4479,0.4145,0.3587,0.3587,0.3253,0.2693,0.2693,0.3029,0.3587,0.3587,0.396,0.4603,0.468,0.4913,0.4926,0.4189,0.3575,0.2961,0.2223,0.1358,0.037,-0.0616,-0.1603,-0.259,-0.358,-0.3951,-0.3951,-0.3951,-0.3951,-0.3973,-0.409,-0.4125,-0.4151,-0.4273,-0.4308,-0.4308,-0.4308,-0.4308,-0.4308,-0.4308,-0.4308,-0.4308,-0.4308,-0.4308,-0.4308,-0.4308,-0.4308,-0.4308,-0.4308,-0.4308,-0.4308,-0.4308,-0.4308,-0.4308,-0.4308,-0.4358,-0.4395,-0.4398,-0.4497,-0.4567,-0.4572,-0.4627,-0.4661,-0.4665,-0.4665,-0.4665,-0.4665,-0.4665,-0.4692,-0.4749,-0.4811,-0.4841,-0.4841,-0.4905,-0.4963,-0.5016,-0.5019,-0.5021,1.2175,1.198,1.178,1.11,1.0306,0.9316,0.8024,0.7036,0.6139,0.0,0.0,0.0,0.0,0.0,0.0,0.0,0.0,0.0,0.0,0.0,0.0,0.0,0.0,0.0,0.0,0.0,0.0,0.0,0.0,0.0,0.5382,0.5043,0.4929,0.5043,0.4704,0.4257,0.3587,0.3253,0.2918,0.2693,0.3475,0.3811,0.3587,0.4372,0.475,0.4598,0.4674,0.4765,0.474,0.4173,0.3575,0.2961,0.2223,0.1358,0.037,-0.0616,-0.1603,-0.259,-0.358,-0.3951,-0.3951,-0.3951,-0.3951,-0.3973,-0.409,-0.4125,-0.4151,-0.4273,-0.4308,-0.4308,-0.4308,-0.4308,-0.4308,-0.4308,-0.4308,-0.4308,-0.4308,-0.4308,-0.4308,-0.4308,-0.4308,-0.4308,-0.4308,-0.4308,-0.4308,-0.4308,-0.4308,-0.4322,-0.4361,-0.4386,-0.4427,-0.4503,-0.4548,-0.459,-0.4628,-0.4651,-0.4665,-0.4665,-0.4665,-0.4665,-0.4665,-0.4702,-0.4733,-0.4755,-0.4853,-0.4903,-0.4905,-0.4962,-0.5001,-0.5021,-0.5021,-0.5021,1.237,0.0,1.2175,1.1585,1.0797,0.9805,0.8319,0.0,0.6337,0.0,0.0,0.0,0.0,0.0,0.0,0.0,0.0,0.0,0.0,0.0,0.0,0.0,0.0,0.0,0.0,0.0,0.0,0.0,0.0,0.0,0.538,0.5043,0.4817,0.4819,0.4594,0.4033,0.3027,0.2806,0.2693,0.2693,0.3363,0.3698,0.3923,0.4484,0.4848,0.4905,0.4779,0.4631,0.4463,0.3797,0.3207,0.2592,0.2223,0.1358,0.037,-0.0616,-0.1603,-0.259,-0.358,-0.3951,-0.3951,-0.3951,-0.3951,-0.3973,-0.409,-0.4125,-0.4151,-0.4273,-0.4308,-0.4308,-0.4308,-0.4308,-0.4308,-0.4308,-0.4308,-0.4308,-0.4308,-0.4308,-0.4308,-0.4308,-0.4308,-0.4308,-0.4308,-0.4308,-0.4308,-0.4308,-0.4308,-0.433,-0.4391,-0.4416,-0.4465,-0.4563,-0.4591,-0.462,-0.4661,-0.4665,-0.4665,-0.4665,-0.4665,-0.4673,-0.4694,-0.4733,-0.4775,-0.4815,-0.4895,-0.4946,-0.4965,-0.5003,-0.5021,-0.5021,-0.5021,-0.5021,0.0,0.0,0.0,0.0,1.198,1.1287,0.8715,0.0,0.7425,0.0,0.0,0.0,0.0,0.0,0.0,0.0,0.0,0.0,0.0,0.0,0.0,0.0,0.0,0.0,0.0,0.0,0.0,0.0,0.0,0.5284,0.5373,0.538,0.4821,0.3699,0.4145,0.3586,0.1907,0.2357,0.2693,0.2693,0.2132,0.2802,0.448,0.3923,0.426,0.5392,0.4875,0.4391,0.3735,0.3186,0.2592,0.1977,0.1977,0.1358,0.037,-0.0616,-0.1603,-0.259,-0.3579,-0.3828,-0.3951,-0.3951,-0.3951,-0.3973,-0.409,-0.4125,-0.4151,-0.4273,-0.4308,-0.4308,-0.4308,-0.4308,-0.4308,-0.4308,-0.4308,-0.4308,-0.4308,-0.4308,-0.4308,-0.4308,-0.4308,-0.4308,-0.4308,-0.4308,-0.4308,-0.4308,-0.4309,-0.4333,-0.4392,-0.445,-0.4508,-0.457,-0.463,-0.4665,-0.4665,-0.4665,-0.4665,-0.4665,-0.4666,-0.4694,-0.4754,-0.4759,-0.4816,-0.4935,-0.4937,-0.4966,-0.5021,-0.5021,-0.5021,-0.5021,-0.5021,-0.5021,1.2764,0.0,0.0,0.0,0.0,0.0,1.0288,0.9698,0.881,0.0,0.0,0.0,0.0,0.0,0.0,0.0,0.0,0.0,0.0,0.0,0.0,0.0,0.0,0.0,0.0,0.0,0.0,0.0,0.5169,0.5255,0.5282,0.5345,0.5044,0.4257,0.4033,0.3587,0.3139,0.2356,0.202,0.202,0.2356,0.2917,0.381,0.4145,0.4706,0.5392,0.441,0.3894,0.3681,0.3172,0.2592,0.1977,0.1977,0.1853,0.1481,0.0493,-0.0493,-0.1603,-0.259,-0.3332,-0.3951,-0.3951,-0.3951,-0.3973,-0.409,-0.4125,-0.4151,-0.4273,-0.4308,-0.4308,-0.4308,-0.4308,-0.4308,-0.4308,-0.4308,-0.4308,-0.4308,-0.4308,-0.4308,-0.4308,-0.4308,-0.4308,-0.4308,-0.4308,-0.4308,-0.4308,-0.4345,-0.4394,-0.4451,-0.4511,-0.4571,-0.4632,-0.4654,-0.4665,-0.4665,-0.4665,-0.4665,-0.4665,-0.4706,-0.4737,-0.4755,-0.4839,-0.4902,-0.4936,-0.4977,-0.5006,-0.5021,-0.5021,-0.5021,-0.5021,-0.5021,-0.5021,0.0,0.0,0.0,0.0,0.0,0.0,1.0783,0.9993,0.8909,0.0,0.0,0.0,0.0,0.0,0.0,0.0,0.0,0.0,0.0,0.0,0.0,0.0,0.0,0.0,0.0,0.0,0.0,0.4969,0.5071,0.5163,0.5241,0.5333,0.5043,0.4145,0.3811,0.3475,0.3253,0.2243,0.1908,0.2132,0.2244,0.2803,0.3587,0.3921,0.4594,0.5392,0.418,0.3651,0.366,0.2924,0.2346,0.1977,0.1977,0.1977,0.1853,0.0863,-0.0123,-0.1109,-0.2097,-0.3085,-0.3951,-0.3951,-0.3951,-0.3973,-0.409,-0.4125,-0.4151,-0.4273,-0.4308,-0.4308,-0.4308,-0.4308,-0.4308,-0.4308,-0.4308,-0.4308,-0.4308,-0.4308,-0.4308,-0.4308,-0.4308,-0.4308,-0.4308,-0.4308,-0.4308,-0.4308,-0.436,-0.4418,-0.4476,-0.4536,-0.4597,-0.4658,-0.4665,-0.4665,-0.4665,-0.4665,-0.4665,-0.4665,-0.4722,-0.4766,-0.4792,-0.4886,-0.4948,-0.4971,-0.5004,-0.5021,-0.5021,-0.5021,-0.5021,-0.5021,-0.5021,-0.5021,0.0,0.0,0.0,0.0,0.0,0.0,1.069,0.9797,0.8707,0.6933,0.0,0.0,0.0,0.0,0.0,0.0,0.0,0.0,0.0,0.0,0.0,0.0,0.0,0.0,0.0,0.4834,0.4867,0.4848,0.4864,0.4946,0.5235,0.532,0.4923,0.3811,0.3699,0.3475,0.2918,0.2356,0.2244,0.2693,0.2244,0.2579,0.3587,0.3699,0.4372,0.5392,0.4296,0.3768,0.366,0.256,0.2099,0.1977,0.1977,0.1977,0.1853,0.0987,0.0,-0.0986,-0.1973,-0.2961,-0.3703,-0.3828,-0.3955,-0.3981,-0.4091,-0.4131,-0.4159,-0.4275,-0.4308,-0.4308,-0.4308,-0.4308,-0.4308,-0.4308,-0.4308,-0.4308,-0.4308,-0.4308,-0.4308,-0.4308,-0.4308,-0.4308,-0.4308,-0.4308,-0.4309,-0.4316,-0.4369,-0.4428,-0.4485,-0.4546,-0.4604,-0.4658,-0.4665,-0.4665,-0.4665,-0.4665,-0.4668,-0.4674,-0.4732,-0.4793,-0.4853,-0.4913,-0.497,-0.5021,-0.5021,-0.5021,-0.5021,-0.5021,-0.5021,-0.5021,-0.5021,-0.5021,0.0,0.0,0.0,0.0,0.0,0.0,1.2365,1.2165,1.1575,0.0,0.0,0.0,0.0,0.0,0.0,0.0,0.0,0.0,0.0,0.0,0.0,0.0,0.0,0.0,0.0,0.4834,0.4642,0.4255,0.4316,0.4633,0.5126,0.5261,0.5194,0.5043,0.4594,0.4257,0.4145,0.3586,0.3029,0.2693,0.3029,0.3363,0.3587,0.4145,0.4706,0.5392,0.476,0.4237,0.366,0.3046,0.2469,0.1977,0.1977,0.1977,0.1977,0.1729,0.1111,0.0123,-0.0986,-0.1973,-0.2838,-0.3703,-0.3981,-0.4031,-0.4104,-0.4159,-0.4214,-0.4288,-0.4308,-0.4308,-0.4308,-0.4308,-0.4308,-0.4308,-0.4308,-0.4308,-0.4308,-0.4308,-0.4308,-0.4308,-0.4308,-0.4308,-0.4308,-0.4308,-0.4324,-0.4373,-0.4429,-0.4488,-0.4548,-0.4609,-0.4651,-0.4662,-0.4665,-0.4665,-0.4665,-0.4665,-0.4685,-0.4734,-0.4794,-0.4856,-0.4917,-0.4974,-0.501,-0.5021,-0.5021,-0.5021,-0.5021,-0.5021,-0.5021,-0.5021,-0.5021,-0.5021,0.0,0.0,0.0,1.2861,0.0,0.0,0.0,1.2068,1.1575,1.0587,0.0,0.0,0.0,0.0,0.0,0.0,0.0,0.0,0.0,0.0,0.0,0.0,0.0,0.0,0.0,0.4834,0.4734,0.4435,0.4511,0.47,0.5104,0.5196,0.5045,0.4867,0.4571,0.4369,0.4033,0.3699,0.3477,0.3141,0.3477,0.3811,0.4033,0.4369,0.4817,0.5392,0.4874,0.4355,0.366,0.3168,0.2838,0.2469,0.2099,0.2223,0.2469,0.2099,0.1358,0.037,-0.0123,-0.1233,-0.259,-0.3085,-0.3613,-0.4046,-0.4108,-0.4189,-0.4268,-0.4298,-0.4308,-0.4308,-0.4308,-0.4308,-0.4308,-0.4308,-0.4308,-0.4308,-0.4308,-0.4308,-0.4308,-0.4308,-0.4308,-0.4308,-0.4308,-0.4308,-0.4328,-0.439,-0.4446,-0.4504,-0.4565,-0.4627,-0.4665,-0.4665,-0.4665,-0.4665,-0.4665,-0.4692,-0.4722,-0.4754,-0.4841,-0.4905,-0.4935,-0.4991,-0.5021,-0.5021,-0.5021,-0.5021,-0.5021,-0.5021,-0.5021,-0.5021,-0.5021,-0.5021,0.0,0.0,0.0,0.0,0.0,1.2667,0.0,0.0,0.0,1.0587,0.0,0.0,0.0,0.0,0.0,0.0,0.0,0.0,0.0,0.0,0.0,0.0,0.0,0.0,0.0,0.4734,0.4734,0.4834,0.4802,0.485,0.4971,0.5128,0.5007,0.4475,0.4552,0.4482,0.3923,0.3923,0.3923,0.3811,0.3923,0.4147,0.448,0.4592,0.4931,0.5392,0.4989,0.4472,0.366,0.3288,0.3207,0.3085,0.2346,0.2469,0.2961,0.2223,0.1481,0.074,0.0616,-0.074,-0.222,-0.2466,-0.3245,-0.4065,-0.4139,-0.4229,-0.4308,-0.4308,-0.4308,-0.4308,-0.4308,-0.4308,-0.4308,-0.4308,-0.4308,-0.4308,-0.4308,-0.4308,-0.4308,-0.4308,-0.4308,-0.4308,-0.4308,-0.4318,-0.4345,-0.4405,-0.4463,-0.4522,-0.4583,-0.4634,-0.4665,-0.4665,-0.4665,-0.4665,-0.4665,-0.4721,-0.476,-0.4773,-0.4876,-0.4942,-0.4952,-0.4996,-0.5021,-0.5021,-0.5021,-0.5021,-0.5021,-0.5021,-0.5021,-0.5021,-0.5021,-0.5021,0.0,0.0,0.0,0.0,1.2958,0.0,0.0,0.0,1.2565,1.2467,0.0,0.0,0.0,0.0,0.0,0.0,0.0,0.0,0.0,0.0,0.0,0.0,0.0,0.0,0.0,0.0,0.4332,0.4734,0.4342,0.438,0.4967,0.5067,0.5159,0.5132,0.5222,0.5268,0.5156,0.5156,0.4931,0.4369,0.4931,0.4931,0.448,0.5043,0.5382,0.5392,0.5452,0.4824,0.366,0.3774,0.3821,0.3698,0.2469,0.2469,0.2961,0.2223,0.1977,0.1729,0.0863,-0.0247,-0.1356,-0.222,-0.3269,-0.4136,-0.4252,-0.4296,-0.4308,-0.4308,-0.4308,-0.4308,-0.4308,-0.4308,-0.4308,-0.4308,-0.4308,-0.4308,-0.4308,-0.4308,-0.4308,-0.4308,-0.4308,-0.4308,-0.4308,-0.4352,-0.4407,-0.4465,-0.4525,-0.4585,-0.4646,-0.466,-0.4665,-0.4665,-0.4665,-0.4665,-0.4665,-0.4721,-0.4778,-0.4831,-0.4899,-0.4959,-0.5008,-0.5016,-0.5021,-0.5021,-0.5021,-0.5021,-0.5021,-0.5021,-0.5021,-0.5021,-0.5021,-0.5021,0.0,0.0,0.0,0.0,0.0,0.0,0.0,0.0,1.2764,0.0,0.0,0.0,0.0,0.0,0.0,0.0,0.0,0.0,0.0,0.0,0.0,0.0,0.0,0.0,0.0,0.0,0.0,0.0,0.0,0.4551,0.489,0.4979,0.5071,0.5163,0.5253,0.5105,0.4929,0.5105,0.4995,0.4479,0.4993,0.5218,0.5043,0.5268,0.5382,0.5392,0.5567,0.5057,0.4248,0.4017,0.4189,0.4312,0.3085,0.2961,0.3453,0.2838,0.2346,0.1977,0.1481,0.074,-0.0371,-0.2012,-0.3317,-0.4149,-0.427,-0.4308,-0.4308,-0.4308,-0.4308,-0.4308,-0.4308,-0.4308,-0.4308,-0.4308,-0.4308,-0.4308,-0.4308,-0.4308,-0.4308,-0.4308,-0.4308,-0.4319,-0.4354,-0.4382,-0.4417,-0.4474,-0.4534,-0.4595,-0.4657,-0.4665,-0.4665,-0.4665,-0.4665,-0.4679,-0.4714,-0.4773,-0.4834,-0.4895,-0.4954,-0.4996,-0.5021,-0.5021,-0.5021,-0.5021,-0.5021,-0.5021,-0.5021,-0.5021,-0.5021,-0.5021,-0.5021,-0.5021,1.4027,0.0,0.0,0.0,0.0,0.0,0.0,0.0,0.0,0.0,0.0,0.0,0.0,0.0,0.0,0.0,0.0,0.0,0.0,0.0,0.0,0.0,0.0,0.0,0.0,0.0,0.0,0.0,0.0,0.0,0.4834,0.4922,0.5014,0.5104,0.5198,0.5054,0.4672,0.5056,0.5056,0.4672,0.5054,0.5294,0.5382,0.5382,0.5382,0.5392,0.5567,0.5293,0.4719,0.4258,0.4435,0.4803,0.3821,0.3698,0.3821,0.3207,0.2592,0.1977,0.2223,0.1484,0.0,-0.1916,-0.323,-0.417,-0.4275,-0.4308,-0.4308,-0.4308,-0.4308,-0.4308,-0.4308,-0.4308,-0.4308,-0.4308,-0.4308,-0.4308,-0.4308,-0.4308,-0.4308,-0.4308,-0.4308,-0.4327,-0.4388,-0.4412,-0.4442,-0.4499,-0.4559,-0.4615,-0.4658,-0.4665,-0.4665,-0.4665,-0.4665,-0.4688,-0.4751,-0.4811,-0.4879,-0.4955,-0.4999,-0.5021,-0.5021,-0.5021,-0.5021,-0.5021,-0.5021,-0.5021,-0.5021,-0.5021,-0.5021,-0.5021,-0.5021,-0.5021,0.0,0.0,0.0,1.3835,0.0,0.0,0.0,0.0,1.305,0.0,0.0,0.0,0.0,0.0,0.0,0.0,0.0,0.0,0.0,0.0,0.0,0.0,0.0,0.0,0.0,0.0,0.0,0.0,0.0,0.0,0.4834,0.4922,0.5014,0.5104,0.5198,0.5245,0.514,0.5245,0.5245,0.514,0.5245,0.5294,0.5382,0.5382,0.5382,0.5392,0.5567,0.5293,0.4719,0.4865,0.4925,0.4925,0.4802,0.4435,0.3821,0.3207,0.2592,0.2099,0.2716,0.1617,-0.0378,-0.205,-0.3383,-0.4226,-0.4289,-0.4308,-0.4308,-0.4308,-0.4308,-0.4308,-0.4308,-0.4308,-0.4308,-0.4308,-0.4308,-0.4308,-0.4308,-0.4308,-0.4308,-0.4308,-0.4308,-0.4327,-0.4388,-0.4444,-0.45,-0.4561,-0.4623,-0.4662,-0.4665,-0.4665,-0.4665,-0.4665,-0.4665,-0.4688,-0.4751,-0.4811,-0.4895,-0.5011,-0.5021,-0.5021,-0.5021,-0.5021,-0.5021,-0.5021,-0.5021,-0.5021,-0.5021,-0.5021,-0.5021,-0.5021,-0.5021,-0.5021,0.0,0.0,1.3931,1.3931,0.0,0.0,0.0,0.0,0.0,0.0,0.0,0.0,0.0,0.0,0.0,0.0,0.0,0.0,0.0,0.0,0.0,0.0,0.0,0.0,0.0,0.0,0.0,0.0,0.0,0.0,0.0,0.4863,0.4922,0.5014,0.5049,0.5094,0.5153,0.5094,0.5124,0.5243,0.5184,0.5235,0.5382,0.5382,0.5382,0.5392,0.5567,0.5526,0.5305,0.4986,0.5174,0.5544,0.5049,0.4802,0.4435,0.3821,0.2961,0.1977,0.2223,0.1743,0.0631,-0.1154,-0.2343,-0.3301,-0.402,-0.4308,-0.4308,-0.4308,-0.4308,-0.4308,-0.4308,-0.4308,-0.4308,-0.4308,-0.4308,-0.4308,-0.4308,-0.4308,-0.4308,-0.4308,-0.4341,-0.4386,-0.4444,-0.4503,-0.4549,-0.4571,-0.4625,-0.4665,-0.4665,-0.4665,-0.4665,-0.4665,-0.47,-0.4749,-0.4811,-0.4905,-0.4978,-0.5018,-0.5021,-0.5021,-0.5021,-0.5021,-0.5021,-0.5021,-0.5021,-0.5021,-0.5021,-0.5021,-0.5021,-0.5021,-0.5021,-0.5021,1.4298,1.4208,0.0,1.4022,1.3925,0.0,1.3636,0.0,0.0,0.0,0.0,0.0,0.0,0.0,0.0,0.0,0.0,0.0,0.0,0.5035,0.0,0.0,0.0,0.0,0.0,0.0,0.0,0.0,0.0,0.0,0.0,0.0,0.4877,0.4969,0.4971,0.5,0.5059,0.5035,0.5079,0.5196,0.5169,0.5235,0.5382,0.5382,0.5382,0.5392,0.5567,0.5643,0.554,0.5352,0.5544,0.5916,0.5421,0.5049,0.4803,0.4189,0.3329,0.2592,0.2099,0.1876,0.1526,-0.0514,-0.1829,-0.2791,-0.4026,-0.4308,-0.4308,-0.4308,-0.4308,-0.4308,-0.4308,-0.4308,-0.4308,-0.4308,-0.4308,-0.4308,-0.4308,-0.4308,-0.4308,-0.4308,-0.4357,-0.4417,-0.4473,-0.4533,-0.458,-0.4602,-0.4639,-0.4665,-0.4665,-0.4665,-0.4665,-0.4665,-0.4719,-0.4789,-0.4871,-0.4965,-0.5021,-0.5021,-0.5021,-0.5021,-0.5021,-0.5021,-0.5021,-0.5021,-0.5021,-0.5021,-0.5021,-0.5021,-0.5021,-0.5021,-0.5021,-0.5021]}]]